Site Date RecNum LW_MEAN_3000_0_04 LWDRY_TOT_3000_0_04 LWCON_TOT_3000_0_04 LWWET_TOT_3000_0_04 LW_MEAN_4000_0_05 LWDRY_TOT_4000_0_05 LWCON_TOT_4000_0_05 LWWET_TOT_4000_0_05 LW_MEAN_5000_0_06 LWDRY_TOT_5000_0_06 LWCON_TOT_5000_0_06 LWWET_TOT_5000_0_06 AIRTEMP_MEAN_5000_0_06 RELHUM_MEAN_5000_0_06 DEWPT_MEAN_5000_0_06 WSPD_SNC_MEAN_5000_0_02 WSPD_SNC_MAG_5000_0_02 WDIR_SNC_MEAN_5000_0_02 WDIR_SNC_STDDEV_5000_0_02 WSPD_SNC_MAX_5000_0_02 AIRTEMP_MAX_5000_0_06 AIRTEMP_MIN_5000_0_06 RELHUM_MAX_5000_0_06 RELHUM_MIN_5000_0_06 SATVAPAIR_MEAN_5000_0_06 SATVAPDEW_MEAN_5000_0_06 VPD_MEAN_5000_0_06 LOGGERID PROGID
DSCMET_421 2018-10-01 00:00:00 6770 187.900 5.0000 0.0000 0.0000 265.900 5.0000 0.0000 0.0000 265.900 5.0000 0.0000 0.0000 10.930 95.000 10.161           11.080 10.550 95.500 94.600 13.065 12.412 0.653 421 696.6
DSCMET_421 2018-09-30 23:55:00 6769 187.800 5.0000 0.0000 0.0000 265.900 5.0000 0.0000 0.0000 266.000 5.0000 0.0000 0.0000 10.940 95.000 10.171           11.060 10.730 95.200 94.700 13.074 12.420 0.654 421 696.6
DSCMET_421 2018-09-30 23:50:00 6768 187.900 5.0000 0.0000 0.0000 265.900 5.0000 0.0000 0.0000 266.300 5.0000 0.0000 0.0000 10.910 95.800 10.267           11.000 10.710 96.600 95.000 13.048 12.500 0.548 421 696.6
DSCMET_421 2018-09-30 23:45:00 6767 187.900 5.0000 0.0000 0.0000 265.900 5.0000 0.0000 0.0000 266.200 5.0000 0.0000 0.0000 10.900 95.300 10.178           11.050 10.730 95.500 94.900 13.039 12.426 0.613 421 696.6
DSCMET_421 2018-09-30 23:40:00 6766 187.900 5.0000 0.0000 0.0000 265.900 5.0000 0.0000 0.0000 266.200 5.0000 0.0000 0.0000 10.960 95.000 10.191           11.030 10.850 95.400 94.800 13.091 12.437 0.655 421 696.6
DSCMET_421 2018-09-30 23:35:00 6765 187.900 5.0000 0.0000 0.0000 265.900 5.0000 0.0000 0.0000 266.100 5.0000 0.0000 0.0000 10.970 94.700 10.154           11.100 10.760 95.200 94.200 13.100 12.406 0.694 421 696.6
DSCMET_421 2018-09-30 23:30:00 6764 187.800 5.0000 0.0000 0.0000 265.900 5.0000 0.0000 0.0000 265.900 5.0000 0.0000 0.0000 11.060 94.200 10.164           11.230 10.830 94.500 93.700 13.179 12.414 0.764 421 696.6
DSCMET_421 2018-09-30 23:25:00 6763 187.900 5.0000 0.0000 0.0000 265.900 5.0000 0.0000 0.0000 265.900 5.0000 0.0000 0.0000 11.140 93.700 10.164           11.250 10.950 94.200 93.500 13.249 12.414 0.835 421 696.6
DSCMET_421 2018-09-30 23:20:00 6762 187.900 5.0000 0.0000 0.0000 265.900 5.0000 0.0000 0.0000 265.900 5.0000 0.0000 0.0000 11.130 93.900 10.186           11.230 11.050 94.500 93.500 13.240 12.432 0.808 421 696.6
DSCMET_421 2018-09-30 23:15:00 6761 187.900 5.0000 0.0000 0.0000 265.900 5.0000 0.0000 0.0000 265.900 5.0000 0.0000 0.0000 11.140 93.600 10.148           11.280 10.980 94.500 93.100 13.249 12.401 0.848 421 696.6
DSCMET_421 2018-09-30 23:10:00 6760 187.900 5.0000 0.0000 0.0000 265.900 5.0000 0.0000 0.0000 265.900 5.0000 0.0000 0.0000 11.100 94.100 10.188           11.230 11.000 94.600 93.400 13.214 12.434 0.780 421 696.6
DSCMET_421 2018-09-30 23:05:00 6759 187.900 5.0000 0.0000 0.0000 265.900 5.0000 0.0000 0.0000 265.900 5.0000 0.0000 0.0000 11.070 94.300 10.190           11.210 10.830 94.600 93.900 13.187 12.436 0.752 421 696.6
DSCMET_421 2018-09-30 23:00:00 6758 188.000 5.0000 0.0000 0.0000 265.900 5.0000 0.0000 0.0000 265.900 5.0000 0.0000 0.0000 11.090 94.600 10.257           11.200 10.900 95.600 93.800 13.205 12.492 0.713 421 696.6
DSCMET_421 2018-09-30 22:55:00 6757 188.000 5.0000 0.0000 0.0000 265.900 5.0000 0.0000 0.0000 265.900 5.0000 0.0000 0.0000 11.070 94.300 10.190           11.150 10.980 94.500 94.200 13.187 12.436 0.752 421 696.6
DSCMET_421 2018-09-30 22:50:00 6756 188.100 5.0000 0.0000 0.0000 265.900 5.0000 0.0000 0.0000 266.100 5.0000 0.0000 0.0000 11.050 94.900 10.265           11.180 10.760 95.300 94.500 13.170 12.498 0.672 421 696.6
DSCMET_421 2018-09-30 22:45:00 6755 188.200 5.0000 0.0000 0.0000 265.900 5.0000 0.0000 0.0000 266.300 5.0000 0.0000 0.0000 11.000 95.200 10.262           11.100 10.860 95.400 94.900 13.126 12.496 0.630 421 696.6
DSCMET_421 2018-09-30 22:40:00 6754 188.200 5.0000 0.0000 0.0000 266.000 5.0000 0.0000 0.0000 266.300 5.0000 0.0000 0.0000 11.030 95.600 10.355           11.160 10.900 96.200 94.800 13.152 12.574 0.579 421 696.6
DSCMET_421 2018-09-30 22:35:00 6753 188.500 5.0000 0.0000 0.0000 265.900 5.0000 0.0000 0.0000 266.300 5.0000 0.0000 0.0000 10.940 95.600 10.265           11.030 10.750 96.100 95.100 13.074 12.499 0.575 421 696.6
DSCMET_421 2018-09-30 22:30:00 6752 188.600 5.0000 0.0000 0.0000 265.900 5.0000 0.0000 0.0000 266.300 5.0000 0.0000 0.0000 10.960 95.400 10.254           11.180 10.780 95.800 94.700 13.091 12.489 0.602 421 696.6
DSCMET_421 2018-09-30 22:25:00 6751 188.500 5.0000 0.0000 0.0000 265.900 5.0000 0.0000 0.0000 266.300 5.0000 0.0000 0.0000 11.100 94.800 10.299           11.200 10.910 95.700 94.500 13.214 12.527 0.687 421 696.6
DSCMET_421 2018-09-30 22:20:00 6750 188.800 5.0000 0.0000 0.0000 265.900 5.0000 0.0000 0.0000 266.500 5.0000 0.0000 0.0000 10.960 96.300 10.394           11.100 10.900 96.600 95.900 13.091 12.607 0.484 421 696.6
DSCMET_421 2018-09-30 22:15:00 6749 188.800 5.0000 0.0000 0.0000 265.900 5.0000 0.0000 0.0000 266.300 5.0000 0.0000 0.0000 11.070 95.300 10.347           11.200 10.880 95.900 95.000 13.187 12.568 0.620 421 696.6
DSCMET_421 2018-09-30 22:10:00 6748 188.800 5.0000 0.0000 0.0000 265.900 5.0000 0.0000 0.0000 266.300 5.0000 0.0000 0.0000 11.130 95.500 10.438           11.230 11.010 95.800 95.200 13.240 12.644 0.596 421 696.6
DSCMET_421 2018-09-30 22:05:00 6747 188.500 5.0000 0.0000 0.0000 265.900 5.0000 0.0000 0.0000 266.300 5.0000 0.0000 0.0000 11.180 95.700 10.520           11.310 11.050 95.900 95.400 13.284 12.713 0.571 421 696.6
DSCMET_421 2018-09-30 22:00:00 6746 188.300 5.0000 0.0000 0.0000 265.900 5.0000 0.0000 0.0000 266.300 5.0000 0.0000 0.0000 11.100 96.700 10.596           11.240 10.980 97.100 95.900 13.214 12.778 0.436 421 696.6
DSCMET_421 2018-09-30 21:55:00 6745 188.300 5.0000 0.0000 0.0000 265.900 5.0000 0.0000 0.0000 266.300 5.0000 0.0000 0.0000 11.140 96.600 10.620           11.260 10.950 97.200 96.100 13.249 12.798 0.450 421 696.6
DSCMET_421 2018-09-30 21:50:00 6744 188.300 5.0000 0.0000 0.0000 265.900 5.0000 0.0000 0.0000 266.300 5.0000 0.0000 0.0000 11.220 96.100 10.622           11.310 11.090 96.200 95.800 13.319 12.800 0.519 421 696.6
DSCMET_421 2018-09-30 21:45:00 6743 188.300 5.0000 0.0000 0.0000 265.900 5.0000 0.0000 0.0000 266.300 5.0000 0.0000 0.0000 11.350 95.300 10.626           11.610 11.130 96.100 94.600 13.435 12.803 0.631 421 696.6
DSCMET_421 2018-09-30 21:40:00 6742 188.300 5.0000 0.0000 0.0000 265.900 5.0000 0.0000 0.0000 266.500 5.0000 0.0000 0.0000 11.310 96.400 10.758           11.560 11.080 97.100 95.000 13.399 12.917 0.482 421 696.6
DSCMET_421 2018-09-30 21:35:00 6741 188.300 5.0000 0.0000 0.0000 265.900 5.0000 0.0000 0.0000 266.600 5.0000 0.0000 0.0000 11.150 97.200 10.723           11.280 10.830 97.300 97.000 13.258 12.886 0.371 421 696.6
DSCMET_421 2018-09-30 21:30:00 6740 188.500 5.0000 0.0000 0.0000 265.900 5.0000 0.0000 0.0000 266.700 5.0000 0.0000 0.0000 11.230 97.000 10.772           11.370 11.110 97.300 96.500 13.328 12.928 0.400 421 696.6
DSCMET_421 2018-09-30 21:25:00 6739 188.500 5.0000 0.0000 0.0000 265.900 5.0000 0.0000 0.0000 266.800 5.0000 0.0000 0.0000 11.470 95.500 10.777           11.570 11.290 96.500 95.200 13.542 12.932 0.609 421 696.6
DSCMET_421 2018-09-30 21:20:00 6738 188.500 5.0000 0.0000 0.0000 265.900 5.0000 0.0000 0.0000 267.500 5.0000 0.0000 0.0000 11.450 96.300 10.882           11.590 11.210 96.700 95.600 13.524 13.024 0.500 421 696.6
DSCMET_421 2018-09-30 21:15:00 6737 188.600 5.0000 0.0000 0.0000 265.900 5.0000 0.0000 0.0000 267.500 5.0000 0.0000 0.0000 11.380 96.600 10.859           11.560 11.190 96.800 96.300 13.461 13.004 0.458 421 696.6
DSCMET_421 2018-09-30 21:10:00 6736 188.700 5.0000 0.0000 0.0000 265.900 5.0000 0.0000 0.0000 267.100 5.0000 0.0000 0.0000 11.460 96.400 10.908           11.590 11.360 96.700 96.000 13.533 13.046 0.487 421 696.6
DSCMET_421 2018-09-30 21:05:00 6735 188.700 5.0000 0.0000 0.0000 265.900 5.0000 0.0000 0.0000 266.700 5.0000 0.0000 0.0000 11.470 95.900 10.839           11.620 11.170 96.400 95.300 13.542 12.987 0.555 421 696.6
DSCMET_421 2018-09-30 21:00:00 6734 188.800 5.0000 0.0000 0.0000 265.900 5.0000 0.0000 0.0000 266.600 5.0000 0.0000 0.0000 11.770 95.000 10.996           11.900 11.620 95.200 94.700 13.813 13.123 0.691 421 696.6
DSCMET_421 2018-09-30 20:55:00 6733 188.800 5.0000 0.0000 0.0000 265.900 5.0000 0.0000 0.0000 266.500 5.0000 0.0000 0.0000 11.830 94.700 11.008           11.940 11.590 94.900 94.400 13.868 13.133 0.735 421 696.6
DSCMET_421 2018-09-30 20:50:00 6732 188.700 5.0000 0.0000 0.0000 265.900 5.0000 0.0000 0.0000 266.200 5.0000 0.0000 0.0000 11.860 94.300 10.974           12.000 11.650 94.600 94.100 13.896 13.104 0.792 421 696.6
DSCMET_421 2018-09-30 20:45:00 6731 188.700 5.0000 0.0000 0.0000 265.900 5.0000 0.0000 0.0000 266.200 5.0000 0.0000 0.0000 12.010 94.100 11.091           12.100 11.880 94.200 93.800 14.034 13.206 0.828 421 696.6
DSCMET_421 2018-09-30 20:40:00 6730 188.800 5.0000 0.0000 0.0000 265.900 5.0000 0.0000 0.0000 266.200 5.0000 0.0000 0.0000 12.110 94.100 11.190           12.230 11.970 94.700 93.700 14.127 13.293 0.833 421 696.6
DSCMET_421 2018-09-30 20:35:00 6729 188.700 5.0000 0.0000 0.0000 265.900 5.0000 0.0000 0.0000 266.200 5.0000 0.0000 0.0000 12.060 94.400 11.189           12.180 11.930 94.600 94.000 14.080 13.292 0.788 421 696.6
DSCMET_421 2018-09-30 20:30:00 6728 188.600 5.0000 0.0000 0.0000 265.900 5.0000 0.0000 0.0000 266.200 5.0000 0.0000 0.0000 12.160 94.100 11.240           12.280 11.970 94.500 93.900 14.173 13.337 0.836 421 696.6
DSCMET_421 2018-09-30 20:25:00 6727 188.600 5.0000 0.0000 0.0000 265.900 5.0000 0.0000 0.0000 266.200 5.0000 0.0000 0.0000 12.150 94.200 11.246           12.260 11.950 94.500 94.100 14.164 13.342 0.822 421 696.6
DSCMET_421 2018-09-30 20:20:00 6726 188.400 5.0000 0.0000 0.0000 265.900 5.0000 0.0000 0.0000 266.000 5.0000 0.0000 0.0000 12.310 93.700 11.325           12.590 12.000 94.400 92.700 14.314 13.412 0.902 421 696.6
DSCMET_421 2018-09-30 20:15:00 6725 188.100 5.0000 0.0000 0.0000 265.900 5.0000 0.0000 0.0000 265.900 5.0000 0.0000 0.0000 12.570 92.400 11.371           12.760 12.110 93.300 91.800 14.560 13.454 1.107 421 696.6
DSCMET_421 2018-09-30 20:10:00 6724 188.400 5.0000 0.0000 0.0000 265.900 5.0000 0.0000 0.0000 265.900 5.0000 0.0000 0.0000 12.600 92.700 11.450           12.710 12.490 93.300 92.000 14.589 13.524 1.065 421 696.6
DSCMET_421 2018-09-30 20:05:00 6723 188.100 5.0000 0.0000 0.0000 265.900 5.0000 0.0000 0.0000 265.900 5.0000 0.0000 0.0000 12.540 93.600 11.537           12.710 12.380 93.800 93.100 14.532 13.602 0.930 421 696.6
DSCMET_421 2018-09-30 20:00:00 6722 187.800 5.0000 0.0000 0.0000 265.900 5.0000 0.0000 0.0000 265.700 5.0000 0.0000 0.0000 12.780 92.800 11.645           12.910 12.610 93.200 92.000 14.762 13.699 1.063 421 696.6
DSCMET_421 2018-09-30 19:55:00 6721 187.900 5.0000 0.0000 0.0000 265.900 5.0000 0.0000 0.0000 265.500 5.0000 0.0000 0.0000 13.030 91.300 11.646           13.220 12.720 92.000 90.500 15.006 13.700 1.306 421 696.6
DSCMET_421 2018-09-30 19:50:00 6720 187.900 5.0000 0.0000 0.0000 265.900 5.0000 0.0000 0.0000 265.500 5.0000 0.0000 0.0000 13.250 90.300 11.697           13.390 13.040 91.100 89.100 15.223 13.746 1.477 421 696.6
DSCMET_421 2018-09-30 19:45:00 6719 188.000 5.0000 0.0000 0.0000 265.900 5.0000 0.0000 0.0000 265.500 5.0000 0.0000 0.0000 13.400 89.600 11.727           13.650 13.070 91.000 88.300 15.373 13.774 1.599 421 696.6
DSCMET_421 2018-09-30 19:40:00 6718 188.200 5.0000 0.0000 0.0000 265.900 5.0000 0.0000 0.0000 265.500 5.0000 0.0000 0.0000 13.480 90.200 11.907           13.640 13.270 91.000 89.600 15.453 13.939 1.514 421 696.6
DSCMET_421 2018-09-30 19:35:00 6717 188.300 5.0000 0.0000 0.0000 265.800 5.0000 0.0000 0.0000 265.500 5.0000 0.0000 0.0000 13.510 90.100 11.920           13.730 13.320 90.600 89.200 15.483 13.951 1.533 421 696.6
DSCMET_421 2018-09-30 19:30:00 6716 188.200 5.0000 0.0000 0.0000 265.800 5.0000 0.0000 0.0000 265.500 5.0000 0.0000 0.0000 13.470 91.500 12.114           13.650 13.250 93.100 89.500 15.443 14.130 1.313 421 696.6
DSCMET_421 2018-09-30 19:25:00 6715 188.000 5.0000 0.0000 0.0000 265.800 5.0000 0.0000 0.0000 265.500 5.0000 0.0000 0.0000 13.330 92.600 12.157           13.470 13.140 92.800 92.100 15.303 14.170 1.132 421 696.6
DSCMET_421 2018-09-30 19:20:00 6714 187.800 5.0000 0.0000 0.0000 265.800 5.0000 0.0000 0.0000 265.500 5.0000 0.0000 0.0000 13.460 91.100 12.038           13.650 13.250 92.000 90.000 15.433 14.060 1.374 421 696.6
DSCMET_421 2018-09-30 19:15:00 6713 187.800 5.0000 0.0000 0.0000 265.800 5.0000 0.0000 0.0000 265.500 5.0000 0.0000 0.0000 13.700 91.400 12.325           13.880 13.380 92.600 90.200 15.676 14.328 1.348 421 696.6
DSCMET_421 2018-09-30 19:10:00 6712 187.700 5.0000 0.0000 0.0000 265.800 5.0000 0.0000 0.0000 265.500 5.0000 0.0000 0.0000 13.960 89.400 12.246           14.130 13.650 90.500 88.500 15.943 14.253 1.690 421 696.6
DSCMET_421 2018-09-30 19:05:00 6711 187.700 5.0000 0.0000 0.0000 265.800 5.0000 0.0000 0.0000 265.500 5.0000 0.0000 0.0000 13.750 88.400 11.868           13.860 13.580 89.500 87.800 15.727 13.903 1.824 421 696.6
DSCMET_421 2018-09-30 19:00:00 6710 188.000 5.0000 0.0000 0.0000 265.800 5.0000 0.0000 0.0000 265.500 5.0000 0.0000 0.0000 13.840 91.000 12.397           13.990 13.630 91.500 89.900 15.819 14.396 1.424 421 696.6
DSCMET_421 2018-09-30 18:55:00 6709 187.900 5.0000 0.0000 0.0000 265.800 5.0000 0.0000 0.0000 265.500 5.0000 0.0000 0.0000 13.990 89.000 12.207           14.090 13.810 90.900 87.200 15.974 14.217 1.757 421 696.6
DSCMET_421 2018-09-30 18:50:00 6708 187.900 5.0000 0.0000 0.0000 265.800 5.0000 0.0000 0.0000 265.500 5.0000 0.0000 0.0000 14.080 88.600 12.227           14.310 13.780 90.500 87.800 16.068 14.236 1.832 421 696.6
DSCMET_421 2018-09-30 18:45:00 6707 187.900 5.0000 0.0000 0.0000 265.800 5.0000 0.0000 0.0000 265.300 5.0000 0.0000 0.0000 14.190 89.600 12.506           14.410 13.990 92.700 85.900 16.183 14.500 1.683 421 696.6
DSCMET_421 2018-09-30 18:40:00 6706 187.800 5.0000 0.0000 0.0000 265.600 5.0000 0.0000 0.0000 265.100 5.0000 0.0000 0.0000 14.360 86.100 12.068           14.500 14.210 86.700 85.700 16.362 14.088 2.274 421 696.6
DSCMET_421 2018-09-30 18:35:00 6705 187.400 5.0000 0.0000 0.0000 265.500 5.0000 0.0000 0.0000 265.100 5.0000 0.0000 0.0000 14.560 85.600 12.176           14.680 14.440 87.400 85.000 16.575 14.188 2.387 421 696.6
DSCMET_421 2018-09-30 18:30:00 6704 187.800 5.0000 0.0000 0.0000 265.500 5.0000 0.0000 0.0000 265.200 5.0000 0.0000 0.0000 14.560 89.500 12.854           14.650 14.440 92.100 87.300 16.575 14.834 1.740 421 696.6
DSCMET_421 2018-09-30 18:25:00 6703 187.800 5.0000 0.0000 0.0000 265.500 5.0000 0.0000 0.0000 265.100 5.0000 0.0000 0.0000 14.710 89.700 13.037           14.880 14.530 91.600 85.400 16.736 15.012 1.724 421 696.6
DSCMET_421 2018-09-30 18:20:00 6702 187.800 5.0000 0.0000 0.0000 265.500 5.0000 0.0000 0.0000 264.800 5.0000 0.0000 0.0000 14.910 83.900 12.214           15.050 14.780 85.600 82.900 16.953 14.224 2.729 421 696.6
DSCMET_421 2018-09-30 18:15:00 6701 187.300 5.0000 0.0000 0.0000 265.400 5.0000 0.0000 0.0000 264.800 5.0000 0.0000 0.0000 15.200 83.400 12.407           15.460 14.860 85.500 80.800 17.273 14.405 2.867 421 696.6
DSCMET_421 2018-09-30 18:10:00 6700 187.600 5.0000 0.0000 0.0000 265.400 5.0000 0.0000 0.0000 264.800 5.0000 0.0000 0.0000 15.160 83.000 12.295           15.310 14.890 84.700 80.700 17.228 14.300 2.929 421 696.6
DSCMET_421 2018-09-30 18:05:00 6699 187.800 5.0000 0.0000 0.0000 265.400 5.0000 0.0000 0.0000 265.000 5.0000 0.0000 0.0000 15.110 88.300 13.190           15.260 14.860 90.600 84.300 17.173 15.164 2.009 421 696.6
DSCMET_421 2018-09-30 18:00:00 6698 187.700 5.0000 0.0000 0.0000 265.400 5.0000 0.0000 0.0000 264.900 5.0000 0.0000 0.0000 15.430 86.200 13.136           15.710 15.090 90.900 80.200 17.530 15.111 2.419 421 696.6
DSCMET_421 2018-09-30 17:55:00 6697 187.600 5.0000 0.0000 0.0000 265.400 5.0000 0.0000 0.0000 264.700 5.0000 0.0000 0.0000 15.600 83.000 12.725           15.760 15.460 85.500 79.630 17.722 14.709 3.013 421 696.6
DSCMET_421 2018-09-30 17:50:00 6696 187.900 5.0000 0.0000 0.0000 265.400 5.0000 0.0000 0.0000 264.600 5.0000 0.0000 0.0000 15.670 84.200 13.013           15.890 15.460 86.300 82.300 17.801 14.989 2.813 421 696.6
DSCMET_421 2018-09-30 17:45:00 6695 187.900 5.0000 0.0000 0.0000 265.400 5.0000 0.0000 0.0000 264.500 5.0000 0.0000 0.0000 16.060 83.300 13.230           16.230 15.890 85.000 82.400 18.251 15.203 3.048 421 696.6
DSCMET_421 2018-09-30 17:40:00 6694 187.800 5.0000 0.0000 0.0000 265.400 5.0000 0.0000 0.0000 264.400 5.0000 0.0000 0.0000 16.040 83.100 13.173           16.220 15.820 85.300 81.200 18.228 15.147 3.080 421 696.6
DSCMET_421 2018-09-30 17:35:00 6693 187.500 5.0000 0.0000 0.0000 265.300 5.0000 0.0000 0.0000 264.400 5.0000 0.0000 0.0000 16.280 81.000 13.016           16.550 16.020 82.500 78.380 18.509 14.992 3.517 421 696.6
DSCMET_421 2018-09-30 17:30:00 6692 187.500 5.0000 0.0000 0.0000 265.300 5.0000 0.0000 0.0000 264.400 5.0000 0.0000 0.0000 16.350 82.600 13.384           16.550 16.170 85.200 78.460 18.592 15.357 3.235 421 696.6
DSCMET_421 2018-09-30 17:25:00 6691 187.900 5.0000 0.0000 0.0000 265.100 5.0000 0.0000 0.0000 264.400 5.0000 0.0000 0.0000 16.530 82.800 13.597           16.690 16.330 84.000 81.900 18.806 15.571 3.235 421 696.6
DSCMET_421 2018-09-30 17:20:00 6690 188.000 5.0000 0.0000 0.0000 265.100 5.0000 0.0000 0.0000 264.300 5.0000 0.0000 0.0000 16.740 80.600 13.388           16.980 16.410 82.900 78.270 19.058 15.361 3.697 421 696.6
DSCMET_421 2018-09-30 17:15:00 6689 187.800 5.0000 0.0000 0.0000 265.100 5.0000 0.0000 0.0000 264.100 5.0000 0.0000 0.0000 16.750 80.600 13.398           16.860 16.510 82.400 78.970 19.071 15.371 3.700 421 696.6
DSCMET_421 2018-09-30 17:10:00 6688 187.900 5.0000 0.0000 0.0000 265.100 5.0000 0.0000 0.0000 264.100 5.0000 0.0000 0.0000 16.980 76.690 12.860           17.140 16.760 80.600 73.660 19.351 14.840 4.511 421 696.6
DSCMET_421 2018-09-30 17:05:00 6687 188.000 5.0000 0.0000 0.0000 265.100 5.0000 0.0000 0.0000 264.100 5.0000 0.0000 0.0000 16.750 82.000 13.662           16.870 16.480 83.100 79.610 19.071 15.638 3.433 421 696.6
DSCMET_421 2018-09-30 17:00:00 6686 188.000 5.0000 0.0000 0.0000 265.000 5.0000 0.0000 0.0000 264.100 5.0000 0.0000 0.0000 17.120 78.170 13.288           17.260 16.840 82.700 74.440 19.523 15.261 4.262 421 696.6
DSCMET_421 2018-09-30 16:55:00 6685 188.100 5.0000 0.0000 0.0000 265.000 5.0000 0.0000 0.0000 264.000 5.0000 0.0000 0.0000 17.040 80.500 13.661           17.250 16.710 82.800 76.010 19.425 15.637 3.788 421 696.6
DSCMET_421 2018-09-30 16:50:00 6684 188.100 5.0000 0.0000 0.0000 264.900 5.0000 0.0000 0.0000 264.000 5.0000 0.0000 0.0000 17.410 78.110 13.558           17.550 17.200 80.700 75.910 19.885 15.532 4.353 421 696.6
DSCMET_421 2018-09-30 16:45:00 6683 187.800 5.0000 0.0000 0.0000 264.800 5.0000 0.0000 0.0000 264.000 5.0000 0.0000 0.0000 17.410 79.220 13.775           17.520 17.170 80.800 76.690 19.885 15.753 4.132 421 696.6
DSCMET_421 2018-09-30 16:40:00 6682 187.700 5.0000 0.0000 0.0000 264.700 5.0000 0.0000 0.0000 263.800 5.0000 0.0000 0.0000 17.640 75.850 13.330           17.870 17.200 80.700 69.690 20.175 15.303 4.872 421 696.6
DSCMET_421 2018-09-30 16:35:00 6681 187.900 5.0000 0.0000 0.0000 264.700 5.0000 0.0000 0.0000 263.700 5.0000 0.0000 0.0000 17.880 73.780 13.138           18.070 17.670 76.580 72.210 20.483 15.112 5.371 421 696.6
DSCMET_421 2018-09-30 16:30:00 6680 187.800 5.0000 0.0000 0.0000 264.700 5.0000 0.0000 0.0000 263.700 5.0000 0.0000 0.0000 17.700 77.400 13.699           17.930 17.450 80.400 74.190 20.252 15.675 4.577 421 696.6
DSCMET_421 2018-09-30 16:25:00 6679 187.900 5.0000 0.0000 0.0000 264.700 5.0000 0.0000 0.0000 263.700 5.0000 0.0000 0.0000 17.940 76.280 13.707           18.250 17.620 80.600 67.700 20.560 15.683 4.877 421 696.6
DSCMET_421 2018-09-30 16:20:00 6678 188.000 5.0000 0.0000 0.0000 264.700 5.0000 0.0000 0.0000 263.400 5.0000 0.0000 0.0000 18.450 68.060 12.452           18.760 18.110 74.570 62.490 21.229 14.448 6.781 421 696.6
DSCMET_421 2018-09-30 16:15:00 6677 188.100 5.0000 0.0000 0.0000 264.700 5.0000 0.0000 0.0000 263.500 5.0000 0.0000 0.0000 18.340 72.880 13.393           18.660 17.950 78.660 62.840 21.083 15.365 5.718 421 696.6
DSCMET_421 2018-09-30 16:10:00 6676 188.000 5.0000 0.0000 0.0000 264.700 5.0000 0.0000 0.0000 263.400 5.0000 0.0000 0.0000 18.650 70.650 13.214           18.960 18.310 76.060 63.790 21.496 15.187 6.309 421 696.6
DSCMET_421 2018-09-30 16:05:00 6675 188.100 5.0000 0.0000 0.0000 264.700 5.0000 0.0000 0.0000 263.300 5.0000 0.0000 0.0000 18.740 69.600 13.071           19.080 18.560 76.610 57.200 21.618 15.046 6.572 421 696.6
DSCMET_421 2018-09-30 16:00:00 6674 188.000 5.0000 0.0000 0.0000 264.700 5.0000 0.0000 0.0000 263.200 5.0000 0.0000 0.0000 19.020 65.200 12.341           19.260 18.710 72.770 58.310 21.999 14.343 7.656 421 696.6
DSCMET_421 2018-09-30 15:55:00 6673 188.200 5.0000 0.0000 0.0000 264.700 5.0000 0.0000 0.0000 263.300 5.0000 0.0000 0.0000 18.840 65.490 12.238           19.070 18.560 71.160 58.440 21.753 14.246 7.507 421 696.6
DSCMET_421 2018-09-30 15:50:00 6672 188.400 5.0000 0.0000 0.0000 264.600 5.0000 0.0000 0.0000 263.200 5.0000 0.0000 0.0000 18.920 63.600 11.870           19.190 18.610 69.790 56.920 21.862 13.904 7.958 421 696.6
DSCMET_421 2018-09-30 15:45:00 6671 188.200 5.0000 0.0000 0.0000 264.400 5.0000 0.0000 0.0000 263.300 5.0000 0.0000 0.0000 18.920 66.730 12.600           19.170 18.640 73.690 55.740 21.862 14.589 7.274 421 696.6
DSCMET_421 2018-09-30 15:40:00 6670 187.900 5.0000 0.0000 0.0000 264.300 5.0000 0.0000 0.0000 263.200 5.0000 0.0000 0.0000 18.990 70.060 13.411           19.390 18.590 76.930 60.030 21.958 15.384 6.574 421 696.6
DSCMET_421 2018-09-30 15:35:00 6669 187.700 5.0000 0.0000 0.0000 264.200 5.0000 0.0000 0.0000 263.000 5.0000 0.0000 0.0000 19.350 55.890 10.327           19.490 19.120 61.050 53.380 22.456 12.551 9.905 421 696.6
DSCMET_421 2018-09-30 15:30:00 6668 187.800 5.0000 0.0000 0.0000 264.300 5.0000 0.0000 0.0000 263.100 5.0000 0.0000 0.0000 19.140 61.240 11.505           19.450 18.560 73.230 53.550 22.164 13.573 8.591 421 696.6
DSCMET_421 2018-09-30 15:25:00 6667 188.100 5.0000 0.0000 0.0000 264.400 5.0000 0.0000 0.0000 263.200 5.0000 0.0000 0.0000 19.060 68.390 13.108           19.490 18.630 75.470 58.130 22.054 15.083 6.971 421 696.6
DSCMET_421 2018-09-30 15:20:00 6666 188.100 5.0000 0.0000 0.0000 264.300 5.0000 0.0000 0.0000 263.000 5.0000 0.0000 0.0000 19.310 57.620 10.747           19.520 19.090 66.540 54.730 22.400 12.907 9.493 421 696.6
DSCMET_421 2018-09-30 15:15:00 6665 188.000 5.0000 0.0000 0.0000 264.300 5.0000 0.0000 0.0000 263.200 5.0000 0.0000 0.0000 19.340 62.540 12.012           19.670 19.040 72.390 55.770 22.442 14.035 8.407 421 696.6
DSCMET_421 2018-09-30 15:10:00 6664 188.000 5.0000 0.0000 0.0000 264.300 5.0000 0.0000 0.0000 263.400 5.0000 0.0000 0.0000 19.330 64.350 12.436           19.590 19.070 73.530 56.350 22.428 14.432 7.996 421 696.6
DSCMET_421 2018-09-30 15:05:00 6663 188.100 5.0000 0.0000 0.0000 264.400 5.0000 0.0000 0.0000 263.400 5.0000 0.0000 0.0000 19.140 71.830 13.938           19.360 18.910 76.800 66.490 22.164 15.921 6.244 421 696.6
DSCMET_421 2018-09-30 15:00:00 6662 188.100 5.0000 0.0000 0.0000 264.200 5.0000 0.0000 0.0000 263.200 5.0000 0.0000 0.0000 19.370 63.150 12.187           19.600 19.070 74.400 54.690 22.484 14.199 8.285 421 696.6
DSCMET_421 2018-09-30 14:55:00 6661 188.000 5.0000 0.0000 0.0000 264.200 5.0000 0.0000 0.0000 263.300 5.0000 0.0000 0.0000 19.390 68.780 13.510           19.570 19.040 75.290 62.470 22.512 15.484 7.028 421 696.6
DSCMET_421 2018-09-30 14:50:00 6660 187.900 5.0000 0.0000 0.0000 264.000 5.0000 0.0000 0.0000 263.000 5.0000 0.0000 0.0000 19.280 61.170 11.620           19.490 18.890 70.420 56.390 22.358 13.677 8.682 421 696.6
DSCMET_421 2018-09-30 14:45:00 6659 187.800 5.0000 0.0000 0.0000 263.900 5.0000 0.0000 0.0000 262.900 5.0000 0.0000 0.0000 19.380 57.130 10.684           19.570 19.140 65.190 53.370 22.498 12.853 9.645 421 696.6
DSCMET_421 2018-09-30 14:40:00 6658 187.800 5.0000 0.0000 0.0000 263.800 5.0000 0.0000 0.0000 262.900 5.0000 0.0000 0.0000 19.730 59.140 11.532           20.240 19.290 63.770 55.010 22.992 13.598 9.395 421 696.6
DSCMET_421 2018-09-30 14:35:00 6657 187.500 5.0000 0.0000 0.0000 263.900 5.0000 0.0000 0.0000 263.100 5.0000 0.0000 0.0000 20.190 56.780 11.347           20.770 19.750 60.730 51.210 23.657 13.432 10.224 421 696.6
DSCMET_421 2018-09-30 14:30:00 6656 187.600 5.0000 0.0000 0.0000 264.000 5.0000 0.0000 0.0000 263.100 5.0000 0.0000 0.0000 19.460 58.760 11.182           19.690 19.120 66.140 54.080 22.610 13.286 9.324 421 696.6
DSCMET_421 2018-09-30 14:25:00 6655 187.600 5.0000 0.0000 0.0000 264.200 5.0000 0.0000 0.0000 263.400 5.0000 0.0000 0.0000 19.040 64.760 12.257           19.470 18.660 74.420 54.800 22.026 14.264 7.762 421 696.6
DSCMET_421 2018-09-30 14:20:00 6654 187.300 5.0000 0.0000 0.0000 264.000 5.0000 0.0000 0.0000 263.400 5.0000 0.0000 0.0000 18.680 72.270 13.590           19.060 18.410 76.760 66.670 21.537 15.565 5.972 421 696.6
DSCMET_421 2018-09-30 14:15:00 6653 188.400 5.0000 0.0000 0.0000 263.800 5.0000 0.0000 0.0000 263.200 5.0000 0.0000 0.0000 18.970 64.760 12.191           19.180 18.630 74.320 56.740 21.930 14.202 7.728 421 696.6
DSCMET_421 2018-09-30 14:10:00 6652 188.800 5.0000 0.0000 0.0000 263.400 5.0000 0.0000 0.0000 263.000 5.0000 0.0000 0.0000 19.190 55.310 10.023           19.380 19.060 58.250 54.090 22.233 12.297 9.936 421 696.6
DSCMET_421 2018-09-30 14:05:00 6651 188.700 5.0000 0.0000 0.0000 263.200 5.0000 0.0000 0.0000 263.000 5.0000 0.0000 0.0000 19.450 56.490 10.580           19.690 19.260 65.280 53.060 22.596 12.764 9.832 421 696.6
DSCMET_421 2018-09-30 14:00:00 6650 188.900 5.0000 0.0000 0.0000 263.300 5.0000 0.0000 0.0000 263.000 5.0000 0.0000 0.0000 19.630 56.010 10.620           20.210 19.280 60.440 54.400 22.850 12.798 10.052 421 696.6
DSCMET_421 2018-09-30 13:55:00 6649 189.000 5.0000 0.0000 0.0000 263.800 5.0000 0.0000 0.0000 263.100 5.0000 0.0000 0.0000 19.490 57.540 10.894           20.220 18.980 66.210 54.820 22.652 13.034 9.618 421 696.6
DSCMET_421 2018-09-30 13:50:00 6648 188.900 5.0000 0.0000 0.0000 263.800 5.0000 0.0000 0.0000 263.100 5.0000 0.0000 0.0000 19.050 58.780 10.803           19.310 18.810 62.980 56.110 22.040 12.955 9.085 421 696.6
DSCMET_421 2018-09-30 13:45:00 6647 189.000 5.0000 0.0000 0.0000 264.000 5.0000 0.0000 0.0000 263.300 5.0000 0.0000 0.0000 18.980 62.150 11.577           19.330 18.380 70.440 57.240 21.944 13.638 8.306 421 696.6
DSCMET_421 2018-09-30 13:40:00 6646 188.600 5.0000 0.0000 0.0000 263.800 5.0000 0.0000 0.0000 263.100 5.0000 0.0000 0.0000 18.950 59.030 10.773           19.130 18.670 69.680 55.020 21.903 12.929 8.974 421 696.6
DSCMET_421 2018-09-30 13:35:00 6645 188.800 5.0000 0.0000 0.0000 263.600 5.0000 0.0000 0.0000 263.400 5.0000 0.0000 0.0000 19.180 60.830 11.441           19.400 18.980 68.800 58.380 22.220 13.516 8.703 421 696.6
DSCMET_421 2018-09-30 13:30:00 6644 190.500 5.0000 0.0000 0.0000 264.300 5.0000 0.0000 0.0000 263.600 5.0000 0.0000 0.0000 19.200 65.190 12.510           19.730 18.340 76.300 58.090 22.247 14.503 7.744 421 696.6
DSCMET_421 2018-09-30 13:25:00 6643 198.000 5.0000 0.0000 0.0000 264.100 5.0000 0.0000 0.0000 263.400 5.0000 0.0000 0.0000 18.600 62.060 11.197           18.720 18.370 77.810 58.820 21.429 13.299 8.130 421 696.6
DSCMET_421 2018-09-30 13:20:00 6642 206.900 5.0000 0.0000 0.0000 264.100 5.0000 0.0000 0.0000 263.100 5.0000 0.0000 0.0000 18.670 58.630 10.409           18.770 18.450 62.070 56.590 21.523 12.619 8.904 421 696.6
DSCMET_421 2018-09-30 13:15:00 6641 214.600 5.0000 0.0000 0.0000 264.300 5.0000 0.0000 0.0000 263.400 5.0000 0.0000 0.0000 18.850 60.750 11.111           19.170 18.520 68.040 58.090 21.767 13.223 8.543 421 696.6
DSCMET_421 2018-09-30 13:10:00 6640 219.800 5.0000 0.0000 0.0000 264.400 5.0000 0.0000 0.0000 263.400 5.0000 0.0000 0.0000 18.620 62.590 11.344           18.850 18.490 65.850 59.070 21.456 13.429 8.027 421 696.6
DSCMET_421 2018-09-30 13:05:00 6639 225.400 5.0000 0.0000 0.0000 264.500 5.0000 0.0000 0.0000 263.500 5.0000 0.0000 0.0000 18.600 61.280 11.007           18.870 18.340 66.600 57.490 21.429 13.132 8.297 421 696.6
DSCMET_421 2018-09-30 13:00:00 6638 229.900 5.0000 0.0000 0.0000 265.100 5.0000 0.0000 0.0000 263.700 5.0000 0.0000 0.0000 18.360 61.960 10.946           18.460 18.140 65.210 59.300 21.110 13.079 8.030 421 696.6
DSCMET_421 2018-09-30 12:55:00 6637 233.800 5.0000 0.0000 0.0000 265.900 5.0000 0.0000 0.0000 263.800 5.0000 0.0000 0.0000 18.470 64.110 11.565           18.790 18.310 68.210 61.840 21.256 13.627 7.629 421 696.6
DSCMET_421 2018-09-30 12:50:00 6636 239.400 5.0000 0.0000 0.0000 267.000 5.0000 0.0000 0.0000 263.900 5.0000 0.0000 0.0000 18.260 64.610 11.483           18.410 18.130 74.630 62.120 20.978 13.554 7.424 421 696.6
DSCMET_421 2018-09-30 12:45:00 6635 245.200 5.0000 0.0000 0.0000 269.500 5.0000 0.0000 0.0000 264.300 5.0000 0.0000 0.0000 18.270 75.390 13.845           18.440 18.030 84.100 66.390 20.991 15.825 5.166 421 696.6
DSCMET_421 2018-09-30 12:40:00 6634 246.600 5.0000 0.0000 0.0000 271.400 5.0000 0.0000 0.0000 264.400 5.0000 0.0000 0.0000 17.890 78.130 14.027           18.160 17.650 83.100 72.580 20.495 16.013 4.482 421 696.6
DSCMET_421 2018-09-30 12:35:00 6633 246.200 5.0000 0.0000 0.0000 274.400 2.0000 3.0000 0.0000 264.200 5.0000 0.0000 0.0000 17.460 74.670 12.916           17.660 17.170 77.390 72.100 19.947 14.895 5.053 421 696.6
DSCMET_421 2018-09-30 12:30:00 6632 248.800 5.0000 0.0000 0.0000 282.200 0.0000 3.2500 1.7500 264.400 5.0000 0.0000 0.0000 17.300 78.000 13.430           17.470 17.050 83.900 72.250 19.747 15.402 4.344 421 696.6
DSCMET_421 2018-09-30 12:25:00 6631 250.600 5.0000 0.0000 0.0000 289.000 0.0000 0.0000 5.0000 264.400 5.0000 0.0000 0.0000 17.200 80.300 13.779           17.530 16.980 88.100 72.930 19.622 15.757 3.866 421 696.6
DSCMET_421 2018-09-30 12:20:00 6630 250.700 5.0000 0.0000 0.0000 297.400 0.0000 0.0000 5.0000 264.200 5.0000 0.0000 0.0000 16.920 74.600 12.381           17.070 16.720 76.140 73.190 19.277 14.381 4.896 421 696.6
DSCMET_421 2018-09-30 12:15:00 6629 252.900 5.0000 0.0000 0.0000 308.200 0.0000 0.0000 5.0000 264.200 5.0000 0.0000 0.0000 16.710 75.520 12.365           16.880 16.450 77.920 73.740 19.022 14.366 4.657 421 696.6
DSCMET_421 2018-09-30 12:10:00 6628 256.000 5.0000 0.0000 0.0000 321.500 0.0000 0.0000 5.0000 264.400 5.0000 0.0000 0.0000 16.590 78.970 12.930           16.750 16.340 85.100 76.380 18.878 14.908 3.970 421 696.6
DSCMET_421 2018-09-30 12:05:00 6627 258.700 5.0000 0.0000 0.0000 334.900 0.0000 0.0000 5.0000 264.700 5.0000 0.0000 0.0000 16.540 81.400 13.345           16.720 16.410 84.700 79.170 18.818 15.318 3.500 421 696.6
DSCMET_421 2018-09-30 12:00:00 6626 259.800 5.0000 0.0000 0.0000 345.200 0.0000 0.0000 5.0000 264.600 5.0000 0.0000 0.0000 16.410 83.100 13.535           16.560 16.290 89.900 78.720 18.663 15.509 3.154 421 696.6
DSCMET_421 2018-09-30 11:55:00 6625 260.200 5.0000 0.0000 0.0000 355.200 0.0000 0.0000 5.0000 264.400 5.0000 0.0000 0.0000 16.440 84.900 13.894           16.570 16.270 87.400 81.900 18.698 15.875 2.823 421 696.6
DSCMET_421 2018-09-30 11:50:00 6624 259.900 5.0000 0.0000 0.0000 365.900 0.0000 0.0000 5.0000 264.200 5.0000 0.0000 0.0000 16.350 80.700 13.027           16.560 16.190 88.000 74.520 18.592 15.003 3.588 421 696.6
DSCMET_421 2018-09-30 11:45:00 6623 260.700 5.0000 0.0000 0.0000 378.300 0.0000 0.0000 5.0000 264.000 5.0000 0.0000 0.0000 16.150 74.760 11.671           16.340 15.910 76.080 73.280 18.356 13.723 4.633 421 696.6
DSCMET_421 2018-09-30 11:40:00 6622 264.000 5.0000 0.0000 0.0000 390.300 0.0000 0.0000 5.0000 264.500 5.0000 0.0000 0.0000 15.970 77.560 12.054           16.210 15.810 81.700 74.970 18.146 14.074 4.072 421 696.6
DSCMET_421 2018-09-30 11:35:00 6621 266.800 5.0000 0.0000 0.0000 398.700 0.0000 0.0000 5.0000 264.400 5.0000 0.0000 0.0000 15.810 77.750 11.936           15.930 15.580 81.000 74.340 17.962 13.965 3.996 421 696.6
DSCMET_421 2018-09-30 11:30:00 6620 269.200 5.0000 0.0000 0.0000 406.700 0.0000 0.0000 5.0000 264.800 5.0000 0.0000 0.0000 15.770 85.600 13.363           16.000 15.650 92.500 75.620 17.916 15.336 2.580 421 696.6
DSCMET_421 2018-09-30 11:25:00 6619 270.000 5.0000 0.0000 0.0000 411.700 0.0000 0.0000 5.0000 265.100 5.0000 0.0000 0.0000 15.700 92.100 14.421           16.000 15.280 93.400 90.000 17.836 16.427 1.409 421 696.6
DSCMET_421 2018-09-30 11:20:00 6618 270.300 5.0000 0.0000 0.0000 415.000 0.0000 0.0000 5.0000 264.800 5.0000 0.0000 0.0000 15.240 91.400 13.848           15.430 15.100 94.100 87.100 17.317 15.828 1.489 421 696.6
DSCMET_421 2018-09-30 11:15:00 6617 270.800 5.0000 0.0000 0.0000 418.300 0.0000 0.0000 5.0000 264.500 5.0000 0.0000 0.0000 15.660 85.800 13.291           15.950 15.350 89.400 82.400 17.790 15.264 2.526 421 696.6
DSCMET_421 2018-09-30 11:10:00 6616 271.600 5.0000 0.0000 0.0000 421.500 0.0000 0.0000 5.0000 264.000 5.0000 0.0000 0.0000 16.160 84.700 13.583           16.880 15.630 88.900 80.000 18.368 15.557 2.810 421 696.6
DSCMET_421 2018-09-30 11:05:00 6615 272.000 5.0000 0.0000 0.0000 425.300 0.0000 0.0000 5.0000 264.500 5.0000 0.0000 0.0000 16.130 85.500 13.698           16.760 15.390 92.200 78.570 18.333 15.674 2.658 421 696.6
DSCMET_421 2018-09-30 11:00:00 6614 272.800 5.0000 0.0000 0.0000 431.600 0.0000 0.0000 5.0000 265.600 5.0000 0.0000 0.0000 15.470 81.500 12.320           15.720 15.210 85.000 78.100 17.575 14.323 3.251 421 696.6
DSCMET_421 2018-09-30 10:55:00 6613 273.000 3.7500 1.2500 0.0000 436.500 0.0000 0.0000 5.0000 266.600 5.0000 0.0000 0.0000 15.130 79.450 11.603           15.310 15.040 82.500 76.560 17.195 13.662 3.534 421 696.6
DSCMET_421 2018-09-30 10:50:00 6612 277.700 0.0000 5.0000 0.0000 446.000 0.0000 0.0000 5.0000 270.700 4.2500 0.7500 0.0000 14.910 83.800 12.196           15.120 14.590 88.900 77.910 16.953 14.207 2.746 421 696.6
DSCMET_421 2018-09-30 10:45:00 6611 282.500 0.0000 4.5000 0.5000 454.300 0.0000 0.0000 5.0000 288.900 0.0000 1.0000 4.0000 14.720 88.300 12.806           14.840 14.610 90.500 84.500 16.747 14.788 1.959 421 696.6
DSCMET_421 2018-09-30 10:40:00 6610 283.900 0.0000 2.5000 2.5000 458.700 0.0000 0.0000 5.0000 290.500 0.0000 0.0000 5.0000 14.850 95.900 14.202           15.060 14.480 97.500 91.200 16.888 16.196 0.692 421 696.6
DSCMET_421 2018-09-30 10:35:00 6609 284.600 0.0000 1.2500 3.7500 463.600 0.0000 0.0000 5.0000 291.400 0.0000 0.0000 5.0000 14.600 91.300 13.198           14.760 14.440 93.900 88.500 16.618 15.172 1.446 421 696.6
DSCMET_421 2018-09-30 10:30:00 6608 287.400 0.0000 0.0000 5.0000 470.700 0.0000 0.0000 5.0000 297.500 0.0000 0.0000 5.0000 14.500 89.100 12.727           14.640 14.410 93.400 87.200 16.511 14.711 1.800 421 696.6
DSCMET_421 2018-09-30 10:25:00 6607 286.400 0.0000 0.0000 5.0000 472.300 0.0000 0.0000 5.0000 295.100 0.0000 0.0000 5.0000 14.440 92.300 13.207           14.550 14.380 93.700 91.000 16.447 15.180 1.266 421 696.6
DSCMET_421 2018-09-30 10:20:00 6606 284.800 0.0000 0.0000 5.0000 471.200 0.0000 0.0000 5.0000 281.300 0.5000 2.5000 2.0000 14.450 93.400 13.398           14.580 14.250 95.000 92.300 16.457 15.371 1.086 421 696.6
DSCMET_421 2018-09-30 10:15:00 6605 285.700 0.0000 0.0000 5.0000 473.000 0.0000 0.0000 5.0000 274.500 0.7500 4.2500 0.0000 14.430 94.600 13.575           14.560 14.310 96.800 93.000 16.436 15.549 0.888 421 696.6
DSCMET_421 2018-09-30 10:10:00 6604 286.500 0.0000 0.0000 5.0000 475.500 0.0000 0.0000 5.0000 274.400 0.0000 5.0000 0.0000 14.460 95.700 13.782           14.710 14.200 97.900 93.100 16.468 15.760 0.708 421 696.6
DSCMET_421 2018-09-30 10:05:00 6603 287.600 0.0000 0.0000 5.0000 478.000 0.0000 0.0000 5.0000 274.200 1.2500 3.7500 0.0000 14.170 93.800 13.186           14.310 13.880 95.300 93.000 16.162 15.160 1.002 421 696.6
DSCMET_421 2018-09-30 10:00:00 6602 288.800 0.0000 0.0000 5.0000 480.600 0.0000 0.0000 5.0000 273.800 3.7500 1.2500 0.0000 14.250 95.600 13.557           14.460 13.970 97.100 93.100 16.246 15.531 0.715 421 696.6
DSCMET_421 2018-09-30 09:55:00 6601 289.700 0.0000 0.0000 5.0000 482.900 0.0000 0.0000 5.0000 273.800 3.7500 1.2500 0.0000 14.480 95.800 13.818           14.580 14.330 97.000 94.500 16.489 15.797 0.693 421 696.6
DSCMET_421 2018-09-30 09:50:00 6600 290.800 0.0000 0.0000 5.0000 486.300 0.0000 0.0000 5.0000 276.200 0.0000 5.0000 0.0000 14.270 97.500 13.880           14.510 13.970 98.800 96.000 16.267 15.860 0.407 421 696.6
DSCMET_421 2018-09-30 09:45:00 6599 288.800 0.0000 0.0000 5.0000 487.700 0.0000 0.0000 5.0000 276.500 0.0000 5.0000 0.0000 13.970 96.300 13.390           14.150 13.740 97.000 95.800 15.954 15.363 0.590 421 696.6
DSCMET_421 2018-09-30 09:40:00 6598 287.600 0.0000 0.0000 5.0000 488.900 0.0000 0.0000 5.0000 274.200 0.0000 5.0000 0.0000 13.850 97.200 13.414           13.970 13.670 97.700 96.700 15.830 15.386 0.443 421 696.6
DSCMET_421 2018-09-30 09:35:00 6597 288.300 0.0000 0.0000 5.0000 491.600 0.0000 0.0000 5.0000 274.200 0.0000 5.0000 0.0000 13.960 97.500 13.571           14.150 13.770 97.900 96.800 15.943 15.545 0.399 421 696.6
DSCMET_421 2018-09-30 09:30:00 6596 288.900 0.0000 0.0000 5.0000 493.500 0.0000 0.0000 5.0000 274.800 0.0000 5.0000 0.0000 14.150 97.200 13.713           14.270 14.000 98.000 96.600 16.141 15.689 0.452 421 696.6
DSCMET_421 2018-09-30 09:25:00 6595 289.800 0.0000 0.0000 5.0000 495.900 0.0000 0.0000 5.0000 275.500 0.0000 5.0000 0.0000 14.090 97.900 13.763           14.250 13.950 99.500 96.500 16.078 15.741 0.338 421 696.6
DSCMET_421 2018-09-30 09:20:00 6594 290.500 0.0000 0.0000 5.0000 498.200 0.0000 0.0000 5.0000 275.900 0.0000 5.0000 0.0000 13.960 98.600 13.743           14.170 13.690 99.200 96.600 15.943 15.720 0.223 421 696.6
DSCMET_421 2018-09-30 09:15:00 6593 291.000 0.0000 0.0000 5.0000 500.900 0.0000 0.0000 5.0000 276.500 0.0000 5.0000 0.0000 13.820 99.600 13.758           14.000 13.670 99.800 99.300 15.799 15.736 0.063 421 696.6
DSCMET_421 2018-09-30 09:10:00 6592 292.100 0.0000 0.0000 5.0000 503.200 0.0000 0.0000 5.0000 276.200 0.0000 5.0000 0.0000 13.830 99.600 13.768           13.990 13.660 100.000 98.600 15.809 15.746 0.063 421 696.6
DSCMET_421 2018-09-30 09:05:00 6591 292.700 0.0000 0.0000 5.0000 505.200 0.0000 0.0000 5.0000 276.400 0.0000 5.0000 0.0000 13.710 100.000 13.710           13.840 13.460 100.000 100.000 15.686 15.686 0.000 421 696.6
DSCMET_421 2018-09-30 09:00:00 6590 293.200 0.0000 0.0000 5.0000 507.100 0.0000 0.0000 5.0000 276.500 0.0000 5.0000 0.0000 13.660 100.000 13.660           13.780 13.440 100.000 100.000 15.635 15.635 0.000 421 696.6
DSCMET_421 2018-09-30 08:55:00 6589 293.900 0.0000 0.0000 5.0000 509.500 0.0000 0.0000 5.0000 276.700 0.0000 5.0000 0.0000 13.420 100.000 13.420           13.530 13.200 100.000 100.000 15.393 15.393 0.000 421 696.6
DSCMET_421 2018-09-30 08:50:00 6588 294.400 0.0000 0.0000 5.0000 511.900 0.0000 0.0000 5.0000 277.000 0.0000 5.0000 0.0000 13.520 100.000 13.520           13.630 13.410 100.000 100.000 15.494 15.494 0.000 421 696.6
DSCMET_421 2018-09-30 08:45:00 6587 295.200 0.0000 0.0000 5.0000 514.100 0.0000 0.0000 5.0000 277.500 0.0000 5.0000 0.0000 13.510 100.000 13.510           13.660 13.310 100.000 100.000 15.483 15.483 0.000 421 696.6
DSCMET_421 2018-09-30 08:40:00 6586 296.300 0.0000 0.0000 5.0000 516.900 0.0000 0.0000 5.0000 277.800 0.0000 5.0000 0.0000 13.430 100.000 13.430           13.580 13.250 100.000 100.000 15.403 15.403 0.000 421 696.6
DSCMET_421 2018-09-30 08:35:00 6585 297.300 0.0000 0.0000 5.0000 518.900 0.0000 0.0000 5.0000 278.200 0.0000 5.0000 0.0000 13.470 100.000 13.470           13.650 13.180 100.000 100.000 15.443 15.443 0.000 421 696.6
DSCMET_421 2018-09-30 08:30:00 6584 299.000 0.0000 0.0000 5.0000 521.300 0.0000 0.0000 5.0000 279.300 0.0000 5.0000 0.0000 13.270 100.000 13.270           13.400 13.020 100.000 99.900 15.243 15.243 0.000 421 696.6
DSCMET_421 2018-09-30 08:25:00 6583 300.300 0.0000 0.0000 5.0000 524.200 0.0000 0.0000 5.0000 281.900 0.0000 4.5000 0.5000 12.900 99.800 12.869           13.250 12.640 100.000 99.400 14.879 14.849 0.030 421 696.6
DSCMET_421 2018-09-30 08:20:00 6582 320.000 0.0000 0.0000 5.0000 527.100 0.0000 0.0000 5.0000 291.500 0.0000 0.0000 5.0000 12.770 100.000 12.770           12.940 12.640 100.000 100.000 14.753 14.753 -0.000 421 696.6
DSCMET_421 2018-09-30 08:15:00 6581 326.500 0.0000 0.0000 5.0000 530.100 0.0000 0.0000 5.0000 299.700 0.0000 0.0000 5.0000 12.860 100.000 12.860           13.080 12.550 100.000 100.000 14.840 14.840 0.000 421 696.6
DSCMET_421 2018-09-30 08:10:00 6580 328.800 0.0000 0.0000 5.0000 532.400 0.0000 0.0000 5.0000 304.700 0.0000 0.0000 5.0000 12.610 100.000 12.610           12.870 12.200 100.000 100.000 14.599 14.599 0.000 421 696.6
DSCMET_421 2018-09-30 08:05:00 6579 327.800 0.0000 0.0000 5.0000 534.700 0.0000 0.0000 5.0000 307.400 0.0000 0.0000 5.0000 12.320 100.000 12.320           12.540 11.990 100.000 99.900 14.323 14.323 -0.000 421 696.6
DSCMET_421 2018-09-30 08:00:00 6578 328.200 0.0000 0.0000 5.0000 536.700 0.0000 0.0000 5.0000 312.600 0.0000 0.0000 5.0000 12.230 100.000 12.230           12.310 12.160 100.000 100.000 14.239 14.239 0.000 421 696.6
DSCMET_421 2018-09-30 07:55:00 6577 328.700 0.0000 0.0000 5.0000 538.900 0.0000 0.0000 5.0000 317.700 0.0000 0.0000 5.0000 12.230 100.000 12.230           12.320 11.990 100.000 100.000 14.239 14.239 0.000 421 696.6
DSCMET_421 2018-09-30 07:50:00 6576 329.200 0.0000 0.0000 5.0000 540.500 0.0000 0.0000 5.0000 321.800 0.0000 0.0000 5.0000 12.170 100.000 12.170           12.290 11.780 100.000 100.000 14.182 14.182 0.000 421 696.6
DSCMET_421 2018-09-30 07:45:00 6575 329.900 0.0000 0.0000 5.0000 542.100 0.0000 0.0000 5.0000 324.300 0.0000 0.0000 5.0000 12.130 100.000 12.130           12.240 11.990 100.000 100.000 14.145 14.145 0.000 421 696.6
DSCMET_421 2018-09-30 07:40:00 6574 331.000 0.0000 0.0000 5.0000 544.900 0.0000 0.0000 5.0000 327.500 0.0000 0.0000 5.0000 12.010 100.000 12.010           12.110 11.890 100.000 100.000 14.034 14.034 0.000 421 696.6
DSCMET_421 2018-09-30 07:35:00 6573 331.800 0.0000 0.0000 5.0000 548.500 0.0000 0.0000 5.0000 336.100 0.0000 0.0000 5.0000 11.840 100.000 11.840           11.960 11.580 100.000 100.000 13.877 13.877 0.000 421 696.6
DSCMET_421 2018-09-30 07:30:00 6572 333.200 0.0000 0.0000 5.0000 550.500 0.0000 0.0000 5.0000 348.800 0.0000 0.0000 5.0000 11.870 100.000 11.870           12.030 11.690 100.000 99.800 13.905 13.905 -0.000 421 696.6
DSCMET_421 2018-09-30 07:25:00 6571 334.100 0.0000 0.0000 5.0000 552.900 0.0000 0.0000 5.0000 338.300 0.0000 0.0000 5.0000 11.860 100.000 11.860           11.960 11.730 100.000 100.000 13.896 13.896 0.000 421 696.6
DSCMET_421 2018-09-30 07:20:00 6570 335.000 0.0000 0.0000 5.0000 555.600 0.0000 0.0000 5.0000 343.500 0.0000 0.0000 5.0000 11.780 100.000 11.780           11.910 11.690 100.000 100.000 13.822 13.822 0.000 421 696.6
DSCMET_421 2018-09-30 07:15:00 6569 336.700 0.0000 0.0000 5.0000 558.300 0.0000 0.0000 5.0000 348.400 0.0000 0.0000 5.0000 11.740 100.000 11.740           11.840 11.640 100.000 100.000 13.786 13.786 0.000 421 696.6
DSCMET_421 2018-09-30 07:10:00 6568 337.600 0.0000 0.0000 5.0000 559.500 0.0000 0.0000 5.0000 353.600 0.0000 0.0000 5.0000 11.620 100.000 11.620           11.740 11.460 100.000 100.000 13.677 13.677 0.000 421 696.6
DSCMET_421 2018-09-30 07:05:00 6567 338.000 0.0000 0.0000 5.0000 564.500 0.0000 0.0000 5.0000 353.600 0.0000 0.0000 5.0000 11.630 100.000 11.630           11.740 11.490 100.000 100.000 13.686 13.686 0.000 421 696.6
DSCMET_421 2018-09-30 07:00:00 6566 339.200 0.0000 0.0000 5.0000 564.600 0.0000 0.0000 5.0000 353.600 0.0000 0.0000 5.0000 11.550 100.000 11.550           11.660 11.280 100.000 99.800 13.614 13.614 0.000 421 696.6
DSCMET_421 2018-09-30 06:55:00 6565 340.700 0.0000 0.0000 5.0000 556.000 0.0000 0.0000 5.0000 362.500 0.0000 0.0000 5.0000 11.540 100.000 11.540           11.590 11.460 100.000 100.000 13.605 13.605 0.000 421 696.6
DSCMET_421 2018-09-30 06:50:00 6564 338.800 0.0000 0.0000 5.0000 557.600 0.0000 0.0000 5.0000 378.700 0.0000 0.0000 5.0000 11.480 100.000 11.480           11.580 11.330 100.000 100.000 13.551 13.551 0.000 421 696.6
DSCMET_421 2018-09-30 06:45:00 6563 334.100 0.0000 0.0000 5.0000 558.100 0.0000 0.0000 5.0000 398.600 0.0000 0.0000 5.0000 11.420 100.000 11.420           11.530 11.210 100.000 100.000 13.497 13.497 0.000 421 696.6
DSCMET_421 2018-09-30 06:40:00 6562 336.200 0.0000 0.0000 5.0000 560.000 0.0000 0.0000 5.0000 399.100 0.0000 0.0000 5.0000 11.430 100.000 11.430           11.530 11.210 100.000 100.000 13.506 13.506 0.000 421 696.6
DSCMET_421 2018-09-30 06:35:00 6561 341.500 0.0000 0.0000 5.0000 565.200 0.0000 0.0000 5.0000 420.400 0.0000 0.0000 5.0000 11.430 100.000 11.430           11.510 11.330 100.000 100.000 13.506 13.506 0.000 421 696.6
DSCMET_421 2018-09-30 06:30:00 6560 337.900 0.0000 0.0000 5.0000 561.900 0.0000 0.0000 5.0000 430.500 0.0000 0.0000 5.0000 11.400 100.000 11.400           11.510 11.230 100.000 100.000 13.479 13.479 -0.000 421 696.6
DSCMET_421 2018-09-30 06:25:00 6559 328.300 0.0000 0.0000 5.0000 559.800 0.0000 0.0000 5.0000 455.200 0.0000 0.0000 5.0000 11.450 100.000 11.450           11.560 11.330 100.000 99.900 13.524 13.524 0.000 421 696.6
DSCMET_421 2018-09-30 06:20:00 6558 324.300 0.0000 0.0000 5.0000 554.100 0.0000 0.0000 5.0000 410.000 0.0000 0.0000 5.0000 11.500 100.000 11.500           11.590 11.390 100.000 100.000 13.569 13.569 0.000 421 696.6
DSCMET_421 2018-09-30 06:15:00 6557 322.900 0.0000 0.0000 5.0000 543.700 0.0000 0.0000 5.0000 387.300 0.0000 0.0000 5.0000 11.410 100.000 11.410           11.540 11.150 100.000 100.000 13.488 13.488 0.000 421 696.6
DSCMET_421 2018-09-30 06:10:00 6556 324.600 0.0000 0.0000 5.0000 542.900 0.0000 0.0000 5.0000 384.400 0.0000 0.0000 5.0000 11.480 100.000 11.480           11.580 11.380 100.000 99.900 13.551 13.551 0.000 421 696.6
DSCMET_421 2018-09-30 06:05:00 6555 324.100 0.0000 0.0000 5.0000 543.600 0.0000 0.0000 5.0000 391.700 0.0000 0.0000 5.0000 11.430 100.000 11.430           11.510 11.160 100.000 99.900 13.506 13.506 0.000 421 696.6
DSCMET_421 2018-09-30 06:00:00 6554 323.400 0.0000 0.0000 5.0000 540.900 0.0000 0.0000 5.0000 401.200 0.0000 0.0000 5.0000 11.440 100.000 11.440           11.560 11.230 100.000 99.800 13.515 13.515 0.000 421 696.6
DSCMET_421 2018-09-30 05:55:00 6553 342.600 0.0000 0.0000 5.0000 544.000 0.0000 0.0000 5.0000 402.400 0.0000 0.0000 5.0000 11.460 100.000 11.460           11.590 11.210 100.000 99.900 13.533 13.533 0.000 421 696.6
DSCMET_421 2018-09-30 05:50:00 6552 344.000 0.0000 0.0000 5.0000 576.900 0.0000 0.0000 5.0000 378.300 0.0000 0.0000 5.0000 11.500 100.000 11.500           11.630 11.330 100.000 99.800 13.569 13.569 0.000 421 696.6
DSCMET_421 2018-09-30 05:45:00 6551 343.500 0.0000 0.0000 5.0000 576.200 0.0000 0.0000 5.0000 383.700 0.0000 0.0000 5.0000 11.460 100.000 11.460           11.610 11.290 100.000 99.900 13.533 13.533 0.000 421 696.6
DSCMET_421 2018-09-30 05:40:00 6550 345.400 0.0000 0.0000 5.0000 575.500 0.0000 0.0000 5.0000 407.300 0.0000 0.0000 5.0000 11.480 100.000 11.480           11.560 11.380 100.000 100.000 13.551 13.551 0.000 421 696.6
DSCMET_421 2018-09-30 05:35:00 6549 349.200 0.0000 0.0000 5.0000 585.100 0.0000 0.0000 5.0000 421.000 0.0000 0.0000 5.0000 11.500 100.000 11.500           11.610 11.390 100.000 100.000 13.569 13.569 0.000 421 696.6
DSCMET_421 2018-09-30 05:30:00 6548 350.800 0.0000 0.0000 5.0000 585.500 0.0000 0.0000 5.0000 439.100 0.0000 0.0000 5.0000 11.580 100.000 11.580           11.660 11.510 100.000 100.000 13.641 13.641 0.000 421 696.6
DSCMET_421 2018-09-30 05:25:00 6547 353.700 0.0000 0.0000 5.0000 586.700 0.0000 0.0000 5.0000 495.300 0.0000 0.0000 5.0000 11.570 100.000 11.570           11.660 11.380 100.000 100.000 13.632 13.632 0.000 421 696.6
DSCMET_421 2018-09-30 05:20:00 6546 341.600 0.0000 0.0000 5.0000 579.400 0.0000 0.0000 5.0000 403.800 0.0000 0.0000 5.0000 11.640 100.000 11.640           11.730 11.430 100.000 100.000 13.695 13.695 0.000 421 696.6
DSCMET_421 2018-09-30 05:15:00 6545 332.200 0.0000 0.0000 5.0000 568.400 0.0000 0.0000 5.0000 371.000 0.0000 0.0000 5.0000 11.610 100.000 11.610           11.740 11.390 100.000 99.900 13.668 13.668 0.000 421 696.6
DSCMET_421 2018-09-30 05:10:00 6544 333.900 0.0000 0.0000 5.0000 568.900 0.0000 0.0000 5.0000 390.900 0.0000 0.0000 5.0000 11.580 100.000 11.580           11.680 11.410 100.000 100.000 13.641 13.641 0.000 421 696.6
DSCMET_421 2018-09-30 05:05:00 6543 333.700 0.0000 0.0000 5.0000 569.400 0.0000 0.0000 5.0000 378.300 0.0000 0.0000 5.0000 11.570 100.000 11.570           11.680 11.330 100.000 100.000 13.632 13.632 0.000 421 696.6
DSCMET_421 2018-09-30 05:00:00 6542 333.800 0.0000 0.0000 5.0000 571.400 0.0000 0.0000 5.0000 388.900 0.0000 0.0000 5.0000 11.570 100.000 11.570           11.690 11.490 100.000 100.000 13.632 13.632 0.000 421 696.6
DSCMET_421 2018-09-30 04:55:00 6541 334.400 0.0000 0.0000 5.0000 570.700 0.0000 0.0000 5.0000 401.900 0.0000 0.0000 5.0000 11.690 100.000 11.690           11.760 11.590 100.000 100.000 13.740 13.740 0.000 421 696.6
DSCMET_421 2018-09-30 04:50:00 6540 334.200 0.0000 0.0000 5.0000 570.000 0.0000 0.0000 5.0000 428.100 0.0000 0.0000 5.0000 11.580 100.000 11.580           11.710 11.390 100.000 100.000 13.641 13.641 0.000 421 696.6
DSCMET_421 2018-09-30 04:45:00 6539 330.300 0.0000 0.0000 5.0000 566.200 0.0000 0.0000 5.0000 429.700 0.0000 0.0000 5.0000 11.570 100.000 11.570           11.690 11.360 100.000 99.800 13.632 13.632 0.000 421 696.6
DSCMET_421 2018-09-30 04:40:00 6538 325.400 0.0000 0.0000 5.0000 563.300 0.0000 0.0000 5.0000 392.800 0.0000 0.0000 5.0000 11.560 100.000 11.560           11.630 11.430 100.000 100.000 13.623 13.623 0.000 421 696.6
DSCMET_421 2018-09-30 04:35:00 6537 324.800 0.0000 0.0000 5.0000 563.200 0.0000 0.0000 5.0000 377.400 0.0000 0.0000 5.0000 11.570 100.000 11.570           11.680 11.480 100.000 100.000 13.632 13.632 0.000 421 696.6
DSCMET_421 2018-09-30 04:30:00 6536 326.600 0.0000 0.0000 5.0000 563.600 0.0000 0.0000 5.0000 372.900 0.0000 0.0000 5.0000 11.580 100.000 11.580           11.680 11.490 100.000 100.000 13.641 13.641 0.000 421 696.6
DSCMET_421 2018-09-30 04:25:00 6535 325.700 0.0000 0.0000 5.0000 564.400 0.0000 0.0000 5.0000 380.600 0.0000 0.0000 5.0000 11.490 100.000 11.490           11.560 11.330 100.000 100.000 13.560 13.560 0.000 421 696.6
DSCMET_421 2018-09-30 04:20:00 6534 326.900 0.0000 0.0000 5.0000 565.400 0.0000 0.0000 5.0000 379.400 0.0000 0.0000 5.0000 11.540 100.000 11.540           11.630 11.330 100.000 100.000 13.605 13.605 0.000 421 696.6
DSCMET_421 2018-09-30 04:15:00 6533 328.200 0.0000 0.0000 5.0000 566.900 0.0000 0.0000 5.0000 392.700 0.0000 0.0000 5.0000 11.580 100.000 11.580           11.660 11.530 100.000 100.000 13.641 13.641 0.000 421 696.6
DSCMET_421 2018-09-30 04:10:00 6532 324.700 0.0000 0.0000 5.0000 562.600 0.0000 0.0000 5.0000 393.200 0.0000 0.0000 5.0000 11.580 100.000 11.580           11.680 11.480 100.000 100.000 13.641 13.641 0.000 421 696.6
DSCMET_421 2018-09-30 04:05:00 6531 325.100 0.0000 0.0000 5.0000 563.500 0.0000 0.0000 5.0000 390.500 0.0000 0.0000 5.0000 11.550 100.000 11.550           11.660 11.280 100.000 100.000 13.614 13.614 0.000 421 696.6
DSCMET_421 2018-09-30 04:00:00 6530 334.100 0.0000 0.0000 5.0000 561.800 0.0000 0.0000 5.0000 400.500 0.0000 0.0000 5.0000 11.550 100.000 11.550           11.710 11.260 100.000 100.000 13.614 13.614 0.000 421 696.6
DSCMET_421 2018-09-30 03:55:00 6529 343.700 0.0000 0.0000 5.0000 559.200 0.0000 0.0000 5.0000 409.500 0.0000 0.0000 5.0000 11.600 100.000 11.600           11.690 11.430 100.000 99.900 13.659 13.659 -0.000 421 696.6
DSCMET_421 2018-09-30 03:50:00 6528 343.100 0.0000 0.0000 5.0000 562.100 0.0000 0.0000 5.0000 412.300 0.0000 0.0000 5.0000 11.620 100.000 11.620           11.730 11.530 100.000 100.000 13.677 13.677 0.000 421 696.6
DSCMET_421 2018-09-30 03:45:00 6527 347.800 0.0000 0.0000 5.0000 572.300 0.0000 0.0000 5.0000 417.900 0.0000 0.0000 5.0000 11.630 100.000 11.630           11.690 11.560 100.000 100.000 13.686 13.686 0.000 421 696.6
DSCMET_421 2018-09-30 03:40:00 6526 344.700 0.0000 0.0000 5.0000 571.500 0.0000 0.0000 5.0000 399.200 0.0000 0.0000 5.0000 11.640 100.000 11.640           11.760 11.460 100.000 99.900 13.695 13.695 0.000 421 696.6
DSCMET_421 2018-09-30 03:35:00 6525 340.700 0.0000 0.0000 5.0000 567.000 0.0000 0.0000 5.0000 398.400 0.0000 0.0000 5.0000 11.690 100.000 11.690           11.790 11.430 100.000 100.000 13.740 13.740 0.000 421 696.6
DSCMET_421 2018-09-30 03:30:00 6524 339.900 0.0000 0.0000 5.0000 567.300 0.0000 0.0000 5.0000 406.800 0.0000 0.0000 5.0000 11.630 100.000 11.630           11.780 11.480 100.000 99.900 13.686 13.686 0.000 421 696.6
DSCMET_421 2018-09-30 03:25:00 6523 340.700 0.0000 0.0000 5.0000 566.900 0.0000 0.0000 5.0000 420.500 0.0000 0.0000 5.0000 11.690 100.000 11.690           11.770 11.630 100.000 100.000 13.740 13.740 0.000 421 696.6
DSCMET_421 2018-09-30 03:20:00 6522 341.100 0.0000 0.0000 5.0000 556.900 0.0000 0.0000 5.0000 418.600 0.0000 0.0000 5.0000 11.720 100.000 11.720           11.810 11.610 100.000 100.000 13.768 13.768 0.000 421 696.6
DSCMET_421 2018-09-30 03:15:00 6521 341.600 0.0000 0.0000 5.0000 556.700 0.0000 0.0000 5.0000 401.100 0.0000 0.0000 5.0000 11.760 100.000 11.760           11.870 11.560 100.000 100.000 13.804 13.804 0.000 421 696.6
DSCMET_421 2018-09-30 03:10:00 6520 345.900 0.0000 0.0000 5.0000 555.400 0.0000 0.0000 5.0000 431.800 0.0000 0.0000 5.0000 11.740 100.000 11.740           11.860 11.540 100.000 100.000 13.786 13.786 0.000 421 696.6
DSCMET_421 2018-09-30 03:05:00 6519 343.500 0.0000 0.0000 5.0000 557.300 0.0000 0.0000 5.0000 433.500 0.0000 0.0000 5.0000 11.740 100.000 11.740           11.820 11.610 100.000 100.000 13.786 13.786 0.000 421 696.6
DSCMET_421 2018-09-30 03:00:00 6518 345.900 0.0000 0.0000 5.0000 561.600 0.0000 0.0000 5.0000 437.900 0.0000 0.0000 5.0000 11.740 100.000 11.740           11.870 11.590 100.000 100.000 13.786 13.786 0.000 421 696.6
DSCMET_421 2018-09-30 02:55:00 6517 347.100 0.0000 0.0000 5.0000 564.000 0.0000 0.0000 5.0000 463.900 0.0000 0.0000 5.0000 11.820 100.000 11.820           11.940 11.490 100.000 99.900 13.859 13.859 -0.000 421 696.6
DSCMET_421 2018-09-30 02:50:00 6516 348.500 0.0000 0.0000 5.0000 560.100 0.0000 0.0000 5.0000 477.600 0.0000 0.0000 5.0000 11.860 100.000 11.860           11.940 11.780 100.000 100.000 13.896 13.896 0.000 421 696.6
DSCMET_421 2018-09-30 02:45:00 6515 346.100 0.0000 0.0000 5.0000 546.300 0.0000 0.0000 5.0000 499.100 0.0000 0.0000 5.0000 11.900 100.000 11.900           11.970 11.820 100.000 100.000 13.932 13.932 -0.000 421 696.6
DSCMET_421 2018-09-30 02:40:00 6514 339.400 0.0000 0.0000 5.0000 534.600 0.0000 0.0000 5.0000 456.700 0.0000 0.0000 5.0000 11.820 100.000 11.820           11.960 11.630 100.000 99.900 13.859 13.859 -0.000 421 696.6
DSCMET_421 2018-09-30 02:35:00 6513 339.200 0.0000 0.0000 5.0000 527.800 0.0000 0.0000 5.0000 459.500 0.0000 0.0000 5.0000 11.820 100.000 11.820           11.940 11.590 100.000 100.000 13.859 13.859 -0.000 421 696.6
DSCMET_421 2018-09-30 02:30:00 6512 336.900 0.0000 0.0000 5.0000 524.300 0.0000 0.0000 5.0000 437.300 0.0000 0.0000 5.0000 11.870 100.000 11.870           11.990 11.660 100.000 100.000 13.905 13.905 -0.000 421 696.6
DSCMET_421 2018-09-30 02:25:00 6511 333.400 0.0000 0.0000 5.0000 520.700 0.0000 0.0000 5.0000 441.400 0.0000 0.0000 5.0000 11.820 100.000 11.820           11.940 11.640 100.000 100.000 13.859 13.859 -0.000 421 696.6
DSCMET_421 2018-09-30 02:20:00 6510 334.200 0.0000 0.0000 5.0000 518.800 0.0000 0.0000 5.0000 408.800 0.0000 0.0000 5.0000 11.820 100.000 11.820           11.910 11.640 100.000 100.000 13.859 13.859 -0.000 421 696.6
DSCMET_421 2018-09-30 02:15:00 6509 341.400 0.0000 0.0000 5.0000 518.100 0.0000 0.0000 5.0000 400.800 0.0000 0.0000 5.0000 11.860 100.000 11.860           11.970 11.780 100.000 100.000 13.896 13.896 0.000 421 696.6
DSCMET_421 2018-09-30 02:10:00 6508 346.700 0.0000 0.0000 5.0000 518.400 0.0000 0.0000 5.0000 393.300 0.0000 0.0000 5.0000 11.920 100.000 11.920           12.070 11.690 100.000 100.000 13.951 13.951 0.000 421 696.6
DSCMET_421 2018-09-30 02:05:00 6507 346.100 0.0000 0.0000 5.0000 519.300 0.0000 0.0000 5.0000 408.800 0.0000 0.0000 5.0000 11.830 100.000 11.830           11.940 11.610 100.000 99.900 13.868 13.868 0.000 421 696.6
DSCMET_421 2018-09-30 02:00:00 6506 346.600 0.0000 0.0000 5.0000 519.100 0.0000 0.0000 5.0000 407.300 0.0000 0.0000 5.0000 11.800 100.000 11.800           11.890 11.710 100.000 100.000 13.841 13.841 0.000 421 696.6
DSCMET_421 2018-09-30 01:55:00 6505 347.100 0.0000 0.0000 5.0000 519.900 0.0000 0.0000 5.0000 423.000 0.0000 0.0000 5.0000 11.790 100.000 11.790           11.870 11.640 100.000 100.000 13.831 13.831 0.000 421 696.6
DSCMET_421 2018-09-30 01:50:00 6504 349.700 0.0000 0.0000 5.0000 521.500 0.0000 0.0000 5.0000 439.300 0.0000 0.0000 5.0000 11.820 100.000 11.820           11.890 11.620 100.000 100.000 13.859 13.859 -0.000 421 696.6
DSCMET_421 2018-09-30 01:45:00 6503 351.100 0.0000 0.0000 5.0000 526.000 0.0000 0.0000 5.0000 445.300 0.0000 0.0000 5.0000 11.830 100.000 11.830           11.960 11.610 100.000 99.900 13.868 13.868 0.000 421 696.6
DSCMET_421 2018-09-30 01:40:00 6502 352.000 0.0000 0.0000 5.0000 514.500 0.0000 0.0000 5.0000 424.500 0.0000 0.0000 5.0000 11.820 100.000 11.820           11.910 11.760 100.000 100.000 13.859 13.859 -0.000 421 696.6
DSCMET_421 2018-09-30 01:35:00 6501 348.500 0.0000 0.0000 5.0000 514.300 0.0000 0.0000 5.0000 433.700 0.0000 0.0000 5.0000 11.860 100.000 11.860           11.920 11.790 100.000 100.000 13.896 13.896 0.000 421 696.6
DSCMET_421 2018-09-30 01:30:00 6500 348.800 0.0000 0.0000 5.0000 517.000 0.0000 0.0000 5.0000 418.900 0.0000 0.0000 5.0000 11.880 100.000 11.880           11.990 11.710 100.000 99.900 13.914 13.914 0.000 421 696.6
DSCMET_421 2018-09-30 01:25:00 6499 350.200 0.0000 0.0000 5.0000 517.700 0.0000 0.0000 5.0000 422.300 0.0000 0.0000 5.0000 11.900 100.000 11.900           12.020 11.740 100.000 99.900 13.932 13.932 -0.000 421 696.6
DSCMET_421 2018-09-30 01:20:00 6498 358.900 0.0000 0.0000 5.0000 517.500 0.0000 0.0000 5.0000 444.000 0.0000 0.0000 5.0000 11.850 100.000 11.850           11.970 11.560 100.000 100.000 13.886 13.886 0.000 421 696.6
DSCMET_421 2018-09-30 01:15:00 6497 372.600 0.0000 0.0000 5.0000 526.000 0.0000 0.0000 5.0000 438.100 0.0000 0.0000 5.0000 11.880 100.000 11.880           11.960 11.740 100.000 100.000 13.914 13.914 0.000 421 696.6
DSCMET_421 2018-09-30 01:10:00 6496 386.300 0.0000 0.0000 5.0000 526.400 0.0000 0.0000 5.0000 462.200 0.0000 0.0000 5.0000 11.830 100.000 11.830           11.940 11.620 100.000 100.000 13.868 13.868 0.000 421 696.6
DSCMET_421 2018-09-30 01:05:00 6495 391.500 0.0000 0.0000 5.0000 527.600 0.0000 0.0000 5.0000 508.500 0.0000 0.0000 5.0000 11.950 100.000 11.950           12.020 11.860 100.000 100.000 13.978 13.978 0.000 421 696.6
DSCMET_421 2018-09-30 01:00:00 6494 399.100 0.0000 0.0000 5.0000 528.700 0.0000 0.0000 5.0000 473.700 0.0000 0.0000 5.0000 11.970 100.000 11.970           12.070 11.770 100.000 99.900 13.997 13.997 0.000 421 696.6
DSCMET_421 2018-09-30 00:55:00 6493 389.000 0.0000 0.0000 5.0000 515.200 0.0000 0.0000 5.0000 437.100 0.0000 0.0000 5.0000 11.900 100.000 11.900           12.090 11.670 100.000 99.900 13.932 13.932 -0.000 421 696.6
DSCMET_421 2018-09-30 00:50:00 6492 370.100 0.0000 0.0000 5.0000 508.600 0.0000 0.0000 5.0000 436.500 0.0000 0.0000 5.0000 11.860 100.000 11.860           11.990 11.570 100.000 100.000 13.896 13.896 0.000 421 696.6
DSCMET_421 2018-09-30 00:45:00 6491 360.800 0.0000 0.0000 5.0000 515.000 0.0000 0.0000 5.0000 453.800 0.0000 0.0000 5.0000 11.810 100.000 11.810           11.940 11.620 100.000 100.000 13.850 13.850 0.000 421 696.6
DSCMET_421 2018-09-30 00:40:00 6490 358.900 0.0000 0.0000 5.0000 520.600 0.0000 0.0000 5.0000 503.600 0.0000 0.0000 5.0000 11.780 100.000 11.780           11.890 11.620 100.000 99.900 13.822 13.822 0.000 421 696.6
DSCMET_421 2018-09-30 00:35:00 6489 352.500 0.0000 0.0000 5.0000 502.600 0.0000 0.0000 5.0000 504.100 0.0000 0.0000 5.0000 11.790 100.000 11.790           11.870 11.560 100.000 100.000 13.831 13.831 0.000 421 696.6
DSCMET_421 2018-09-30 00:30:00 6488 342.000 0.0000 0.0000 5.0000 483.600 0.0000 0.0000 5.0000 541.300 0.0000 0.0000 5.0000 11.820 100.000 11.820           11.910 11.640 100.000 100.000 13.859 13.859 -0.000 421 696.6
DSCMET_421 2018-09-30 00:25:00 6487 324.100 0.0000 0.0000 5.0000 460.600 0.0000 0.0000 5.0000 560.700 0.0000 0.0000 5.0000 11.840 100.000 11.840           11.940 11.660 100.000 100.000 13.877 13.877 0.000 421 696.6
DSCMET_421 2018-09-30 00:20:00 6486 302.400 0.0000 0.0000 5.0000 443.700 0.0000 0.0000 5.0000 502.700 0.0000 0.0000 5.0000 11.850 100.000 11.850           11.960 11.720 100.000 100.000 13.886 13.886 0.000 421 696.6
DSCMET_421 2018-09-30 00:15:00 6485 295.800 0.0000 0.0000 5.0000 437.100 0.0000 0.0000 5.0000 506.900 0.0000 0.0000 5.0000 11.820 100.000 11.820           11.910 11.640 100.000 99.900 13.859 13.859 -0.000 421 696.6
DSCMET_421 2018-09-30 00:10:00 6484 286.400 0.0000 1.0000 4.0000 422.300 0.0000 0.0000 5.0000 514.700 0.0000 0.0000 5.0000 11.860 100.000 11.860           11.960 11.670 100.000 100.000 13.896 13.896 0.000 421 696.6
DSCMET_421 2018-09-30 00:05:00 6483 278.600 0.0000 5.0000 0.0000 402.400 0.0000 0.0000 5.0000 512.500 0.0000 0.0000 5.0000 11.850 100.000 11.850           11.940 11.690 100.000 100.000 13.886 13.886 0.000 421 696.6
DSCMET_421 2018-09-30 00:00:00 6482 271.800 4.7500 0.2500 0.0000 389.100 0.0000 0.0000 5.0000 470.100 0.0000 0.0000 5.0000 11.830 100.000 11.830           11.940 11.610 100.000 99.900 13.868 13.868 0.000 421 696.6
DSCMET_421 2018-09-29 23:55:00 6481 269.400 5.0000 0.0000 0.0000 385.800 0.0000 0.0000 5.0000 466.400 0.0000 0.0000 5.0000 11.880 100.000 11.880           11.960 11.810 100.000 100.000 13.914 13.914 0.000 421 696.6
DSCMET_421 2018-09-29 23:50:00 6480 269.200 5.0000 0.0000 0.0000 383.000 0.0000 0.0000 5.0000 470.000 0.0000 0.0000 5.0000 11.870 100.000 11.870           11.990 11.770 100.000 100.000 13.905 13.905 -0.000 421 696.6
DSCMET_421 2018-09-29 23:45:00 6479 269.300 5.0000 0.0000 0.0000 383.600 0.0000 0.0000 5.0000 455.200 0.0000 0.0000 5.0000 11.860 100.000 11.860           11.970 11.770 100.000 100.000 13.896 13.896 0.000 421 696.6
DSCMET_421 2018-09-29 23:40:00 6478 269.500 5.0000 0.0000 0.0000 384.600 0.0000 0.0000 5.0000 456.000 0.0000 0.0000 5.0000 11.880 99.900 11.865           12.000 11.740 100.000 99.600 13.914 13.900 0.014 421 696.6
DSCMET_421 2018-09-29 23:35:00 6477 267.300 5.0000 0.0000 0.0000 385.600 0.0000 0.0000 5.0000 478.700 0.0000 0.0000 5.0000 12.020 99.600 11.959           12.100 11.940 99.900 99.300 14.043 13.987 0.056 421 696.6
DSCMET_421 2018-09-29 23:30:00 6476 263.600 5.0000 0.0000 0.0000 386.000 0.0000 0.0000 5.0000 528.700 0.0000 0.0000 5.0000 12.060 98.900 11.892           12.190 11.920 99.400 98.500 14.080 13.925 0.155 421 696.6
DSCMET_421 2018-09-29 23:25:00 6475 263.600 5.0000 0.0000 0.0000 386.800 0.0000 0.0000 5.0000 553.700 0.0000 0.0000 5.0000 12.050 99.600 11.989           12.270 11.810 100.000 99.200 14.071 14.015 0.056 421 696.6
DSCMET_421 2018-09-29 23:20:00 6474 263.300 5.0000 0.0000 0.0000 387.300 0.0000 0.0000 5.0000 564.600 0.0000 0.0000 5.0000 11.980 99.700 11.934           12.120 11.790 99.900 99.500 14.006 13.964 0.042 421 696.6
DSCMET_421 2018-09-29 23:15:00 6473 256.300 5.0000 0.0000 0.0000 383.100 0.0000 0.0000 5.0000 584.500 0.0000 0.0000 5.0000 12.060 99.600 11.999           12.170 11.850 99.800 99.400 14.080 14.024 0.056 421 696.6
DSCMET_421 2018-09-29 23:10:00 6472 251.100 5.0000 0.0000 0.0000 366.400 0.0000 0.0000 5.0000 594.100 0.0000 0.0000 5.0000 12.010 99.600 11.949           12.170 11.770 99.700 99.400 14.034 13.978 0.056 421 696.6
DSCMET_421 2018-09-29 23:05:00 6471 231.300 5.0000 0.0000 0.0000 325.900 0.0000 0.0000 5.0000 555.700 0.0000 0.0000 5.0000 12.000 99.500 11.924           12.120 11.760 99.800 99.200 14.025 13.954 0.070 421 696.6
DSCMET_421 2018-09-29 23:00:00 6470 208.000 5.0000 0.0000 0.0000 298.100 0.0000 0.0000 5.0000 430.800 0.0000 0.0000 5.0000 12.080 99.000 11.928           12.200 11.890 99.200 98.800 14.099 13.958 0.141 421 696.6
DSCMET_421 2018-09-29 22:55:00 6469 196.900 5.0000 0.0000 0.0000 294.800 0.0000 0.0000 5.0000 397.700 0.0000 0.0000 5.0000 12.130 98.400 11.885           12.240 11.950 98.900 98.000 14.145 13.919 0.226 421 696.6
DSCMET_421 2018-09-29 22:50:00 6468 194.100 5.0000 0.0000 0.0000 292.700 0.0000 0.0000 5.0000 393.500 0.0000 0.0000 5.0000 12.210 97.500 11.826           12.350 11.990 97.900 97.100 14.220 13.864 0.355 421 696.6
DSCMET_421 2018-09-29 22:45:00 6467 194.300 5.0000 0.0000 0.0000 292.700 0.0000 0.0000 5.0000 394.000 0.0000 0.0000 5.0000 12.250 97.400 11.850           12.350 12.000 97.700 96.700 14.257 13.887 0.371 421 696.6
DSCMET_421 2018-09-29 22:40:00 6466 191.300 5.0000 0.0000 0.0000 287.600 0.0000 0.0000 5.0000 389.600 0.0000 0.0000 5.0000 12.190 97.400 11.790           12.270 12.050 97.600 97.200 14.201 13.832 0.369 421 696.6
DSCMET_421 2018-09-29 22:35:00 6465 189.900 5.0000 0.0000 0.0000 281.700 0.0000 3.5000 1.5000 389.000 0.0000 0.0000 5.0000 12.140 97.200 11.710           12.220 12.040 97.500 97.000 14.154 13.758 0.396 421 696.6
DSCMET_421 2018-09-29 22:30:00 6464 190.400 5.0000 0.0000 0.0000 280.900 0.0000 5.0000 0.0000 392.600 0.0000 0.0000 5.0000 12.180 96.700 11.671           12.320 12.030 97.300 96.400 14.192 13.723 0.468 421 696.6
DSCMET_421 2018-09-29 22:25:00 6463 191.000 5.0000 0.0000 0.0000 282.400 0.0000 5.0000 0.0000 397.600 0.0000 0.0000 5.0000 12.290 95.900 11.655           12.450 12.130 96.500 95.500 14.295 13.709 0.586 421 696.6
DSCMET_421 2018-09-29 22:20:00 6462 191.900 5.0000 0.0000 0.0000 283.600 0.0000 3.7500 1.2500 402.600 0.0000 0.0000 5.0000 12.190 96.700 11.681           12.320 12.080 97.100 95.900 14.201 13.733 0.469 421 696.6
DSCMET_421 2018-09-29 22:15:00 6461 192.600 5.0000 0.0000 0.0000 285.200 0.0000 0.0000 5.0000 405.700 0.0000 0.0000 5.0000 12.360 95.200 11.614           12.500 12.180 96.300 94.900 14.361 13.672 0.689 421 696.6
DSCMET_421 2018-09-29 22:10:00 6460 193.800 5.0000 0.0000 0.0000 286.800 0.0000 0.0000 5.0000 409.000 0.0000 0.0000 5.0000 12.300 95.900 11.665           12.470 12.030 96.600 95.200 14.304 13.718 0.586 421 696.6
DSCMET_421 2018-09-29 22:05:00 6459 194.900 5.0000 0.0000 0.0000 289.600 0.0000 0.0000 5.0000 413.800 0.0000 0.0000 5.0000 12.180 95.600 11.498           12.380 11.950 96.600 94.500 14.192 13.567 0.624 421 696.6
DSCMET_421 2018-09-29 22:00:00 6458 196.000 5.0000 0.0000 0.0000 292.100 0.0000 0.0000 5.0000 419.100 0.0000 0.0000 5.0000 12.240 95.000 11.463           12.370 12.130 95.300 94.600 14.248 13.536 0.712 421 696.6
DSCMET_421 2018-09-29 21:55:00 6457 197.600 5.0000 0.0000 0.0000 294.400 0.0000 0.0000 5.0000 423.900 0.0000 0.0000 5.0000 12.410 93.500 11.392           12.600 12.170 95.000 92.600 14.408 13.472 0.937 421 696.6
DSCMET_421 2018-09-29 21:50:00 6456 198.400 5.0000 0.0000 0.0000 296.800 0.0000 0.0000 5.0000 427.800 0.0000 0.0000 5.0000 12.360 93.700 11.374           12.510 12.180 94.200 93.400 14.361 13.456 0.905 421 696.6
DSCMET_421 2018-09-29 21:45:00 6455 199.000 5.0000 0.0000 0.0000 299.500 0.0000 0.0000 5.0000 431.000 0.0000 0.0000 5.0000 12.410 93.400 11.375           12.550 12.200 93.700 93.000 14.408 13.457 0.951 421 696.6
DSCMET_421 2018-09-29 21:40:00 6454 198.600 5.0000 0.0000 0.0000 300.700 0.0000 0.0000 5.0000 430.800 0.0000 0.0000 5.0000 12.450 92.700 11.302           12.550 12.250 93.500 91.800 14.446 13.392 1.055 421 696.6
DSCMET_421 2018-09-29 21:35:00 6453 199.200 5.0000 0.0000 0.0000 302.400 0.0000 0.0000 5.0000 430.200 0.0000 0.0000 5.0000 12.570 90.800 11.108           12.750 12.450 91.700 89.800 14.560 13.221 1.340 421 696.6
DSCMET_421 2018-09-29 21:30:00 6452 198.200 5.0000 0.0000 0.0000 301.500 0.0000 0.0000 5.0000 391.400 0.0000 0.0000 5.0000 12.960 87.900 11.004           13.260 12.630 90.000 85.900 14.937 13.130 1.807 421 696.6
DSCMET_421 2018-09-29 21:25:00 6451 189.100 5.0000 0.0000 0.0000 275.300 2.7500 1.5000 0.7500 307.400 0.0000 0.0000 5.0000 12.900 88.100 10.979           13.180 12.630 88.800 86.600 14.879 13.108 1.771 421 696.6
DSCMET_421 2018-09-29 21:20:00 6450 186.600 5.0000 0.0000 0.0000 264.800 5.0000 0.0000 0.0000 279.600 0.2500 4.0000 0.7500 12.840 87.800 10.869           12.990 12.590 88.100 87.500 14.820 13.012 1.808 421 696.6
DSCMET_421 2018-09-29 21:15:00 6449 186.300 5.0000 0.0000 0.0000 264.500 5.0000 0.0000 0.0000 275.800 1.0000 4.0000 0.0000 12.900 87.200 10.825           13.010 12.780 87.500 87.000 14.879 12.974 1.904 421 696.6
DSCMET_421 2018-09-29 21:10:00 6448 186.400 5.0000 0.0000 0.0000 264.600 5.0000 0.0000 0.0000 280.600 0.0000 5.0000 0.0000 12.860 86.900 10.734           13.010 12.640 87.300 86.200 14.840 12.896 1.944 421 696.6
DSCMET_421 2018-09-29 21:05:00 6447 186.300 5.0000 0.0000 0.0000 264.900 5.0000 0.0000 0.0000 278.100 0.0000 5.0000 0.0000 12.980 86.000 10.696           13.080 12.910 86.200 85.600 14.957 12.863 2.094 421 696.6
DSCMET_421 2018-09-29 21:00:00 6446 186.100 5.0000 0.0000 0.0000 265.000 5.0000 0.0000 0.0000 275.200 1.2500 3.7500 0.0000 13.030 85.400 10.640           13.140 12.810 85.800 85.000 15.006 12.815 2.191 421 696.6
DSCMET_421 2018-09-29 20:55:00 6445 185.800 5.0000 0.0000 0.0000 264.900 5.0000 0.0000 0.0000 268.400 5.0000 0.0000 0.0000 13.050 85.200 10.624           13.210 12.760 85.400 84.900 15.025 12.802 2.224 421 696.6
DSCMET_421 2018-09-29 20:50:00 6444 186.000 5.0000 0.0000 0.0000 264.500 5.0000 0.0000 0.0000 266.500 5.0000 0.0000 0.0000 13.150 84.700 10.634           13.270 13.040 85.200 84.100 15.124 12.810 2.314 421 696.6
DSCMET_421 2018-09-29 20:45:00 6443 186.100 5.0000 0.0000 0.0000 264.200 5.0000 0.0000 0.0000 264.700 5.0000 0.0000 0.0000 13.170 84.400 10.600           13.320 12.940 84.900 83.900 15.144 12.781 2.362 421 696.6
DSCMET_421 2018-09-29 20:40:00 6442 186.300 5.0000 0.0000 0.0000 264.200 5.0000 0.0000 0.0000 265.100 5.0000 0.0000 0.0000 13.260 83.800 10.581           13.410 13.010 84.200 83.300 15.233 12.765 2.468 421 696.6
DSCMET_421 2018-09-29 20:35:00 6441 184.500 5.0000 0.0000 0.0000 264.200 5.0000 0.0000 0.0000 264.200 5.0000 0.0000 0.0000 13.360 83.100 10.553           13.470 13.190 83.400 82.500 15.333 12.742 2.591 421 696.6
DSCMET_421 2018-09-29 20:30:00 6440 186.200 5.0000 0.0000 0.0000 264.200 5.0000 0.0000 0.0000 263.500 5.0000 0.0000 0.0000 13.330 83.100 10.524           13.460 13.040 83.500 82.800 15.303 12.717 2.586 421 696.6
DSCMET_421 2018-09-29 20:25:00 6439 186.200 5.0000 0.0000 0.0000 264.200 5.0000 0.0000 0.0000 263.500 5.0000 0.0000 0.0000 13.390 83.000 10.565           13.500 13.320 83.400 82.400 15.363 12.751 2.612 421 696.6
DSCMET_421 2018-09-29 20:20:00 6438 186.200 5.0000 0.0000 0.0000 264.500 5.0000 0.0000 0.0000 263.900 5.0000 0.0000 0.0000 13.360 83.300 10.589           13.590 13.020 84.500 81.500 15.333 12.772 2.561 421 696.6
DSCMET_421 2018-09-29 20:15:00 6437 186.200 5.0000 0.0000 0.0000 264.500 5.0000 0.0000 0.0000 265.000 5.0000 0.0000 0.0000 13.360 83.000 10.535           13.470 13.140 83.500 82.400 15.333 12.726 2.607 421 696.6
DSCMET_421 2018-09-29 20:10:00 6436 186.200 5.0000 0.0000 0.0000 264.700 5.0000 0.0000 0.0000 267.400 5.0000 0.0000 0.0000 13.500 82.300 10.545           13.740 13.350 83.100 81.100 15.473 12.735 2.739 421 696.6
DSCMET_421 2018-09-29 20:05:00 6435 186.600 5.0000 0.0000 0.0000 264.200 5.0000 0.0000 0.0000 268.900 5.0000 0.0000 0.0000 13.660 81.400 10.537           13.800 13.470 82.600 80.400 15.635 12.727 2.908 421 696.6
DSCMET_421 2018-09-29 20:00:00 6434 186.800 5.0000 0.0000 0.0000 264.800 5.0000 0.0000 0.0000 270.700 5.0000 0.0000 0.0000 13.530 82.400 10.593           13.830 13.300 83.500 80.500 15.504 12.775 2.729 421 696.6
DSCMET_421 2018-09-29 19:55:00 6433 187.300 5.0000 0.0000 0.0000 265.700 5.0000 0.0000 0.0000 273.000 3.7500 1.2500 0.0000 13.620 81.800 10.571           13.820 13.320 82.600 81.100 15.595 12.756 2.838 421 696.6
DSCMET_421 2018-09-29 19:50:00 6432 187.600 5.0000 0.0000 0.0000 266.700 5.0000 0.0000 0.0000 276.400 0.0000 5.0000 0.0000 13.700 81.500 10.594           13.800 13.550 82.000 81.100 15.676 12.776 2.900 421 696.6
DSCMET_421 2018-09-29 19:45:00 6431 187.300 5.0000 0.0000 0.0000 266.700 5.0000 0.0000 0.0000 271.500 2.5000 2.5000 0.0000 14.080 78.860 10.470           14.370 13.770 81.100 77.220 16.068 12.671 3.397 421 696.6
DSCMET_421 2018-09-29 19:40:00 6430 185.900 5.0000 0.0000 0.0000 264.000 5.0000 0.0000 0.0000 263.500 5.0000 0.0000 0.0000 14.030 79.230 10.492           14.300 13.780 80.800 77.720 16.016 12.689 3.326 421 696.6
DSCMET_421 2018-09-29 19:35:00 6429 185.800 5.0000 0.0000 0.0000 263.900 5.0000 0.0000 0.0000 263.200 5.0000 0.0000 0.0000 13.840 80.700 10.582           13.950 13.680 81.300 80.200 15.819 12.766 3.053 421 696.6
DSCMET_421 2018-09-29 19:30:00 6428 185.800 5.0000 0.0000 0.0000 263.900 5.0000 0.0000 0.0000 263.200 5.0000 0.0000 0.0000 13.740 81.600 10.651           13.880 13.440 82.000 80.800 15.717 12.825 2.892 421 696.6
DSCMET_421 2018-09-29 19:25:00 6427 185.800 5.0000 0.0000 0.0000 263.900 5.0000 0.0000 0.0000 263.200 5.0000 0.0000 0.0000 13.690 82.200 10.712           13.800 13.580 82.500 81.900 15.666 12.877 2.789 421 696.6
DSCMET_421 2018-09-29 19:20:00 6426 185.800 5.0000 0.0000 0.0000 263.900 5.0000 0.0000 0.0000 263.200 5.0000 0.0000 0.0000 13.730 81.700 10.660           13.850 13.470 82.400 81.300 15.707 12.832 2.874 421 696.6
DSCMET_421 2018-09-29 19:15:00 6425 185.800 5.0000 0.0000 0.0000 263.900 5.0000 0.0000 0.0000 263.200 5.0000 0.0000 0.0000 13.720 82.200 10.742           13.850 13.580 82.500 81.900 15.697 12.903 2.794 421 696.6
DSCMET_421 2018-09-29 19:10:00 6424 185.900 5.0000 0.0000 0.0000 263.800 5.0000 0.0000 0.0000 263.200 5.0000 0.0000 0.0000 13.800 81.900 10.765           13.900 13.700 82.400 81.500 15.778 12.922 2.856 421 696.6
DSCMET_421 2018-09-29 19:05:00 6423 185.800 5.0000 0.0000 0.0000 263.800 5.0000 0.0000 0.0000 263.200 5.0000 0.0000 0.0000 13.740 82.200 10.761           13.860 13.500 82.400 81.800 15.717 12.919 2.798 421 696.6
DSCMET_421 2018-09-29 19:00:00 6422 185.800 5.0000 0.0000 0.0000 263.800 5.0000 0.0000 0.0000 263.200 5.0000 0.0000 0.0000 13.890 81.300 10.742           14.050 13.760 81.900 80.600 15.871 12.903 2.968 421 696.6
DSCMET_421 2018-09-29 18:55:00 6421 185.700 5.0000 0.0000 0.0000 263.800 5.0000 0.0000 0.0000 263.100 5.0000 0.0000 0.0000 14.250 79.170 10.694           14.490 13.960 80.600 77.660 16.246 12.862 3.384 421 696.6
DSCMET_421 2018-09-29 18:50:00 6420 185.700 5.0000 0.0000 0.0000 263.800 5.0000 0.0000 0.0000 263.000 5.0000 0.0000 0.0000 14.350 78.490 10.662           14.440 14.150 78.670 78.290 16.351 12.834 3.517 421 696.6
DSCMET_421 2018-09-29 18:45:00 6419 185.800 5.0000 0.0000 0.0000 263.700 5.0000 0.0000 0.0000 262.900 5.0000 0.0000 0.0000 14.160 79.750 10.716           14.410 13.860 80.600 78.370 16.151 12.881 3.271 421 696.6
DSCMET_421 2018-09-29 18:40:00 6418 185.700 5.0000 0.0000 0.0000 263.500 5.0000 0.0000 0.0000 262.800 5.0000 0.0000 0.0000 14.150 79.930 10.740           14.360 13.860 80.700 79.320 16.141 12.901 3.239 421 696.6
DSCMET_421 2018-09-29 18:35:00 6417 185.600 5.0000 0.0000 0.0000 263.500 5.0000 0.0000 0.0000 262.800 5.0000 0.0000 0.0000 14.370 79.100 10.798           14.480 14.260 79.420 78.820 16.372 12.951 3.422 421 696.6
DSCMET_421 2018-09-29 18:30:00 6416 185.800 5.0000 0.0000 0.0000 263.500 5.0000 0.0000 0.0000 262.800 5.0000 0.0000 0.0000 14.600 77.450 10.704           14.870 14.240 78.700 75.900 16.618 12.870 3.747 421 696.6
DSCMET_421 2018-09-29 18:25:00 6415 185.800 5.0000 0.0000 0.0000 263.600 5.0000 0.0000 0.0000 262.800 5.0000 0.0000 0.0000 14.770 76.670 10.717           14.940 14.560 77.510 76.130 16.801 12.881 3.920 421 696.6
DSCMET_421 2018-09-29 18:20:00 6414 185.800 5.0000 0.0000 0.0000 263.800 5.0000 0.0000 0.0000 262.800 5.0000 0.0000 0.0000 14.440 78.820 10.812           14.690 14.280 79.500 77.390 16.447 12.963 3.483 421 696.6
DSCMET_421 2018-09-29 18:15:00 6413 185.800 5.0000 0.0000 0.0000 263.800 5.0000 0.0000 0.0000 262.800 5.0000 0.0000 0.0000 14.410 79.210 10.857           14.520 14.260 79.790 78.850 16.415 13.002 3.413 421 696.6
DSCMET_421 2018-09-29 18:10:00 6412 185.600 5.0000 0.0000 0.0000 263.500 5.0000 0.0000 0.0000 262.800 5.0000 0.0000 0.0000 14.340 79.430 10.831           14.460 14.140 79.880 78.780 16.341 12.979 3.361 421 696.6
DSCMET_421 2018-09-29 18:05:00 6411 185.800 5.0000 0.0000 0.0000 263.500 5.0000 0.0000 0.0000 262.800 5.0000 0.0000 0.0000 14.580 77.790 10.751           14.700 14.410 78.950 77.300 16.596 12.910 3.686 421 696.6
DSCMET_421 2018-09-29 18:00:00 6410 185.700 5.0000 0.0000 0.0000 263.500 5.0000 0.0000 0.0000 262.800 5.0000 0.0000 0.0000 14.770 76.740 10.731           14.900 14.460 77.820 76.010 16.801 12.893 3.908 421 696.6
DSCMET_421 2018-09-29 17:55:00 6409 185.800 5.0000 0.0000 0.0000 263.700 5.0000 0.0000 0.0000 262.800 5.0000 0.0000 0.0000 14.800 77.490 10.906           14.950 14.550 77.930 76.870 16.834 13.044 3.789 421 696.6
DSCMET_421 2018-09-29 17:50:00 6408 185.500 5.0000 0.0000 0.0000 263.500 5.0000 0.0000 0.0000 262.600 5.0000 0.0000 0.0000 14.850 76.770 10.814           14.970 14.620 77.100 75.840 16.888 12.965 3.923 421 696.6
DSCMET_421 2018-09-29 17:45:00 6407 185.100 5.0000 0.0000 0.0000 263.500 5.0000 0.0000 0.0000 262.500 5.0000 0.0000 0.0000 15.050 75.500 10.757           15.310 14.780 76.670 74.230 17.107 12.916 4.191 421 696.6
DSCMET_421 2018-09-29 17:40:00 6406 185.600 5.0000 0.0000 0.0000 263.500 5.0000 0.0000 0.0000 262.500 5.0000 0.0000 0.0000 15.130 76.040 10.941           15.300 15.020 77.350 74.440 17.195 13.075 4.120 421 696.6
DSCMET_421 2018-09-29 17:35:00 6405 185.700 5.0000 0.0000 0.0000 263.500 5.0000 0.0000 0.0000 262.500 5.0000 0.0000 0.0000 15.320 74.400 10.797           15.450 15.060 75.110 73.780 17.406 12.950 4.456 421 696.6
DSCMET_421 2018-09-29 17:30:00 6404 185.500 5.0000 0.0000 0.0000 263.500 5.0000 0.0000 0.0000 262.500 5.0000 0.0000 0.0000 15.580 73.040 10.771           15.780 15.450 73.700 72.650 17.699 12.927 4.772 421 696.6
DSCMET_421 2018-09-29 17:25:00 6403 185.500 5.0000 0.0000 0.0000 263.500 5.0000 0.0000 0.0000 262.400 5.0000 0.0000 0.0000 15.750 72.270 10.775           15.890 15.560 72.600 71.670 17.893 12.931 4.962 421 696.6
DSCMET_421 2018-09-29 17:20:00 6402 185.700 5.0000 0.0000 0.0000 263.500 5.0000 0.0000 0.0000 262.200 5.0000 0.0000 0.0000 15.860 71.790 10.781           15.960 15.650 72.190 70.940 18.019 12.936 5.083 421 696.6
DSCMET_421 2018-09-29 17:15:00 6401 185.700 5.0000 0.0000 0.0000 263.500 5.0000 0.0000 0.0000 262.100 5.0000 0.0000 0.0000 15.910 71.120 10.688           16.030 15.740 71.460 70.510 18.077 12.856 5.221 421 696.6
DSCMET_421 2018-09-29 17:10:00 6400 185.800 5.0000 0.0000 0.0000 263.500 5.0000 0.0000 0.0000 262.100 5.0000 0.0000 0.0000 16.060 70.440 10.687           16.140 15.940 71.270 69.180 18.251 12.856 5.395 421 696.6
DSCMET_421 2018-09-29 17:05:00 6399 185.800 5.0000 0.0000 0.0000 263.400 5.0000 0.0000 0.0000 262.100 5.0000 0.0000 0.0000 16.120 70.160 10.685           16.220 15.970 70.470 69.660 18.321 12.854 5.467 421 696.6
DSCMET_421 2018-09-29 17:00:00 6398 185.800 5.0000 0.0000 0.0000 263.200 5.0000 0.0000 0.0000 262.100 5.0000 0.0000 0.0000 16.210 68.970 10.515           16.340 16.040 69.760 68.380 18.426 12.709 5.718 421 696.6
DSCMET_421 2018-09-29 16:55:00 6397 185.800 5.0000 0.0000 0.0000 263.200 5.0000 0.0000 0.0000 262.100 5.0000 0.0000 0.0000 16.310 68.750 10.562           16.410 16.240 69.600 67.890 18.544 12.749 5.795 421 696.6
DSCMET_421 2018-09-29 16:50:00 6396 185.700 5.0000 0.0000 0.0000 263.100 5.0000 0.0000 0.0000 262.100 5.0000 0.0000 0.0000 16.340 68.540 10.545           16.470 16.120 69.450 67.740 18.580 12.735 5.845 421 696.6
DSCMET_421 2018-09-29 16:45:00 6395 185.800 5.0000 0.0000 0.0000 263.100 5.0000 0.0000 0.0000 262.100 5.0000 0.0000 0.0000 16.540 66.370 10.254           16.690 16.390 69.230 64.090 18.818 12.489 6.328 421 696.6
DSCMET_421 2018-09-29 16:40:00 6394 185.900 5.0000 0.0000 0.0000 263.100 5.0000 0.0000 0.0000 262.100 5.0000 0.0000 0.0000 16.570 66.070 10.215           16.650 16.410 68.220 63.890 18.854 12.457 6.397 421 696.6
DSCMET_421 2018-09-29 16:35:00 6393 185.900 5.0000 0.0000 0.0000 263.100 5.0000 0.0000 0.0000 262.100 5.0000 0.0000 0.0000 16.650 66.230 10.327           16.770 16.470 68.320 64.440 18.950 12.550 6.399 421 696.6
DSCMET_421 2018-09-29 16:30:00 6392 185.700 5.0000 0.0000 0.0000 263.100 5.0000 0.0000 0.0000 262.100 5.0000 0.0000 0.0000 16.640 67.370 10.573           16.800 16.410 67.890 66.870 18.938 12.758 6.179 421 696.6
DSCMET_421 2018-09-29 16:25:00 6391 185.500 5.0000 0.0000 0.0000 263.100 5.0000 0.0000 0.0000 262.000 5.0000 0.0000 0.0000 16.650 66.480 10.383           16.770 16.570 67.300 64.780 18.950 12.598 6.352 421 696.6
DSCMET_421 2018-09-29 16:20:00 6390 185.400 5.0000 0.0000 0.0000 263.100 5.0000 0.0000 0.0000 261.800 5.0000 0.0000 0.0000 16.660 63.390 9.682           16.800 16.440 63.870 62.960 18.962 12.020 6.942 421 696.6
DSCMET_421 2018-09-29 16:15:00 6389 185.400 5.0000 0.0000 0.0000 263.100 5.0000 0.0000 0.0000 261.800 5.0000 0.0000 0.0000 16.650 62.960 9.572           16.740 16.510 63.770 62.290 18.950 11.931 7.019 421 696.6
DSCMET_421 2018-09-29 16:10:00 6388 185.700 5.0000 0.0000 0.0000 262.900 5.0000 0.0000 0.0000 261.800 5.0000 0.0000 0.0000 16.650 62.710 9.513           16.750 16.440 62.910 62.050 18.950 11.883 7.066 421 696.6
DSCMET_421 2018-09-29 16:05:00 6387 185.600 5.0000 0.0000 0.0000 262.900 5.0000 0.0000 0.0000 261.800 5.0000 0.0000 0.0000 16.640 62.740 9.510           16.720 16.420 63.160 62.460 18.938 11.882 7.056 421 696.6
DSCMET_421 2018-09-29 16:00:00 6386 185.800 5.0000 0.0000 0.0000 262.800 5.0000 0.0000 0.0000 261.800 5.0000 0.0000 0.0000 16.640 62.670 9.494           16.770 16.270 63.160 62.360 18.938 11.868 7.069 421 696.6
DSCMET_421 2018-09-29 15:55:00 6385 185.800 5.0000 0.0000 0.0000 263.100 5.0000 0.0000 0.0000 261.900 5.0000 0.0000 0.0000 16.880 63.760 9.977           17.050 16.660 65.400 61.900 19.229 12.260 6.968 421 696.6
DSCMET_421 2018-09-29 15:50:00 6384 185.600 5.0000 0.0000 0.0000 263.100 5.0000 0.0000 0.0000 262.000 5.0000 0.0000 0.0000 16.900 64.480 10.164           17.040 16.740 64.980 63.520 19.253 12.414 6.839 421 696.6
DSCMET_421 2018-09-29 15:45:00 6383 185.400 5.0000 0.0000 0.0000 262.900 5.0000 0.0000 0.0000 261.800 5.0000 0.0000 0.0000 16.690 63.630 9.767           16.790 16.470 65.300 62.350 18.998 12.088 6.910 421 696.6
DSCMET_421 2018-09-29 15:40:00 6382 185.500 5.0000 0.0000 0.0000 262.800 5.0000 0.0000 0.0000 261.800 5.0000 0.0000 0.0000 16.740 63.510 9.786           16.870 16.620 65.330 62.230 19.058 12.104 6.954 421 696.6
DSCMET_421 2018-09-29 15:35:00 6381 185.600 5.0000 0.0000 0.0000 262.800 5.0000 0.0000 0.0000 261.800 5.0000 0.0000 0.0000 16.810 63.400 9.827           16.940 16.570 64.540 61.320 19.143 12.137 7.006 421 696.6
DSCMET_421 2018-09-29 15:30:00 6380 185.700 5.0000 0.0000 0.0000 262.800 5.0000 0.0000 0.0000 261.800 5.0000 0.0000 0.0000 16.990 61.630 9.575           17.370 16.710 62.580 60.420 19.363 11.933 7.430 421 696.6
DSCMET_421 2018-09-29 15:25:00 6379 185.600 5.0000 0.0000 0.0000 263.000 5.0000 0.0000 0.0000 261.800 5.0000 0.0000 0.0000 17.160 61.620 9.733           17.320 16.970 62.780 60.790 19.573 12.061 7.512 421 696.6
DSCMET_421 2018-09-29 15:20:00 6378 185.700 5.0000 0.0000 0.0000 263.100 5.0000 0.0000 0.0000 261.900 5.0000 0.0000 0.0000 17.230 63.480 10.243           17.340 17.090 65.920 61.070 19.660 12.480 7.180 421 696.6
DSCMET_421 2018-09-29 15:15:00 6377 185.700 5.0000 0.0000 0.0000 263.100 5.0000 0.0000 0.0000 262.100 5.0000 0.0000 0.0000 17.050 63.600 10.101           17.350 16.670 65.680 62.680 19.437 12.362 7.075 421 696.6
DSCMET_421 2018-09-29 15:10:00 6376 185.800 5.0000 0.0000 0.0000 263.100 5.0000 0.0000 0.0000 262.100 5.0000 0.0000 0.0000 16.420 63.980 9.593           16.690 16.090 64.390 63.330 18.675 11.948 6.727 421 696.6
DSCMET_421 2018-09-29 15:05:00 6375 185.800 5.0000 0.0000 0.0000 263.100 5.0000 0.0000 0.0000 262.100 5.0000 0.0000 0.0000 16.320 64.830 9.695           16.440 16.090 65.070 64.510 18.556 12.030 6.526 421 696.6
DSCMET_421 2018-09-29 15:00:00 6374 185.800 5.0000 0.0000 0.0000 263.100 5.0000 0.0000 0.0000 262.100 5.0000 0.0000 0.0000 16.390 64.620 9.713           16.460 16.310 65.320 64.120 18.639 12.045 6.594 421 696.6
DSCMET_421 2018-09-29 14:55:00 6373 185.800 5.0000 0.0000 0.0000 263.100 5.0000 0.0000 0.0000 262.100 5.0000 0.0000 0.0000 16.450 64.730 9.795           16.590 16.330 65.390 63.910 18.710 12.111 6.599 421 696.6
DSCMET_421 2018-09-29 14:50:00 6372 185.700 5.0000 0.0000 0.0000 263.100 5.0000 0.0000 0.0000 262.100 5.0000 0.0000 0.0000 16.340 65.060 9.767           16.480 16.140 65.450 64.570 18.580 12.088 6.492 421 696.6
DSCMET_421 2018-09-29 14:45:00 6371 185.500 5.0000 0.0000 0.0000 263.100 5.0000 0.0000 0.0000 262.100 5.0000 0.0000 0.0000 16.290 65.600 9.842           16.390 16.130 66.150 64.640 18.521 12.150 6.371 421 696.6
DSCMET_421 2018-09-29 14:40:00 6370 185.500 5.0000 0.0000 0.0000 263.100 5.0000 0.0000 0.0000 262.100 5.0000 0.0000 0.0000 16.220 65.440 9.739           16.310 16.010 66.070 64.870 18.438 12.066 6.372 421 696.6
DSCMET_421 2018-09-29 14:35:00 6369 185.500 5.0000 0.0000 0.0000 263.100 5.0000 0.0000 0.0000 262.100 5.0000 0.0000 0.0000 16.250 65.570 9.797           16.380 16.130 67.010 64.860 18.473 12.113 6.360 421 696.6
DSCMET_421 2018-09-29 14:30:00 6368 185.600 5.0000 0.0000 0.0000 263.100 5.0000 0.0000 0.0000 262.100 5.0000 0.0000 0.0000 16.260 67.300 10.196           16.430 15.960 68.120 66.280 18.485 12.441 6.045 421 696.6
DSCMET_421 2018-09-29 14:25:00 6367 185.500 5.0000 0.0000 0.0000 263.100 5.0000 0.0000 0.0000 262.100 5.0000 0.0000 0.0000 16.160 67.840 10.220           16.290 15.880 68.460 67.000 18.368 12.461 5.907 421 696.6
DSCMET_421 2018-09-29 14:20:00 6366 185.600 5.0000 0.0000 0.0000 263.100 5.0000 0.0000 0.0000 262.100 5.0000 0.0000 0.0000 16.090 66.900 9.945           16.210 15.800 67.640 66.370 18.286 12.233 6.053 421 696.6
DSCMET_421 2018-09-29 14:15:00 6365 185.500 5.0000 0.0000 0.0000 263.100 5.0000 0.0000 0.0000 262.100 5.0000 0.0000 0.0000 16.120 67.190 10.038           16.230 15.900 68.320 66.200 18.321 12.310 6.011 421 696.6
DSCMET_421 2018-09-29 14:10:00 6364 185.500 5.0000 0.0000 0.0000 263.100 5.0000 0.0000 0.0000 262.100 5.0000 0.0000 0.0000 16.050 67.600 10.062           16.200 15.730 68.220 67.110 18.239 12.330 5.910 421 696.6
DSCMET_421 2018-09-29 14:05:00 6363 185.500 5.0000 0.0000 0.0000 263.100 5.0000 0.0000 0.0000 262.200 5.0000 0.0000 0.0000 16.080 67.360 10.037           16.260 15.910 68.060 66.900 18.274 12.310 5.965 421 696.6
DSCMET_421 2018-09-29 14:00:00 6362 185.500 5.0000 0.0000 0.0000 263.100 5.0000 0.0000 0.0000 262.200 5.0000 0.0000 0.0000 16.060 67.800 10.116           16.260 15.860 68.560 67.110 18.251 12.374 5.877 421 696.6
DSCMET_421 2018-09-29 13:55:00 6361 185.400 5.0000 0.0000 0.0000 263.100 5.0000 0.0000 0.0000 262.200 5.0000 0.0000 0.0000 16.160 67.160 10.069           16.280 16.000 67.600 66.720 18.368 12.336 6.032 421 696.6
DSCMET_421 2018-09-29 13:50:00 6360 185.500 5.0000 0.0000 0.0000 263.200 5.0000 0.0000 0.0000 262.200 5.0000 0.0000 0.0000 16.080 67.840 10.143           16.430 15.780 68.560 66.620 18.274 12.397 5.877 421 696.6
DSCMET_421 2018-09-29 13:45:00 6359 185.500 5.0000 0.0000 0.0000 263.200 5.0000 0.0000 0.0000 262.200 5.0000 0.0000 0.0000 16.070 67.610 10.083           16.230 15.870 68.260 66.970 18.263 12.347 5.915 421 696.6
DSCMET_421 2018-09-29 13:40:00 6358 185.500 5.0000 0.0000 0.0000 263.200 5.0000 0.0000 0.0000 262.200 5.0000 0.0000 0.0000 15.920 67.580 9.934           16.050 15.630 68.140 66.670 18.088 12.224 5.864 421 696.6
DSCMET_421 2018-09-29 13:35:00 6357 185.700 5.0000 0.0000 0.0000 263.100 5.0000 0.0000 0.0000 262.200 5.0000 0.0000 0.0000 15.990 67.160 9.907           16.200 15.680 67.760 66.230 18.170 12.203 5.967 421 696.6
DSCMET_421 2018-09-29 13:30:00 6356 185.600 5.0000 0.0000 0.0000 263.200 5.0000 0.0000 0.0000 262.200 5.0000 0.0000 0.0000 15.850 67.410 9.829           15.980 15.620 67.760 67.100 18.008 12.139 5.869 421 696.6
DSCMET_421 2018-09-29 13:25:00 6355 185.500 5.0000 0.0000 0.0000 263.200 5.0000 0.0000 0.0000 262.200 5.0000 0.0000 0.0000 15.840 67.220 9.778           15.970 15.680 67.630 66.770 17.996 12.097 5.899 421 696.6
DSCMET_421 2018-09-29 13:20:00 6354 185.500 5.0000 0.0000 0.0000 263.200 5.0000 0.0000 0.0000 262.200 5.0000 0.0000 0.0000 15.740 67.220 9.682           15.900 15.650 67.750 66.370 17.881 12.020 5.862 421 696.6
DSCMET_421 2018-09-29 13:15:00 6353 185.500 5.0000 0.0000 0.0000 263.200 5.0000 0.0000 0.0000 262.200 5.0000 0.0000 0.0000 15.740 67.490 9.742           15.850 15.620 68.060 66.640 17.881 12.068 5.813 421 696.6
DSCMET_421 2018-09-29 13:10:00 6352 185.600 5.0000 0.0000 0.0000 263.200 5.0000 0.0000 0.0000 262.200 5.0000 0.0000 0.0000 15.770 68.130 9.911           16.030 15.570 69.370 66.490 17.916 12.206 5.710 421 696.6
DSCMET_421 2018-09-29 13:05:00 6351 185.600 5.0000 0.0000 0.0000 263.200 5.0000 0.0000 0.0000 262.200 5.0000 0.0000 0.0000 15.560 69.130 9.928           15.650 15.390 69.690 68.730 17.676 12.220 5.457 421 696.6
DSCMET_421 2018-09-29 13:00:00 6350 185.700 5.0000 0.0000 0.0000 263.200 5.0000 0.0000 0.0000 262.200 5.0000 0.0000 0.0000 15.540 69.510 9.991           15.690 15.270 69.870 69.010 17.654 12.271 5.383 421 696.6
DSCMET_421 2018-09-29 12:55:00 6349 185.700 5.0000 0.0000 0.0000 263.200 5.0000 0.0000 0.0000 262.200 5.0000 0.0000 0.0000 15.730 69.220 10.110           15.950 15.500 70.790 68.550 17.870 12.370 5.500 421 696.6
DSCMET_421 2018-09-29 12:50:00 6348 185.800 5.0000 0.0000 0.0000 263.200 5.0000 0.0000 0.0000 262.200 5.0000 0.0000 0.0000 15.410 70.600 10.099           15.660 14.960 71.540 69.640 17.507 12.360 5.147 421 696.6
DSCMET_421 2018-09-29 12:45:00 6347 185.700 5.0000 0.0000 0.0000 263.400 5.0000 0.0000 0.0000 262.200 5.0000 0.0000 0.0000 15.340 71.320 10.183           15.590 15.110 72.000 70.440 17.429 12.430 4.999 421 696.6
DSCMET_421 2018-09-29 12:40:00 6346 185.700 5.0000 0.0000 0.0000 263.500 5.0000 0.0000 0.0000 262.400 5.0000 0.0000 0.0000 15.180 71.520 10.071           15.460 14.760 72.250 70.560 17.250 12.338 4.913 421 696.6
DSCMET_421 2018-09-29 12:35:00 6345 185.600 5.0000 0.0000 0.0000 263.500 5.0000 0.0000 0.0000 262.500 5.0000 0.0000 0.0000 14.930 72.550 10.045           15.140 14.590 73.710 71.400 16.975 12.316 4.660 421 696.6
DSCMET_421 2018-09-29 12:30:00 6344 185.500 5.0000 0.0000 0.0000 263.500 5.0000 0.0000 0.0000 262.400 5.0000 0.0000 0.0000 14.720 73.640 10.065           14.790 14.580 73.980 73.200 16.747 12.332 4.414 421 696.6
DSCMET_421 2018-09-29 12:25:00 6343 185.500 5.0000 0.0000 0.0000 263.500 5.0000 0.0000 0.0000 262.500 5.0000 0.0000 0.0000 14.690 73.570 10.022           14.780 14.510 73.860 73.060 16.715 12.297 4.418 421 696.6
DSCMET_421 2018-09-29 12:20:00 6342 185.400 5.0000 0.0000 0.0000 263.500 5.0000 0.0000 0.0000 262.500 5.0000 0.0000 0.0000 14.720 73.810 10.100           14.840 14.590 74.410 73.430 16.747 12.361 4.386 421 696.6
DSCMET_421 2018-09-29 12:15:00 6341 185.500 5.0000 0.0000 0.0000 263.500 5.0000 0.0000 0.0000 262.500 5.0000 0.0000 0.0000 14.610 74.140 10.060           14.710 14.380 74.290 73.730 16.628 12.328 4.300 421 696.6
DSCMET_421 2018-09-29 12:10:00 6340 185.500 5.0000 0.0000 0.0000 263.500 5.0000 0.0000 0.0000 262.500 5.0000 0.0000 0.0000 14.610 74.290 10.090           14.730 14.410 74.520 74.040 16.628 12.353 4.275 421 696.6
DSCMET_421 2018-09-29 12:05:00 6339 185.500 5.0000 0.0000 0.0000 263.500 5.0000 0.0000 0.0000 262.500 5.0000 0.0000 0.0000 14.540 74.750 10.115           14.680 14.310 74.970 74.540 16.553 12.374 4.180 421 696.6
DSCMET_421 2018-09-29 12:00:00 6338 185.500 5.0000 0.0000 0.0000 263.500 5.0000 0.0000 0.0000 262.500 5.0000 0.0000 0.0000 14.620 74.780 10.198           14.710 14.530 75.490 74.310 16.639 12.443 4.196 421 696.6
DSCMET_421 2018-09-29 11:55:00 6337 185.600 5.0000 0.0000 0.0000 263.500 5.0000 0.0000 0.0000 262.500 5.0000 0.0000 0.0000 14.700 74.670 10.253           14.860 14.530 75.270 74.260 16.725 12.489 4.237 421 696.6
DSCMET_421 2018-09-29 11:50:00 6336 185.600 5.0000 0.0000 0.0000 263.500 5.0000 0.0000 0.0000 262.500 5.0000 0.0000 0.0000 14.530 75.520 10.259           14.730 14.350 76.120 74.640 16.543 12.493 4.050 421 696.6
DSCMET_421 2018-09-29 11:45:00 6335 185.600 5.0000 0.0000 0.0000 263.500 5.0000 0.0000 0.0000 262.500 5.0000 0.0000 0.0000 14.400 75.890 10.206           14.500 14.230 76.370 75.520 16.404 12.449 3.955 421 696.6
DSCMET_421 2018-09-29 11:40:00 6334 185.600 5.0000 0.0000 0.0000 263.500 5.0000 0.0000 0.0000 262.500 5.0000 0.0000 0.0000 14.390 75.880 10.194           14.530 14.200 76.350 75.190 16.394 12.440 3.954 421 696.6
DSCMET_421 2018-09-29 11:35:00 6333 185.800 5.0000 0.0000 0.0000 263.500 5.0000 0.0000 0.0000 262.500 5.0000 0.0000 0.0000 14.400 75.680 10.165           14.500 14.230 76.090 75.320 16.404 12.415 3.990 421 696.6
DSCMET_421 2018-09-29 11:30:00 6332 185.600 5.0000 0.0000 0.0000 263.500 5.0000 0.0000 0.0000 262.500 5.0000 0.0000 0.0000 14.380 75.610 10.131           14.500 14.170 75.940 75.270 16.383 12.387 3.996 421 696.6
DSCMET_421 2018-09-29 11:25:00 6331 185.500 5.0000 0.0000 0.0000 263.500 5.0000 0.0000 0.0000 262.500 5.0000 0.0000 0.0000 14.350 75.500 10.081           14.480 14.180 75.810 75.080 16.351 12.345 4.006 421 696.6
DSCMET_421 2018-09-29 11:20:00 6330 185.400 5.0000 0.0000 0.0000 263.500 5.0000 0.0000 0.0000 262.500 5.0000 0.0000 0.0000 14.420 75.040 10.057           14.600 14.230 75.430 74.330 16.426 12.326 4.100 421 696.6
DSCMET_421 2018-09-29 11:15:00 6329 185.400 5.0000 0.0000 0.0000 263.400 5.0000 0.0000 0.0000 262.500 5.0000 0.0000 0.0000 14.390 74.940 10.008           14.580 14.200 75.560 74.250 16.394 12.285 4.108 421 696.6
DSCMET_421 2018-09-29 11:10:00 6328 185.500 5.0000 0.0000 0.0000 263.500 5.0000 0.0000 0.0000 262.500 5.0000 0.0000 0.0000 14.300 75.550 10.042           14.460 14.130 76.220 74.590 16.298 12.314 3.985 421 696.6
DSCMET_421 2018-09-29 11:05:00 6327 185.500 5.0000 0.0000 0.0000 263.500 5.0000 0.0000 0.0000 262.500 5.0000 0.0000 0.0000 14.310 75.310 10.004           14.480 14.100 75.940 74.780 16.309 12.282 4.027 421 696.6
DSCMET_421 2018-09-29 11:00:00 6326 185.600 5.0000 0.0000 0.0000 263.500 5.0000 0.0000 0.0000 262.500 5.0000 0.0000 0.0000 14.430 74.380 9.935           14.530 14.120 75.060 73.880 16.436 12.225 4.211 421 696.6
DSCMET_421 2018-09-29 10:55:00 6325 185.600 5.0000 0.0000 0.0000 263.500 5.0000 0.0000 0.0000 262.500 5.0000 0.0000 0.0000 14.510 74.620 10.060           14.710 14.200 75.510 73.430 16.521 12.328 4.193 421 696.6
DSCMET_421 2018-09-29 10:50:00 6324 185.600 5.0000 0.0000 0.0000 263.500 5.0000 0.0000 0.0000 262.500 5.0000 0.0000 0.0000 14.360 75.410 10.072           14.500 14.180 76.110 74.780 16.362 12.339 4.023 421 696.6
DSCMET_421 2018-09-29 10:45:00 6323 185.500 5.0000 0.0000 0.0000 263.500 5.0000 0.0000 0.0000 262.500 5.0000 0.0000 0.0000 14.220 75.950 10.044           14.400 13.890 76.600 75.360 16.214 12.315 3.900 421 696.6
DSCMET_421 2018-09-29 10:40:00 6322 185.600 5.0000 0.0000 0.0000 263.500 5.0000 0.0000 0.0000 262.500 5.0000 0.0000 0.0000 14.170 75.950 9.995           14.270 13.970 76.620 75.560 16.162 12.275 3.887 421 696.6
DSCMET_421 2018-09-29 10:35:00 6321 185.500 5.0000 0.0000 0.0000 263.500 5.0000 0.0000 0.0000 262.500 5.0000 0.0000 0.0000 14.070 76.260 9.959           14.220 13.940 76.850 75.640 16.057 12.245 3.812 421 696.6
DSCMET_421 2018-09-29 10:30:00 6320 185.500 5.0000 0.0000 0.0000 263.500 5.0000 0.0000 0.0000 262.500 5.0000 0.0000 0.0000 14.030 75.860 9.842           14.150 13.840 76.490 75.340 16.016 12.150 3.866 421 696.6
DSCMET_421 2018-09-29 10:25:00 6319 185.700 5.0000 0.0000 0.0000 263.500 5.0000 0.0000 0.0000 262.500 5.0000 0.0000 0.0000 13.970 75.930 9.798           14.120 13.740 76.720 75.430 15.954 12.114 3.840 421 696.6
DSCMET_421 2018-09-29 10:20:00 6318 185.900 5.0000 0.0000 0.0000 263.500 5.0000 0.0000 0.0000 262.500 5.0000 0.0000 0.0000 13.940 76.360 9.853           14.050 13.850 76.640 76.060 15.923 12.158 3.764 421 696.6
DSCMET_421 2018-09-29 10:15:00 6317 185.900 5.0000 0.0000 0.0000 263.500 5.0000 0.0000 0.0000 262.500 5.0000 0.0000 0.0000 13.850 76.570 9.807           14.000 13.650 77.100 76.010 15.830 12.121 3.709 421 696.6
DSCMET_421 2018-09-29 10:10:00 6316 185.800 5.0000 0.0000 0.0000 263.500 5.0000 0.0000 0.0000 262.500 5.0000 0.0000 0.0000 13.800 76.660 9.776           13.900 13.620 76.990 76.360 15.778 12.096 3.683 421 696.6
DSCMET_421 2018-09-29 10:05:00 6315 185.800 5.0000 0.0000 0.0000 263.500 5.0000 0.0000 0.0000 262.500 5.0000 0.0000 0.0000 13.780 76.780 9.780           13.900 13.550 77.120 76.500 15.758 12.099 3.659 421 696.6
DSCMET_421 2018-09-29 10:00:00 6314 185.900 5.0000 0.0000 0.0000 263.500 5.0000 0.0000 0.0000 262.500 5.0000 0.0000 0.0000 13.730 76.860 9.747           13.870 13.500 77.150 76.590 15.707 12.072 3.635 421 696.6
DSCMET_421 2018-09-29 09:55:00 6313 185.800 5.0000 0.0000 0.0000 263.500 5.0000 0.0000 0.0000 262.500 5.0000 0.0000 0.0000 13.790 76.810 9.796           13.870 13.720 77.020 76.540 15.768 12.111 3.657 421 696.6
DSCMET_421 2018-09-29 09:50:00 6312 185.600 5.0000 0.0000 0.0000 263.500 5.0000 0.0000 0.0000 262.500 5.0000 0.0000 0.0000 13.710 76.850 9.726           13.820 13.500 77.120 76.510 15.686 12.055 3.631 421 696.6
DSCMET_421 2018-09-29 09:45:00 6311 185.600 5.0000 0.0000 0.0000 263.500 5.0000 0.0000 0.0000 262.500 5.0000 0.0000 0.0000 13.680 76.240 9.578           13.770 13.420 76.540 75.860 15.656 11.936 3.720 421 696.6
DSCMET_421 2018-09-29 09:40:00 6310 185.800 5.0000 0.0000 0.0000 263.500 5.0000 0.0000 0.0000 262.500 5.0000 0.0000 0.0000 13.690 75.600 9.462           13.790 13.510 76.310 74.960 15.666 11.843 3.822 421 696.6
DSCMET_421 2018-09-29 09:35:00 6309 185.900 5.0000 0.0000 0.0000 263.300 5.0000 0.0000 0.0000 262.400 5.0000 0.0000 0.0000 13.750 75.370 9.475           13.850 13.640 76.190 74.930 15.727 11.854 3.874 421 696.6
DSCMET_421 2018-09-29 09:30:00 6308 186.100 5.0000 0.0000 0.0000 263.200 5.0000 0.0000 0.0000 262.200 5.0000 0.0000 0.0000 13.780 75.510 9.532           13.940 13.710 76.340 74.980 15.758 11.899 3.859 421 696.6
DSCMET_421 2018-09-29 09:25:00 6307 185.900 5.0000 0.0000 0.0000 263.200 5.0000 0.0000 0.0000 262.200 5.0000 0.0000 0.0000 13.910 75.180 9.592           14.120 13.710 75.960 74.240 15.892 11.947 3.944 421 696.6
DSCMET_421 2018-09-29 09:20:00 6306 186.000 5.0000 0.0000 0.0000 263.200 5.0000 0.0000 0.0000 262.200 5.0000 0.0000 0.0000 13.870 75.540 9.625           14.090 13.710 76.380 74.870 15.850 11.973 3.877 421 696.6
DSCMET_421 2018-09-29 09:15:00 6305 186.200 5.0000 0.0000 0.0000 263.200 5.0000 0.0000 0.0000 262.300 5.0000 0.0000 0.0000 14.000 75.080 9.659           14.210 13.740 75.780 73.680 15.985 12.001 3.983 421 696.6
DSCMET_421 2018-09-29 09:10:00 6304 186.300 5.0000 0.0000 0.0000 263.200 5.0000 0.0000 0.0000 262.600 5.0000 0.0000 0.0000 13.800 76.430 9.731           14.140 13.490 77.390 74.790 15.778 12.059 3.719 421 696.6
DSCMET_421 2018-09-29 09:05:00 6303 186.000 5.0000 0.0000 0.0000 263.400 5.0000 0.0000 0.0000 262.600 5.0000 0.0000 0.0000 13.540 77.400 9.667           13.740 13.380 78.540 76.650 15.514 12.008 3.506 421 696.6
DSCMET_421 2018-09-29 09:00:00 6302 186.000 5.0000 0.0000 0.0000 263.600 5.0000 0.0000 0.0000 262.600 5.0000 0.0000 0.0000 13.300 78.570 9.658           13.560 13.050 79.300 77.290 15.273 12.000 3.273 421 696.6
DSCMET_421 2018-09-29 08:55:00 6301 185.900 5.0000 0.0000 0.0000 263.500 5.0000 0.0000 0.0000 262.600 5.0000 0.0000 0.0000 13.170 79.130 9.637           13.260 13.000 80.100 78.640 15.144 11.983 3.161 421 696.6
DSCMET_421 2018-09-29 08:50:00 6300 186.000 5.0000 0.0000 0.0000 263.600 5.0000 0.0000 0.0000 262.700 5.0000 0.0000 0.0000 12.990 80.100 9.643           13.160 12.850 80.600 79.590 14.967 11.988 2.978 421 696.6
DSCMET_421 2018-09-29 08:45:00 6299 185.900 5.0000 0.0000 0.0000 263.600 5.0000 0.0000 0.0000 262.600 5.0000 0.0000 0.0000 12.960 80.200 9.633           13.110 12.800 80.400 79.740 14.937 11.980 2.958 421 696.6
DSCMET_421 2018-09-29 08:40:00 6298 186.000 5.0000 0.0000 0.0000 263.600 5.0000 0.0000 0.0000 262.700 5.0000 0.0000 0.0000 12.890 81.000 9.712           13.130 12.720 81.600 79.850 14.869 12.044 2.825 421 696.6
DSCMET_421 2018-09-29 08:35:00 6297 186.200 5.0000 0.0000 0.0000 263.600 5.0000 0.0000 0.0000 262.700 5.0000 0.0000 0.0000 12.900 80.900 9.704           13.100 12.750 82.000 79.800 14.879 12.037 2.842 421 696.6
DSCMET_421 2018-09-29 08:30:00 6296 186.200 5.0000 0.0000 0.0000 263.600 5.0000 0.0000 0.0000 262.600 5.0000 0.0000 0.0000 12.770 81.700 9.723           12.880 12.570 82.000 81.100 14.753 12.053 2.700 421 696.6
DSCMET_421 2018-09-29 08:25:00 6295 186.000 5.0000 0.0000 0.0000 263.600 5.0000 0.0000 0.0000 262.600 5.0000 0.0000 0.0000 12.730 81.900 9.721           12.880 12.520 82.200 81.400 14.714 12.051 2.663 421 696.6
DSCMET_421 2018-09-29 08:20:00 6294 186.200 5.0000 0.0000 0.0000 263.600 5.0000 0.0000 0.0000 262.800 5.0000 0.0000 0.0000 12.830 81.400 9.727           12.970 12.690 82.000 80.900 14.811 12.056 2.755 421 696.6
DSCMET_421 2018-09-29 08:15:00 6293 186.200 5.0000 0.0000 0.0000 263.600 5.0000 0.0000 0.0000 262.900 5.0000 0.0000 0.0000 12.750 81.900 9.740           12.850 12.590 82.600 81.100 14.733 12.067 2.667 421 696.6
DSCMET_421 2018-09-29 08:10:00 6292 186.200 5.0000 0.0000 0.0000 263.600 5.0000 0.0000 0.0000 262.900 5.0000 0.0000 0.0000 12.600 82.600 9.720           12.750 12.440 83.000 82.100 14.589 12.051 2.538 421 696.6
DSCMET_421 2018-09-29 08:05:00 6291 185.900 5.0000 0.0000 0.0000 263.700 5.0000 0.0000 0.0000 262.900 5.0000 0.0000 0.0000 12.590 82.800 9.747           12.740 12.340 83.000 82.400 14.579 12.072 2.508 421 696.6
DSCMET_421 2018-09-29 08:00:00 6290 185.900 5.0000 0.0000 0.0000 263.900 5.0000 0.0000 0.0000 262.900 5.0000 0.0000 0.0000 12.480 83.400 9.747           12.640 12.200 84.200 82.800 14.475 12.072 2.403 421 696.6
DSCMET_421 2018-09-29 07:55:00 6289 185.900 5.0000 0.0000 0.0000 263.900 5.0000 0.0000 0.0000 262.900 5.0000 0.0000 0.0000 12.350 84.200 9.762           12.520 12.040 84.700 83.700 14.351 12.084 2.268 421 696.6
DSCMET_421 2018-09-29 07:50:00 6288 185.900 5.0000 0.0000 0.0000 263.800 5.0000 0.0000 0.0000 262.900 5.0000 0.0000 0.0000 12.240 84.600 9.724           12.340 11.990 84.800 84.400 14.248 12.054 2.194 421 696.6
DSCMET_421 2018-09-29 07:45:00 6287 185.900 5.0000 0.0000 0.0000 263.900 5.0000 0.0000 0.0000 262.900 5.0000 0.0000 0.0000 12.280 84.500 9.746           12.390 12.210 84.700 84.300 14.286 12.071 2.214 421 696.6
DSCMET_421 2018-09-29 07:40:00 6286 186.000 5.0000 0.0000 0.0000 263.900 5.0000 0.0000 0.0000 262.900 5.0000 0.0000 0.0000 12.240 84.900 9.777           12.340 12.060 85.300 84.500 14.248 12.097 2.151 421 696.6
DSCMET_421 2018-09-29 07:35:00 6285 186.000 5.0000 0.0000 0.0000 263.900 5.0000 0.0000 0.0000 262.900 5.0000 0.0000 0.0000 12.150 85.100 9.724           12.290 11.890 85.500 84.800 14.164 12.053 2.110 421 696.6
DSCMET_421 2018-09-29 07:30:00 6284 186.000 5.0000 0.0000 0.0000 263.900 5.0000 0.0000 0.0000 262.900 5.0000 0.0000 0.0000 12.150 85.100 9.724           12.260 11.940 85.300 84.900 14.164 12.053 2.110 421 696.6
DSCMET_421 2018-09-29 07:25:00 6283 185.900 5.0000 0.0000 0.0000 263.600 5.0000 0.0000 0.0000 262.900 5.0000 0.0000 0.0000 12.100 85.100 9.675           12.190 11.860 85.300 84.900 14.117 12.014 2.103 421 696.6
DSCMET_421 2018-09-29 07:20:00 6282 185.900 5.0000 0.0000 0.0000 263.700 5.0000 0.0000 0.0000 262.900 5.0000 0.0000 0.0000 12.080 85.100 9.655           12.190 11.880 85.300 84.700 14.099 11.998 2.101 421 696.6
DSCMET_421 2018-09-29 07:15:00 6281 185.900 5.0000 0.0000 0.0000 263.800 5.0000 0.0000 0.0000 262.900 5.0000 0.0000 0.0000 12.120 85.100 9.694           12.220 11.890 85.200 84.900 14.136 12.030 2.106 421 696.6
DSCMET_421 2018-09-29 07:10:00 6280 185.900 5.0000 0.0000 0.0000 263.800 5.0000 0.0000 0.0000 262.900 5.0000 0.0000 0.0000 12.060 85.100 9.636           12.160 11.930 85.400 84.800 14.080 11.982 2.098 421 696.6
DSCMET_421 2018-09-29 07:05:00 6279 185.900 5.0000 0.0000 0.0000 263.700 5.0000 0.0000 0.0000 262.900 5.0000 0.0000 0.0000 12.060 84.900 9.601           12.190 11.860 85.200 84.700 14.080 11.954 2.126 421 696.6
DSCMET_421 2018-09-29 07:00:00 6278 185.900 5.0000 0.0000 0.0000 263.600 5.0000 0.0000 0.0000 262.900 5.0000 0.0000 0.0000 12.100 84.600 9.587           12.210 12.010 84.800 84.300 14.117 11.943 2.174 421 696.6
DSCMET_421 2018-09-29 06:55:00 6277 185.900 5.0000 0.0000 0.0000 263.400 5.0000 0.0000 0.0000 262.900 5.0000 0.0000 0.0000 12.050 84.400 9.503           12.160 11.880 84.700 84.100 14.071 11.876 2.195 421 696.6
DSCMET_421 2018-09-29 06:50:00 6276 185.900 5.0000 0.0000 0.0000 263.600 5.0000 0.0000 0.0000 262.900 5.0000 0.0000 0.0000 12.010 84.700 9.517           12.110 11.930 84.900 84.500 14.034 11.887 2.147 421 696.6
DSCMET_421 2018-09-29 06:45:00 6275 185.800 5.0000 0.0000 0.0000 263.600 5.0000 0.0000 0.0000 263.000 5.0000 0.0000 0.0000 11.980 84.500 9.452           12.060 11.810 84.800 84.200 14.006 11.835 2.171 421 696.6
DSCMET_421 2018-09-29 06:40:00 6274 185.800 5.0000 0.0000 0.0000 263.500 5.0000 0.0000 0.0000 263.000 5.0000 0.0000 0.0000 11.930 84.600 9.421           12.010 11.790 84.900 84.400 13.960 11.810 2.150 421 696.6
DSCMET_421 2018-09-29 06:35:00 6273 185.900 5.0000 0.0000 0.0000 263.600 5.0000 0.0000 0.0000 263.000 5.0000 0.0000 0.0000 11.880 84.700 9.389           11.990 11.640 84.800 84.500 13.914 11.785 2.129 421 696.6
DSCMET_421 2018-09-29 06:30:00 6272 185.500 5.0000 0.0000 0.0000 263.600 5.0000 0.0000 0.0000 263.000 5.0000 0.0000 0.0000 11.830 84.700 9.340           11.960 11.700 84.800 84.300 13.868 11.746 2.122 421 696.6
DSCMET_421 2018-09-29 06:25:00 6271 185.500 5.0000 0.0000 0.0000 263.600 5.0000 0.0000 0.0000 263.000 5.0000 0.0000 0.0000 11.750 84.700 9.262           11.860 11.580 85.100 84.500 13.795 11.684 2.111 421 696.6
DSCMET_421 2018-09-29 06:20:00 6270 185.400 5.0000 0.0000 0.0000 263.600 5.0000 0.0000 0.0000 263.000 5.0000 0.0000 0.0000 11.710 84.600 9.205           11.810 11.430 85.000 84.200 13.759 11.640 2.119 421 696.6
DSCMET_421 2018-09-29 06:15:00 6269 185.500 5.0000 0.0000 0.0000 263.500 5.0000 0.0000 0.0000 263.000 5.0000 0.0000 0.0000 11.730 84.300 9.172           11.830 11.530 84.600 83.800 13.777 11.614 2.163 421 696.6
DSCMET_421 2018-09-29 06:10:00 6268 185.700 5.0000 0.0000 0.0000 263.300 5.0000 0.0000 0.0000 263.000 5.0000 0.0000 0.0000 11.780 83.800 9.133           11.860 11.650 84.100 83.200 13.822 11.583 2.239 421 696.6
DSCMET_421 2018-09-29 06:05:00 6267 185.800 5.0000 0.0000 0.0000 263.300 5.0000 0.0000 0.0000 263.000 5.0000 0.0000 0.0000 11.690 83.700 9.027           11.830 11.470 84.300 83.100 13.740 11.501 2.240 421 696.6
DSCMET_421 2018-09-29 06:00:00 6266 185.800 5.0000 0.0000 0.0000 263.500 5.0000 0.0000 0.0000 263.000 5.0000 0.0000 0.0000 11.670 83.800 9.025           11.860 11.420 84.600 83.000 13.722 11.499 2.223 421 696.6
DSCMET_421 2018-09-29 05:55:00 6265 186.000 5.0000 0.0000 0.0000 263.300 5.0000 0.0000 0.0000 263.000 5.0000 0.0000 0.0000 11.620 84.200 9.047           11.780 11.350 85.200 83.600 13.677 11.516 2.161 421 696.6
DSCMET_421 2018-09-29 05:50:00 6264 185.700 5.0000 0.0000 0.0000 263.300 5.0000 0.0000 0.0000 263.000 5.0000 0.0000 0.0000 11.320 85.200 8.927           11.530 11.050 86.000 84.800 13.408 11.424 1.984 421 696.6
DSCMET_421 2018-09-29 05:45:00 6263 185.700 5.0000 0.0000 0.0000 263.300 5.0000 0.0000 0.0000 263.000 5.0000 0.0000 0.0000 11.260 85.100 8.851           11.420 11.050 85.800 84.500 13.355 11.365 1.990 421 696.6
DSCMET_421 2018-09-29 05:40:00 6262 185.600 5.0000 0.0000 0.0000 263.300 5.0000 0.0000 0.0000 263.000 5.0000 0.0000 0.0000 11.100 85.700 8.798           11.220 10.870 86.400 85.400 13.214 11.324 1.890 421 696.6
DSCMET_421 2018-09-29 05:35:00 6261 185.600 5.0000 0.0000 0.0000 263.300 5.0000 0.0000 0.0000 263.000 5.0000 0.0000 0.0000 11.100 85.700 8.798           11.250 10.930 86.100 85.300 13.214 11.324 1.890 421 696.6
DSCMET_421 2018-09-29 05:30:00 6260 185.400 5.0000 0.0000 0.0000 263.300 5.0000 0.0000 0.0000 262.900 5.0000 0.0000 0.0000 10.930 86.200 8.717           11.120 10.750 86.800 85.700 13.065 11.262 1.803 421 696.6
DSCMET_421 2018-09-29 05:25:00 6259 185.300 5.0000 0.0000 0.0000 263.300 5.0000 0.0000 0.0000 262.700 5.0000 0.0000 0.0000 10.830 85.900 8.567           10.980 10.670 86.500 85.400 12.979 11.149 1.830 421 696.6
DSCMET_421 2018-09-29 05:20:00 6258 185.200 5.0000 0.0000 0.0000 263.100 5.0000 0.0000 0.0000 262.600 5.0000 0.0000 0.0000 10.890 85.600 8.575           11.020 10.770 86.500 84.900 13.030 11.154 1.876 421 696.6
DSCMET_421 2018-09-29 05:15:00 6257 185.300 5.0000 0.0000 0.0000 263.000 5.0000 0.0000 0.0000 262.600 5.0000 0.0000 0.0000 10.820 84.800 8.368           10.950 10.490 85.600 83.900 12.970 10.998 1.971 421 696.6
DSCMET_421 2018-09-29 05:10:00 6256 185.200 5.0000 0.0000 0.0000 263.000 5.0000 0.0000 0.0000 262.600 5.0000 0.0000 0.0000 10.880 84.200 8.322           11.000 10.720 85.300 83.100 13.022 10.964 2.057 421 696.6
DSCMET_421 2018-09-29 05:05:00 6255 185.000 5.0000 0.0000 0.0000 263.000 5.0000 0.0000 0.0000 262.600 5.0000 0.0000 0.0000 10.790 83.500 8.111           10.900 10.570 85.500 82.200 12.944 10.808 2.136 421 696.6
DSCMET_421 2018-09-29 05:00:00 6254 184.900 5.0000 0.0000 0.0000 263.000 5.0000 0.0000 0.0000 262.400 5.0000 0.0000 0.0000 10.740 82.800 7.938           11.030 10.540 84.000 82.100 12.901 10.682 2.219 421 696.6
DSCMET_421 2018-09-29 04:55:00 6253 185.000 5.0000 0.0000 0.0000 263.000 5.0000 0.0000 0.0000 262.300 5.0000 0.0000 0.0000 10.610 82.400 7.740           10.770 10.440 83.200 81.900 12.790 10.539 2.251 421 696.6
DSCMET_421 2018-09-29 04:50:00 6252 185.000 5.0000 0.0000 0.0000 263.000 5.0000 0.0000 0.0000 262.300 5.0000 0.0000 0.0000 10.780 82.200 7.871           11.020 10.570 83.200 81.300 12.935 10.633 2.303 421 696.6
DSCMET_421 2018-09-29 04:45:00 6251 184.900 5.0000 0.0000 0.0000 263.000 5.0000 0.0000 0.0000 262.300 5.0000 0.0000 0.0000 10.830 81.900 7.866           11.000 10.570 82.600 81.100 12.979 10.629 2.349 421 696.6
DSCMET_421 2018-09-29 04:40:00 6250 184.800 5.0000 0.0000 0.0000 263.000 5.0000 0.0000 0.0000 262.300 5.0000 0.0000 0.0000 10.680 81.600 7.666           10.850 10.450 82.500 81.200 12.850 10.485 2.364 421 696.6
DSCMET_421 2018-09-29 04:35:00 6249 184.700 5.0000 0.0000 0.0000 263.000 5.0000 0.0000 0.0000 262.300 5.0000 0.0000 0.0000 10.730 81.100 7.625           10.850 10.520 81.300 81.000 12.892 10.456 2.437 421 696.6
DSCMET_421 2018-09-29 04:30:00 6248 184.700 5.0000 0.0000 0.0000 263.000 5.0000 0.0000 0.0000 262.300 5.0000 0.0000 0.0000 10.830 81.400 7.776           11.120 10.620 83.200 80.500 12.979 10.565 2.414 421 696.6
DSCMET_421 2018-09-29 04:25:00 6247 184.900 5.0000 0.0000 0.0000 263.000 5.0000 0.0000 0.0000 262.300 5.0000 0.0000 0.0000 10.730 81.700 7.732           11.020 10.450 82.500 81.200 12.892 10.533 2.359 421 696.6
DSCMET_421 2018-09-29 04:20:00 6246 184.800 5.0000 0.0000 0.0000 263.000 5.0000 0.0000 0.0000 262.300 5.0000 0.0000 0.0000 10.710 81.300 7.641           10.870 10.520 81.900 80.700 12.875 10.468 2.408 421 696.6
DSCMET_421 2018-09-29 04:15:00 6245 184.600 5.0000 0.0000 0.0000 263.000 5.0000 0.0000 0.0000 262.300 5.0000 0.0000 0.0000 10.620 81.600 7.607           10.730 10.420 82.000 81.400 12.798 10.443 2.355 421 696.6
DSCMET_421 2018-09-29 04:10:00 6244 184.700 5.0000 0.0000 0.0000 263.000 5.0000 0.0000 0.0000 262.300 5.0000 0.0000 0.0000 10.700 81.200 7.613           10.830 10.400 81.800 80.800 12.867 10.448 2.419 421 696.6
DSCMET_421 2018-09-29 04:05:00 6243 184.800 5.0000 0.0000 0.0000 263.000 5.0000 0.0000 0.0000 262.300 5.0000 0.0000 0.0000 10.550 82.500 7.699           10.750 10.270 82.800 82.200 12.739 10.509 2.229 421 696.6
DSCMET_421 2018-09-29 04:00:00 6242 184.700 5.0000 0.0000 0.0000 263.000 5.0000 0.0000 0.0000 262.300 5.0000 0.0000 0.0000 10.600 81.900 7.641           10.820 10.450 82.300 81.300 12.781 10.468 2.313 421 696.6
DSCMET_421 2018-09-29 03:55:00 6241 184.800 5.0000 0.0000 0.0000 263.000 5.0000 0.0000 0.0000 262.300 5.0000 0.0000 0.0000 10.610 81.700 7.615           10.800 10.370 82.200 81.200 12.790 10.449 2.341 421 696.6
DSCMET_421 2018-09-29 03:50:00 6240 184.900 5.0000 0.0000 0.0000 262.900 5.0000 0.0000 0.0000 262.300 5.0000 0.0000 0.0000 10.720 81.200 7.633           10.930 10.500 82.000 80.400 12.884 10.462 2.422 421 696.6
DSCMET_421 2018-09-29 03:45:00 6239 185.000 5.0000 0.0000 0.0000 262.800 5.0000 0.0000 0.0000 262.300 5.0000 0.0000 0.0000 10.750 80.900 7.608           10.880 10.480 81.400 80.300 12.910 10.444 2.466 421 696.6
DSCMET_421 2018-09-29 03:40:00 6238 185.000 5.0000 0.0000 0.0000 262.600 5.0000 0.0000 0.0000 262.300 5.0000 0.0000 0.0000 10.820 80.600 7.622           10.930 10.600 80.900 80.200 12.970 10.454 2.516 421 696.6
DSCMET_421 2018-09-29 03:35:00 6237 185.000 5.0000 0.0000 0.0000 262.600 5.0000 0.0000 0.0000 262.000 5.0000 0.0000 0.0000 10.840 80.600 7.641           10.930 10.650 80.900 80.300 12.987 10.468 2.520 421 696.6
DSCMET_421 2018-09-29 03:30:00 6236 184.800 5.0000 0.0000 0.0000 262.600 5.0000 0.0000 0.0000 262.000 5.0000 0.0000 0.0000 10.970 79.750 7.613           11.130 10.850 80.400 79.180 13.100 10.447 2.653 421 696.6
DSCMET_421 2018-09-29 03:25:00 6235 184.800 5.0000 0.0000 0.0000 262.600 5.0000 0.0000 0.0000 262.000 5.0000 0.0000 0.0000 11.010 79.690 7.640           11.130 10.800 80.000 79.470 13.135 10.467 2.668 421 696.6
DSCMET_421 2018-09-29 03:20:00 6234 184.600 5.0000 0.0000 0.0000 262.600 5.0000 0.0000 0.0000 262.000 5.0000 0.0000 0.0000 10.980 79.800 7.631           11.110 10.750 80.300 79.350 13.109 10.461 2.648 421 696.6
DSCMET_421 2018-09-29 03:15:00 6233 184.600 5.0000 0.0000 0.0000 262.600 5.0000 0.0000 0.0000 262.000 5.0000 0.0000 0.0000 11.050 79.500 7.644           11.160 10.930 79.850 79.150 13.170 10.470 2.700 421 696.6
DSCMET_421 2018-09-29 03:10:00 6232 184.500 5.0000 0.0000 0.0000 262.600 5.0000 0.0000 0.0000 262.000 5.0000 0.0000 0.0000 10.980 79.790 7.630           11.080 10.710 80.000 79.570 13.109 10.459 2.649 421 696.6
DSCMET_421 2018-09-29 03:05:00 6231 184.500 5.0000 0.0000 0.0000 262.600 5.0000 0.0000 0.0000 262.000 5.0000 0.0000 0.0000 11.030 79.570 7.638           11.160 10.830 79.760 79.350 13.152 10.465 2.687 421 696.6
DSCMET_421 2018-09-29 03:00:00 6230 184.400 5.0000 0.0000 0.0000 262.600 5.0000 0.0000 0.0000 262.000 5.0000 0.0000 0.0000 10.960 79.850 7.621           11.100 10.780 80.100 79.500 13.091 10.453 2.638 421 696.6
DSCMET_421 2018-09-29 02:55:00 6229 184.400 5.0000 0.0000 0.0000 262.600 5.0000 0.0000 0.0000 262.000 5.0000 0.0000 0.0000 11.030 79.710 7.664           11.150 10.780 79.900 79.480 13.152 10.484 2.669 421 696.6
DSCMET_421 2018-09-29 02:50:00 6228 184.600 5.0000 0.0000 0.0000 262.600 5.0000 0.0000 0.0000 262.000 5.0000 0.0000 0.0000 11.030 79.750 7.671           11.200 10.710 80.100 79.300 13.152 10.489 2.663 421 696.6
DSCMET_421 2018-09-29 02:45:00 6227 184.700 5.0000 0.0000 0.0000 262.600 5.0000 0.0000 0.0000 262.000 5.0000 0.0000 0.0000 11.060 79.440 7.643           11.180 10.880 79.750 79.100 13.179 10.469 2.710 421 696.6
DSCMET_421 2018-09-29 02:40:00 6226 184.700 5.0000 0.0000 0.0000 262.600 5.0000 0.0000 0.0000 261.900 5.0000 0.0000 0.0000 11.150 78.770 7.607           11.280 11.000 79.100 78.520 13.258 10.443 2.815 421 696.6
DSCMET_421 2018-09-29 02:35:00 6225 184.700 5.0000 0.0000 0.0000 262.600 5.0000 0.0000 0.0000 261.600 5.0000 0.0000 0.0000 11.230 78.520 7.638           11.340 10.980 78.780 78.300 13.328 10.465 2.863 421 696.6
DSCMET_421 2018-09-29 02:30:00 6224 184.900 5.0000 0.0000 0.0000 262.600 5.0000 0.0000 0.0000 261.800 5.0000 0.0000 0.0000 11.320 78.380 7.699           11.480 11.060 78.600 78.040 13.408 10.509 2.899 421 696.6
DSCMET_421 2018-09-29 02:25:00 6223 184.700 5.0000 0.0000 0.0000 262.600 5.0000 0.0000 0.0000 261.600 5.0000 0.0000 0.0000 11.250 78.840 7.717           11.380 11.140 79.100 78.350 13.346 10.522 2.824 421 696.6
DSCMET_421 2018-09-29 02:20:00 6222 184.600 5.0000 0.0000 0.0000 262.600 5.0000 0.0000 0.0000 261.600 5.0000 0.0000 0.0000 11.240 78.830 7.705           11.380 11.010 79.100 78.580 13.337 10.514 2.823 421 696.6
DSCMET_421 2018-09-29 02:15:00 6221 184.300 5.0000 0.0000 0.0000 262.400 5.0000 0.0000 0.0000 261.600 5.0000 0.0000 0.0000 11.280 78.790 7.737           11.460 11.180 79.180 78.220 13.372 10.536 2.836 421 696.6
DSCMET_421 2018-09-29 02:10:00 6220 184.400 5.0000 0.0000 0.0000 262.300 5.0000 0.0000 0.0000 261.600 5.0000 0.0000 0.0000 11.360 78.280 7.719           11.540 11.210 78.580 77.670 13.444 10.524 2.920 421 696.6
DSCMET_421 2018-09-29 02:05:00 6219 184.300 5.0000 0.0000 0.0000 262.300 5.0000 0.0000 0.0000 261.600 5.0000 0.0000 0.0000 11.530 77.320 7.703           11.710 11.360 77.870 76.740 13.596 10.512 3.084 421 696.6
DSCMET_421 2018-09-29 02:00:00 6218 184.300 5.0000 0.0000 0.0000 262.300 5.0000 0.0000 0.0000 261.600 5.0000 0.0000 0.0000 11.700 76.560 7.723           11.820 11.510 76.820 76.170 13.749 10.527 3.223 421 696.6
DSCMET_421 2018-09-29 01:55:00 6217 184.200 5.0000 0.0000 0.0000 262.300 5.0000 0.0000 0.0000 261.600 5.0000 0.0000 0.0000 11.820 75.890 7.711           11.950 11.590 76.310 75.510 13.859 10.518 3.341 421 696.6
DSCMET_421 2018-09-29 01:50:00 6216 184.500 5.0000 0.0000 0.0000 262.300 5.0000 0.0000 0.0000 261.600 5.0000 0.0000 0.0000 11.840 75.870 7.726           11.950 11.590 76.040 75.580 13.877 10.529 3.349 421 696.6
DSCMET_421 2018-09-29 01:45:00 6215 184.500 5.0000 0.0000 0.0000 262.300 5.0000 0.0000 0.0000 261.600 5.0000 0.0000 0.0000 11.900 75.740 7.759           12.000 11.790 76.110 75.310 13.932 10.552 3.380 421 696.6
DSCMET_421 2018-09-29 01:40:00 6214 184.600 5.0000 0.0000 0.0000 262.300 5.0000 0.0000 0.0000 261.400 5.0000 0.0000 0.0000 11.900 75.490 7.711           12.000 11.670 75.770 75.210 13.932 10.517 3.415 421 696.6
DSCMET_421 2018-09-29 01:35:00 6213 184.500 5.0000 0.0000 0.0000 262.300 5.0000 0.0000 0.0000 261.300 5.0000 0.0000 0.0000 11.930 75.290 7.701           12.050 11.770 75.670 74.680 13.960 10.510 3.449 421 696.6
DSCMET_421 2018-09-29 01:30:00 6212 184.500 5.0000 0.0000 0.0000 262.300 5.0000 0.0000 0.0000 261.300 5.0000 0.0000 0.0000 12.030 75.080 7.757           12.200 11.720 75.900 74.430 14.052 10.550 3.502 421 696.6
DSCMET_421 2018-09-29 01:25:00 6211 184.200 5.0000 0.0000 0.0000 262.300 5.0000 0.0000 0.0000 261.300 5.0000 0.0000 0.0000 11.970 75.070 7.697           12.170 11.700 75.770 74.730 13.997 10.507 3.489 421 696.6
DSCMET_421 2018-09-29 01:20:00 6210 183.900 5.0000 0.0000 0.0000 262.200 5.0000 0.0000 0.0000 261.300 5.0000 0.0000 0.0000 12.090 74.790 7.758           12.150 11.990 74.920 74.540 14.108 10.551 3.557 421 696.6
DSCMET_421 2018-09-29 01:15:00 6209 183.900 5.0000 0.0000 0.0000 262.200 5.0000 0.0000 0.0000 261.200 5.0000 0.0000 0.0000 12.050 74.640 7.690           12.130 11.930 74.890 73.980 14.071 10.502 3.568 421 696.6
DSCMET_421 2018-09-29 01:10:00 6208 183.800 5.0000 0.0000 0.0000 262.200 5.0000 0.0000 0.0000 261.200 5.0000 0.0000 0.0000 12.380 73.330 7.749           12.600 12.150 74.130 72.580 14.380 10.545 3.835 421 696.6
DSCMET_421 2018-09-29 01:05:00 6207 184.300 5.0000 0.0000 0.0000 262.000 5.0000 0.0000 0.0000 261.200 5.0000 0.0000 0.0000 12.150 74.410 7.741           12.350 11.930 74.990 73.540 14.164 10.539 3.625 421 696.6
DSCMET_421 2018-09-29 01:00:00 6206 184.400 5.0000 0.0000 0.0000 261.900 5.0000 0.0000 0.0000 261.200 5.0000 0.0000 0.0000 12.440 72.960 7.732           12.560 12.230 73.380 72.650 14.437 10.533 3.904 421 696.6
DSCMET_421 2018-09-29 00:55:00 6205 184.100 5.0000 0.0000 0.0000 261.900 5.0000 0.0000 0.0000 261.200 5.0000 0.0000 0.0000 12.560 72.440 7.743           12.680 12.460 72.750 72.120 14.551 10.541 4.010 421 696.6
DSCMET_421 2018-09-29 00:50:00 6204 184.300 5.0000 0.0000 0.0000 261.900 5.0000 0.0000 0.0000 261.000 5.0000 0.0000 0.0000 12.510 72.280 7.662           12.650 12.400 72.650 71.810 14.503 10.483 4.020 421 696.6
DSCMET_421 2018-09-29 00:45:00 6203 184.300 5.0000 0.0000 0.0000 261.900 5.0000 0.0000 0.0000 260.900 5.0000 0.0000 0.0000 12.650 72.020 7.744           12.780 12.480 72.580 71.470 14.637 10.542 4.095 421 696.6
DSCMET_421 2018-09-29 00:40:00 6202 184.100 5.0000 0.0000 0.0000 261.900 5.0000 0.0000 0.0000 260.900 5.0000 0.0000 0.0000 12.570 72.270 7.718           12.730 12.300 72.680 71.980 14.560 10.523 4.038 421 696.6
DSCMET_421 2018-09-29 00:35:00 6201 184.000 5.0000 0.0000 0.0000 261.900 5.0000 0.0000 0.0000 260.900 5.0000 0.0000 0.0000 12.700 71.600 7.707           12.960 12.480 72.430 70.770 14.685 10.515 4.171 421 696.6
DSCMET_421 2018-09-29 00:30:00 6200 183.900 5.0000 0.0000 0.0000 261.900 5.0000 0.0000 0.0000 260.900 5.0000 0.0000 0.0000 12.950 70.620 7.745           13.060 12.780 70.870 70.320 14.928 10.542 4.386 421 696.6
DSCMET_421 2018-09-29 00:25:00 6199 184.000 5.0000 0.0000 0.0000 261.900 5.0000 0.0000 0.0000 260.900 5.0000 0.0000 0.0000 12.910 70.710 7.725           13.040 12.810 71.080 70.330 14.889 10.528 4.361 421 696.6
DSCMET_421 2018-09-29 00:20:00 6198 184.000 5.0000 0.0000 0.0000 261.900 5.0000 0.0000 0.0000 260.900 5.0000 0.0000 0.0000 13.030 70.230 7.740           13.170 12.890 70.780 69.820 15.006 10.539 4.467 421 696.6
DSCMET_421 2018-09-29 00:15:00 6197 184.200 5.0000 0.0000 0.0000 261.900 5.0000 0.0000 0.0000 260.900 5.0000 0.0000 0.0000 13.050 70.110 7.734           13.160 12.830 70.500 69.900 15.025 10.534 4.491 421 696.6
DSCMET_421 2018-09-29 00:10:00 6196 184.200 5.0000 0.0000 0.0000 261.900 5.0000 0.0000 0.0000 260.900 5.0000 0.0000 0.0000 13.180 69.570 7.745           13.320 12.880 70.170 69.160 15.154 10.542 4.611 421 696.6
DSCMET_421 2018-09-29 00:05:00 6195 184.200 5.0000 0.0000 0.0000 261.900 5.0000 0.0000 0.0000 260.700 5.0000 0.0000 0.0000 13.250 69.200 7.734           13.540 13.040 69.850 68.270 15.223 10.534 4.689 421 696.6
DSCMET_421 2018-09-29 00:00:00 6194 184.300 5.0000 0.0000 0.0000 261.900 5.0000 0.0000 0.0000 260.600 5.0000 0.0000 0.0000 13.440 68.260 7.715           13.570 13.350 68.470 67.960 15.413 10.521 4.892 421 696.6
DSCMET_421 2018-09-28 23:55:00 6193 184.300 5.0000 0.0000 0.0000 261.800 5.0000 0.0000 0.0000 260.500 5.0000 0.0000 0.0000 13.410 68.130 7.659           13.550 13.340 68.390 67.680 15.383 10.480 4.903 421 696.6
DSCMET_421 2018-09-28 23:50:00 6192 184.300 5.0000 0.0000 0.0000 261.500 5.0000 0.0000 0.0000 260.500 5.0000 0.0000 0.0000 13.440 68.120 7.685           13.590 13.290 68.470 67.630 15.413 10.499 4.914 421 696.6
DSCMET_421 2018-09-28 23:45:00 6191 184.400 5.0000 0.0000 0.0000 261.500 5.0000 0.0000 0.0000 260.500 5.0000 0.0000 0.0000 13.520 67.560 7.641           13.670 13.300 67.820 67.260 15.494 10.467 5.026 421 696.6
DSCMET_421 2018-09-28 23:40:00 6190 184.300 5.0000 0.0000 0.0000 261.500 5.0000 0.0000 0.0000 260.500 5.0000 0.0000 0.0000 13.400 67.890 7.598           13.550 13.150 68.160 67.490 15.373 10.437 4.936 421 696.6
DSCMET_421 2018-09-28 23:35:00 6189 184.100 5.0000 0.0000 0.0000 261.500 5.0000 0.0000 0.0000 260.500 5.0000 0.0000 0.0000 13.460 67.850 7.646           13.570 13.340 68.140 67.590 15.433 10.471 4.962 421 696.6
DSCMET_421 2018-09-28 23:30:00 6188 183.900 5.0000 0.0000 0.0000 261.500 5.0000 0.0000 0.0000 260.500 5.0000 0.0000 0.0000 13.560 67.030 7.564           13.750 13.400 67.610 66.530 15.534 10.412 5.122 421 696.6
DSCMET_421 2018-09-28 23:25:00 6187 184.100 5.0000 0.0000 0.0000 261.500 5.0000 0.0000 0.0000 260.500 5.0000 0.0000 0.0000 13.730 66.420 7.592           13.830 13.500 66.790 65.880 15.707 10.432 5.274 421 696.6
DSCMET_421 2018-09-28 23:20:00 6186 184.100 5.0000 0.0000 0.0000 261.500 5.0000 0.0000 0.0000 260.400 5.0000 0.0000 0.0000 13.830 66.190 7.636           13.950 13.650 66.440 66.000 15.809 10.464 5.345 421 696.6
DSCMET_421 2018-09-28 23:15:00 6185 184.000 5.0000 0.0000 0.0000 261.500 5.0000 0.0000 0.0000 260.200 5.0000 0.0000 0.0000 13.930 65.730 7.629           14.030 13.860 65.990 65.410 15.912 10.459 5.453 421 696.6
DSCMET_421 2018-09-28 23:10:00 6184 184.200 5.0000 0.0000 0.0000 261.500 5.0000 0.0000 0.0000 260.200 5.0000 0.0000 0.0000 14.070 65.070 7.614           14.210 13.900 65.480 64.700 16.057 10.449 5.609 421 696.6
DSCMET_421 2018-09-28 23:05:00 6183 184.200 5.0000 0.0000 0.0000 261.300 5.0000 0.0000 0.0000 260.200 5.0000 0.0000 0.0000 14.140 64.710 7.600           14.280 14.010 65.260 64.350 16.130 10.438 5.692 421 696.6
DSCMET_421 2018-09-28 23:00:00 6182 184.000 5.0000 0.0000 0.0000 261.200 5.0000 0.0000 0.0000 260.200 5.0000 0.0000 0.0000 14.100 64.660 7.550           14.380 13.830 65.180 64.050 16.089 10.403 5.686 421 696.6
DSCMET_421 2018-09-28 22:55:00 6181 184.200 5.0000 0.0000 0.0000 261.200 5.0000 0.0000 0.0000 260.200 5.0000 0.0000 0.0000 14.180 64.380 7.563           14.330 14.080 64.700 63.890 16.172 10.412 5.761 421 696.6
DSCMET_421 2018-09-28 22:50:00 6180 183.800 5.0000 0.0000 0.0000 261.300 5.0000 0.0000 0.0000 260.200 5.0000 0.0000 0.0000 14.290 64.260 7.640           14.460 14.080 64.960 63.530 16.288 10.467 5.821 421 696.6
DSCMET_421 2018-09-28 22:45:00 6179 184.000 5.0000 0.0000 0.0000 261.200 5.0000 0.0000 0.0000 260.200 5.0000 0.0000 0.0000 14.520 63.070 7.584           14.710 14.160 63.700 62.490 16.532 10.427 6.105 421 696.6
DSCMET_421 2018-09-28 22:40:00 6178 184.000 5.0000 0.0000 0.0000 261.200 5.0000 0.0000 0.0000 260.200 5.0000 0.0000 0.0000 14.500 63.100 7.572           14.660 14.220 63.380 62.590 16.511 10.418 6.092 421 696.6
DSCMET_421 2018-09-28 22:35:00 6177 183.700 5.0000 0.0000 0.0000 261.200 5.0000 0.0000 0.0000 260.200 5.0000 0.0000 0.0000 14.500 62.950 7.537           14.620 14.340 63.220 62.490 16.511 10.393 6.117 421 696.6
DSCMET_421 2018-09-28 22:30:00 6176 183.800 5.0000 0.0000 0.0000 261.200 5.0000 0.0000 0.0000 260.200 5.0000 0.0000 0.0000 14.640 62.420 7.546           14.720 14.460 62.720 62.010 16.661 10.400 6.261 421 696.6
DSCMET_421 2018-09-28 22:25:00 6175 183.600 5.0000 0.0000 0.0000 261.200 5.0000 0.0000 0.0000 260.200 5.0000 0.0000 0.0000 14.760 62.150 7.596           14.850 14.640 62.440 61.920 16.790 10.435 6.355 421 696.6
DSCMET_421 2018-09-28 22:20:00 6174 183.600 5.0000 0.0000 0.0000 261.200 5.0000 0.0000 0.0000 260.200 5.0000 0.0000 0.0000 14.840 61.250 7.458           14.970 14.670 61.760 60.790 16.877 10.337 6.540 421 696.6
DSCMET_421 2018-09-28 22:15:00 6173 184.100 5.0000 0.0000 0.0000 261.200 5.0000 0.0000 0.0000 260.200 5.0000 0.0000 0.0000 14.930 61.100 7.507           15.130 14.700 61.540 60.760 16.975 10.372 6.603 421 696.6
DSCMET_421 2018-09-28 22:10:00 6172 184.000 5.0000 0.0000 0.0000 261.100 5.0000 0.0000 0.0000 259.800 5.0000 0.0000 0.0000 15.030 60.750 7.517           15.150 14.830 61.010 60.490 17.085 10.379 6.706 421 696.6
DSCMET_421 2018-09-28 22:05:00 6171 184.000 5.0000 0.0000 0.0000 261.100 5.0000 0.0000 0.0000 259.800 5.0000 0.0000 0.0000 15.120 60.240 7.478           15.320 14.770 60.840 59.750 17.184 10.352 6.832 421 696.6
DSCMET_421 2018-09-28 22:00:00 6170 184.000 5.0000 0.0000 0.0000 261.100 5.0000 0.0000 0.0000 259.800 5.0000 0.0000 0.0000 15.350 59.560 7.528           15.460 15.130 59.710 59.360 17.440 10.387 7.053 421 696.6
DSCMET_421 2018-09-28 21:55:00 6169 184.100 5.0000 0.0000 0.0000 261.100 5.0000 0.0000 0.0000 259.800 5.0000 0.0000 0.0000 15.490 59.130 7.554           15.630 15.360 59.690 58.800 17.597 10.405 7.192 421 696.6
DSCMET_421 2018-09-28 21:50:00 6168 184.000 5.0000 0.0000 0.0000 260.800 5.0000 0.0000 0.0000 259.800 5.0000 0.0000 0.0000 15.480 59.250 7.574           15.690 15.250 59.580 58.710 17.586 10.420 7.166 421 696.6
DSCMET_421 2018-09-28 21:45:00 6167 184.000 5.0000 0.0000 0.0000 260.800 5.0000 0.0000 0.0000 259.700 5.0000 0.0000 0.0000 15.670 58.670 7.608           15.860 15.410 59.190 57.900 17.801 10.444 7.357 421 696.6
DSCMET_421 2018-09-28 21:40:00 6166 183.900 5.0000 0.0000 0.0000 260.800 5.0000 0.0000 0.0000 259.600 5.0000 0.0000 0.0000 15.750 58.110 7.543           15.870 15.560 58.530 57.750 17.893 10.398 7.495 421 696.6
DSCMET_421 2018-09-28 21:35:00 6165 184.100 5.0000 0.0000 0.0000 260.800 5.0000 0.0000 0.0000 259.500 5.0000 0.0000 0.0000 15.980 57.090 7.499           16.210 15.670 57.720 56.500 18.158 10.366 7.792 421 696.6
DSCMET_421 2018-09-28 21:30:00 6164 183.600 5.0000 0.0000 0.0000 260.900 5.0000 0.0000 0.0000 259.500 5.0000 0.0000 0.0000 16.040 56.800 7.480           16.170 15.870 57.070 56.470 18.228 10.353 7.874 421 696.6
DSCMET_421 2018-09-28 21:25:00 6163 183.900 5.0000 0.0000 0.0000 261.000 5.0000 0.0000 0.0000 259.500 5.0000 0.0000 0.0000 16.340 55.650 7.461           16.540 15.840 56.550 55.060 18.580 10.340 8.240 421 696.6
DSCMET_421 2018-09-28 21:20:00 6162 184.200 5.0000 0.0000 0.0000 261.100 5.0000 0.0000 0.0000 259.500 5.0000 0.0000 0.0000 16.410 55.710 7.542           16.580 16.290 56.100 55.220 18.663 10.397 8.266 421 696.6
DSCMET_421 2018-09-28 21:15:00 6161 184.200 5.0000 0.0000 0.0000 261.000 5.0000 0.0000 0.0000 259.400 5.0000 0.0000 0.0000 16.390 55.580 7.489           16.550 16.090 56.150 55.110 18.639 10.360 8.279 421 696.6
DSCMET_421 2018-09-28 21:10:00 6160 183.800 5.0000 0.0000 0.0000 260.800 5.0000 0.0000 0.0000 259.400 5.0000 0.0000 0.0000 16.420 55.880 7.596           16.530 16.300 56.620 54.790 18.675 10.435 8.239 421 696.6
DSCMET_421 2018-09-28 21:05:00 6159 183.800 5.0000 0.0000 0.0000 260.800 5.0000 0.0000 0.0000 259.400 5.0000 0.0000 0.0000 16.560 55.050 7.507           16.710 16.370 55.320 54.890 18.842 10.372 8.469 421 696.6
DSCMET_421 2018-09-28 21:00:00 6158 184.000 5.0000 0.0000 0.0000 260.800 5.0000 0.0000 0.0000 259.400 5.0000 0.0000 0.0000 16.450 55.340 7.482           16.650 16.220 55.620 54.970 18.710 10.354 8.356 421 696.6
DSCMET_421 2018-09-28 20:55:00 6157 183.800 5.0000 0.0000 0.0000 260.800 5.0000 0.0000 0.0000 259.200 5.0000 0.0000 0.0000 16.530 54.910 7.442           16.700 16.380 55.170 54.410 18.806 10.326 8.480 421 696.6
DSCMET_421 2018-09-28 20:50:00 6156 183.800 5.0000 0.0000 0.0000 260.800 5.0000 0.0000 0.0000 259.100 5.0000 0.0000 0.0000 16.710 54.420 7.478           16.830 16.450 54.670 54.190 19.022 10.352 8.670 421 696.6
DSCMET_421 2018-09-28 20:45:00 6155 183.900 5.0000 0.0000 0.0000 260.700 5.0000 0.0000 0.0000 259.100 5.0000 0.0000 0.0000 16.900 54.090 7.566           17.090 16.660 54.470 53.480 19.253 10.414 8.839 421 696.6
DSCMET_421 2018-09-28 20:40:00 6154 184.100 5.0000 0.0000 0.0000 260.700 5.0000 0.0000 0.0000 259.100 5.0000 0.0000 0.0000 17.200 53.410 7.659           17.410 16.930 54.060 52.500 19.622 10.480 9.142 421 696.6
DSCMET_421 2018-09-28 20:35:00 6153 184.100 5.0000 0.0000 0.0000 260.700 5.0000 0.0000 0.0000 259.100 5.0000 0.0000 0.0000 17.490 51.660 7.440           17.790 17.240 52.300 50.590 19.985 10.324 9.661 421 696.6
DSCMET_421 2018-09-28 20:30:00 6152 183.900 5.0000 0.0000 0.0000 260.500 5.0000 0.0000 0.0000 259.100 5.0000 0.0000 0.0000 17.750 50.430 7.327           17.950 17.420 51.150 49.670 20.316 10.245 10.070 421 696.6
DSCMET_421 2018-09-28 20:25:00 6151 183.800 5.0000 0.0000 0.0000 260.400 5.0000 0.0000 0.0000 259.100 5.0000 0.0000 0.0000 17.450 51.420 7.335           17.590 17.170 51.860 50.850 19.935 10.250 9.684 421 696.6
DSCMET_421 2018-09-28 20:20:00 6150 184.100 5.0000 0.0000 0.0000 260.400 5.0000 0.0000 0.0000 259.000 5.0000 0.0000 0.0000 17.590 50.890 7.312           17.750 17.320 51.550 50.240 20.112 10.235 9.877 421 696.6
DSCMET_421 2018-09-28 20:15:00 6149 184.100 5.0000 0.0000 0.0000 260.400 5.0000 0.0000 0.0000 258.800 5.0000 0.0000 0.0000 17.700 50.690 7.356           17.950 17.570 51.030 50.290 20.252 10.266 9.986 421 696.6
DSCMET_421 2018-09-28 20:10:00 6148 183.900 5.0000 0.0000 0.0000 260.400 5.0000 0.0000 0.0000 258.800 5.0000 0.0000 0.0000 18.020 50.000 7.450           18.380 17.770 50.470 48.870 20.664 10.332 10.332 421 696.6
DSCMET_421 2018-09-28 20:05:00 6147 184.000 5.0000 0.0000 0.0000 260.300 5.0000 0.0000 0.0000 258.800 5.0000 0.0000 0.0000 18.260 49.250 7.450           18.380 18.100 49.690 48.890 20.978 10.331 10.646 421 696.6
DSCMET_421 2018-09-28 20:00:00 6146 184.100 5.0000 0.0000 0.0000 260.400 5.0000 0.0000 0.0000 258.700 5.0000 0.0000 0.0000 18.480 48.360 7.385           18.660 18.130 48.740 48.090 21.269 10.286 10.983 421 696.6
DSCMET_421 2018-09-28 19:55:00 6145 183.900 5.0000 0.0000 0.0000 260.400 5.0000 0.0000 0.0000 258.700 5.0000 0.0000 0.0000 18.640 47.950 7.407           18.740 18.560 48.360 47.210 21.483 10.301 11.182 421 696.6
DSCMET_421 2018-09-28 19:50:00 6144 183.800 5.0000 0.0000 0.0000 260.300 5.0000 0.0000 0.0000 258.700 5.0000 0.0000 0.0000 18.700 46.820 7.113           18.840 18.560 47.400 46.450 21.564 10.096 11.468 421 696.6
DSCMET_421 2018-09-28 19:45:00 6143 183.800 5.0000 0.0000 0.0000 260.400 5.0000 0.0000 0.0000 258.700 5.0000 0.0000 0.0000 18.950 45.890 7.048           19.170 18.750 46.330 45.550 21.903 10.051 11.852 421 696.6
DSCMET_421 2018-09-28 19:40:00 6142 183.600 5.0000 0.0000 0.0000 260.300 5.0000 0.0000 0.0000 258.700 5.0000 0.0000 0.0000 19.200 46.020 7.317           19.370 19.050 47.090 44.970 22.247 10.238 12.009 421 696.6
DSCMET_421 2018-09-28 19:35:00 6141 183.400 5.0000 0.0000 0.0000 260.100 5.0000 0.0000 0.0000 258.700 5.0000 0.0000 0.0000 19.210 45.640 7.205           19.410 18.950 46.900 44.810 22.261 10.160 12.101 421 696.6
DSCMET_421 2018-09-28 19:30:00 6140 183.500 5.0000 0.0000 0.0000 260.100 5.0000 0.0000 0.0000 258.700 5.0000 0.0000 0.0000 19.240 45.600 7.220           19.380 19.050 46.530 44.820 22.303 10.170 12.133 421 696.6
DSCMET_421 2018-09-28 19:25:00 6139 183.600 5.0000 0.0000 0.0000 260.000 5.0000 0.0000 0.0000 258.700 5.0000 0.0000 0.0000 19.480 45.390 7.370           19.680 19.150 47.270 44.650 22.638 10.275 12.363 421 696.6
DSCMET_421 2018-09-28 19:20:00 6138 183.700 5.0000 0.0000 0.0000 260.000 5.0000 0.0000 0.0000 258.600 5.0000 0.0000 0.0000 19.480 45.150 7.293           19.720 19.330 45.500 44.690 22.638 10.221 12.417 421 696.6
DSCMET_421 2018-09-28 19:15:00 6137 183.600 5.0000 0.0000 0.0000 260.000 5.0000 0.0000 0.0000 258.500 5.0000 0.0000 0.0000 19.600 45.130 7.395           19.760 19.510 45.650 44.870 22.808 10.293 12.515 421 696.6
DSCMET_421 2018-09-28 19:10:00 6136 183.700 5.0000 0.0000 0.0000 260.000 5.0000 0.0000 0.0000 258.300 5.0000 0.0000 0.0000 19.770 44.500 7.344           19.940 19.560 45.220 43.940 23.049 10.257 12.792 421 696.6
DSCMET_421 2018-09-28 19:05:00 6135 183.600 5.0000 0.0000 0.0000 260.000 5.0000 0.0000 0.0000 258.300 5.0000 0.0000 0.0000 20.040 43.460 7.243           20.250 19.770 43.740 43.110 23.438 10.186 13.252 421 696.6
DSCMET_421 2018-09-28 19:00:00 6134 183.700 5.0000 0.0000 0.0000 260.000 5.0000 0.0000 0.0000 258.300 5.0000 0.0000 0.0000 20.140 42.950 7.161           20.320 19.850 43.290 42.590 23.584 10.129 13.454 421 696.6
DSCMET_421 2018-09-28 18:55:00 6133 183.600 5.0000 0.0000 0.0000 260.000 5.0000 0.0000 0.0000 258.300 5.0000 0.0000 0.0000 20.240 43.150 7.319           20.350 20.110 44.400 42.480 23.730 10.239 13.490 421 696.6
DSCMET_421 2018-09-28 18:50:00 6132 183.600 5.0000 0.0000 0.0000 259.900 5.0000 0.0000 0.0000 258.200 5.0000 0.0000 0.0000 20.500 42.170 7.218           20.710 20.250 43.140 41.230 24.114 10.169 13.945 421 696.6
DSCMET_421 2018-09-28 18:45:00 6131 183.600 5.0000 0.0000 0.0000 259.900 5.0000 0.0000 0.0000 258.300 5.0000 0.0000 0.0000 20.970 40.740 7.137           21.190 20.760 41.530 39.740 24.821 10.112 14.709 421 696.6
DSCMET_421 2018-09-28 18:40:00 6130 183.600 5.0000 0.0000 0.0000 259.900 5.0000 0.0000 0.0000 258.000 5.0000 0.0000 0.0000 21.060 40.000 6.950           21.340 20.760 40.470 39.550 24.959 9.984 14.975 421 696.6
DSCMET_421 2018-09-28 18:35:00 6129 183.800 5.0000 0.0000 0.0000 259.900 5.0000 0.0000 0.0000 257.900 5.0000 0.0000 0.0000 21.400 38.890 6.844           21.520 21.180 39.500 38.460 25.485 9.911 15.574 421 696.6
DSCMET_421 2018-09-28 18:30:00 6128 184.000 5.0000 0.0000 0.0000 259.900 5.0000 0.0000 0.0000 257.900 5.0000 0.0000 0.0000 21.440 38.730 6.819           21.650 21.150 40.000 38.240 25.547 9.894 15.653 421 696.6
DSCMET_421 2018-09-28 18:25:00 6127 183.700 5.0000 0.0000 0.0000 259.600 5.0000 0.0000 0.0000 257.900 5.0000 0.0000 0.0000 21.500 39.020 6.981           21.960 21.330 39.700 38.570 25.641 10.005 15.636 421 696.6
DSCMET_421 2018-09-28 18:20:00 6126 183.600 5.0000 0.0000 0.0000 259.600 5.0000 0.0000 0.0000 257.900 5.0000 0.0000 0.0000 22.090 37.050 6.752           22.420 21.730 38.370 35.750 26.582 9.848 16.733 421 696.6
DSCMET_421 2018-09-28 18:15:00 6125 183.700 5.0000 0.0000 0.0000 259.600 5.0000 0.0000 0.0000 257.900 5.0000 0.0000 0.0000 22.180 37.130 6.863           22.550 21.860 38.250 35.870 26.728 9.924 16.804 421 696.6
DSCMET_421 2018-09-28 18:10:00 6124 183.700 5.0000 0.0000 0.0000 259.400 5.0000 0.0000 0.0000 257.700 5.0000 0.0000 0.0000 22.380 35.960 6.574           22.650 22.120 36.480 35.150 27.055 9.729 17.326 421 696.6
DSCMET_421 2018-09-28 18:05:00 6123 183.800 5.0000 0.0000 0.0000 259.200 5.0000 0.0000 0.0000 257.500 5.0000 0.0000 0.0000 22.700 34.920 6.430           22.910 22.560 35.400 33.860 27.585 9.633 17.953 421 696.6
DSCMET_421 2018-09-28 18:00:00 6122 183.700 5.0000 0.0000 0.0000 259.200 5.0000 0.0000 0.0000 257.500 5.0000 0.0000 0.0000 23.030 34.540 6.561           23.420 22.830 35.370 33.880 28.142 9.720 18.422 421 696.6
DSCMET_421 2018-09-28 17:55:00 6121 184.000 5.0000 0.0000 0.0000 259.200 5.0000 0.0000 0.0000 257.500 5.0000 0.0000 0.0000 23.390 34.060 6.674           23.570 23.160 34.290 33.690 28.760 9.796 18.965 421 696.6
DSCMET_421 2018-09-28 17:50:00 6120 184.000 5.0000 0.0000 0.0000 259.000 5.0000 0.0000 0.0000 257.500 5.0000 0.0000 0.0000 23.620 32.470 6.182           23.800 23.320 33.870 31.700 29.162 9.469 19.693 421 696.6
DSCMET_421 2018-09-28 17:45:00 6119 184.500 5.0000 0.0000 0.0000 258.800 5.0000 0.0000 0.0000 257.400 5.0000 0.0000 0.0000 24.080 30.750 5.795           24.360 23.800 31.900 29.780 29.979 9.219 20.760 421 696.6
DSCMET_421 2018-09-28 17:40:00 6118 183.800 5.0000 0.0000 0.0000 258.800 5.0000 0.0000 0.0000 257.300 5.0000 0.0000 0.0000 24.540 29.530 5.608           24.770 24.360 30.040 29.050 30.816 9.100 21.716 421 696.6
DSCMET_421 2018-09-28 17:35:00 6117 184.300 5.0000 0.0000 0.0000 258.800 5.0000 0.0000 0.0000 257.200 5.0000 0.0000 0.0000 24.620 29.290 5.560           25.050 24.180 30.220 27.370 30.964 9.069 21.895 421 696.6
DSCMET_421 2018-09-28 17:30:00 6116 184.100 5.0000 0.0000 0.0000 258.800 5.0000 0.0000 0.0000 257.200 5.0000 0.0000 0.0000 25.130 27.850 5.272           25.330 24.710 28.350 27.270 31.920 8.890 23.030 421 696.6
DSCMET_421 2018-09-28 17:25:00 6115 184.300 5.0000 0.0000 0.0000 258.800 5.0000 0.0000 0.0000 257.200 5.0000 0.0000 0.0000 25.420 27.010 5.080           25.660 25.230 27.640 25.900 32.475 8.771 23.703 421 696.6
DSCMET_421 2018-09-28 17:20:00 6114 184.300 5.0000 0.0000 0.0000 258.800 5.0000 0.0000 0.0000 257.100 5.0000 0.0000 0.0000 25.770 25.820 4.732           26.040 25.600 26.490 25.300 33.156 8.561 24.595 421 696.6
DSCMET_421 2018-09-28 17:15:00 6113 184.400 5.0000 0.0000 0.0000 258.800 5.0000 0.0000 0.0000 257.100 5.0000 0.0000 0.0000 26.210 25.490 4.920           26.720 25.860 26.380 24.490 34.029 8.674 25.355 421 696.6
DSCMET_421 2018-09-28 17:10:00 6112 184.100 5.0000 0.0000 0.0000 258.800 5.0000 0.0000 0.0000 257.100 5.0000 0.0000 0.0000 26.600 25.340 5.165           27.030 26.220 25.850 24.650 34.821 8.824 25.997 421 696.6
DSCMET_421 2018-09-28 17:05:00 6111 183.900 5.0000 0.0000 0.0000 258.800 5.0000 0.0000 0.0000 257.100 5.0000 0.0000 0.0000 27.030 24.420 4.997           27.350 26.820 25.020 23.940 35.711 8.721 26.991 421 696.6
DSCMET_421 2018-09-28 17:00:00 6110 183.900 5.0000 0.0000 0.0000 258.800 5.0000 0.0000 0.0000 257.100 5.0000 0.0000 0.0000 27.410 23.350 4.674           27.890 26.880 24.150 22.150 36.515 8.526 27.989 421 696.6
DSCMET_421 2018-09-28 16:55:00 6109 184.200 5.0000 0.0000 0.0000 258.800 5.0000 0.0000 0.0000 257.100 5.0000 0.0000 0.0000 27.810 21.820 4.041           27.990 27.680 22.300 21.250 37.378 8.156 29.222 421 696.6
DSCMET_421 2018-09-28 16:50:00 6108 184.300 5.0000 0.0000 0.0000 259.100 5.0000 0.0000 0.0000 257.100 5.0000 0.0000 0.0000 28.330 20.530 3.606           28.650 27.790 21.370 20.060 38.526 7.909 30.617 421 696.6
DSCMET_421 2018-09-28 16:45:00 6107 183.800 5.0000 0.0000 0.0000 259.100 5.0000 0.0000 0.0000 257.100 5.0000 0.0000 0.0000 28.530 19.780 3.244           28.960 28.220 20.410 19.150 38.976 7.709 31.267 421 696.6
DSCMET_421 2018-09-28 16:40:00 6106 184.400 5.0000 0.0000 0.0000 258.800 5.0000 0.0000 0.0000 257.100 5.0000 0.0000 0.0000 28.810 18.840 2.786           29.230 28.350 19.850 17.890 39.613 7.463 32.150 421 696.6
DSCMET_421 2018-09-28 16:35:00 6105 184.400 5.0000 0.0000 0.0000 259.000 5.0000 0.0000 0.0000 257.100 5.0000 0.0000 0.0000 29.400 17.600 2.309           29.620 29.040 18.290 17.190 40.986 7.214 33.773 421 696.6
DSCMET_421 2018-09-28 16:30:00 6104 184.100 5.0000 0.0000 0.0000 259.000 5.0000 0.0000 0.0000 257.100 5.0000 0.0000 0.0000 29.570 17.140 2.075           29.970 29.280 17.740 16.480 41.389 7.094 34.295 421 696.6
DSCMET_421 2018-09-28 16:25:00 6103 184.300 5.0000 0.0000 0.0000 259.100 5.0000 0.0000 0.0000 257.100 5.0000 0.0000 0.0000 30.010 16.090 1.546           30.270 29.820 17.140 15.190 42.449 6.830 35.619 421 696.6
DSCMET_421 2018-09-28 16:20:00 6102 184.300 5.0000 0.0000 0.0000 259.100 5.0000 0.0000 0.0000 257.100 5.0000 0.0000 0.0000 29.900 16.140 1.501           30.250 29.670 16.570 15.620 42.182 6.808 35.374 421 696.6
DSCMET_421 2018-09-28 16:15:00 6101 184.300 5.0000 0.0000 0.0000 259.100 5.0000 0.0000 0.0000 257.100 5.0000 0.0000 0.0000 30.620 16.010 1.963           31.160 30.050 17.870 14.540 43.957 7.037 36.919 421 696.6
DSCMET_421 2018-09-28 16:10:00 6100 184.200 5.0000 0.0000 0.0000 259.100 5.0000 0.0000 0.0000 257.100 5.0000 0.0000 0.0000 31.020 14.490 0.893           31.200 30.630 17.160 12.970 44.970 6.516 38.454 421 696.6
DSCMET_421 2018-09-28 16:05:00 6099 184.700 5.0000 0.0000 0.0000 259.100 5.0000 0.0000 0.0000 257.100 5.0000 0.0000 0.0000 30.990 14.380 0.764           31.200 30.780 15.040 13.320 44.894 6.456 38.438 421 696.6
DSCMET_421 2018-09-28 16:00:00 6098 184.900 5.0000 0.0000 0.0000 258.900 5.0000 0.0000 0.0000 257.100 5.0000 0.0000 0.0000 30.920 15.400 1.660           31.300 30.630 16.300 13.950 44.715 6.886 37.829 421 696.6
DSCMET_421 2018-09-28 15:55:00 6097 184.800 5.0000 0.0000 0.0000 259.100 5.0000 0.0000 0.0000 257.100 5.0000 0.0000 0.0000 31.380 14.500 1.186           31.600 31.200 14.980 14.000 45.900 6.656 39.245 421 696.6
DSCMET_421 2018-09-28 15:50:00 6096 184.900 5.0000 0.0000 0.0000 259.100 5.0000 0.0000 0.0000 257.100 5.0000 0.0000 0.0000 31.410 14.310 1.027           31.560 31.300 17.080 13.520 45.978 6.580 39.399 421 696.6
DSCMET_421 2018-09-28 15:45:00 6095 184.800 5.0000 0.0000 0.0000 259.100 5.0000 0.0000 0.0000 257.100 5.0000 0.0000 0.0000 31.500 14.480 1.261           31.730 31.250 15.550 13.040 46.214 6.692 39.522 421 696.6
DSCMET_421 2018-09-28 15:40:00 6094 185.000 5.0000 0.0000 0.0000 259.100 5.0000 0.0000 0.0000 257.100 5.0000 0.0000 0.0000 31.470 13.800 0.572           31.640 31.160 15.260 12.840 46.135 6.367 39.769 421 696.6
DSCMET_421 2018-09-28 15:35:00 6093 185.000 5.0000 0.0000 0.0000 259.100 5.0000 0.0000 0.0000 257.100 5.0000 0.0000 0.0000 31.460 13.030 -0.226           31.580 31.310 13.850 12.090 46.109 6.008 40.101 421 696.6
DSCMET_421 2018-09-28 15:30:00 6092 184.700 5.0000 0.0000 0.0000 259.100 5.0000 0.0000 0.0000 257.100 5.0000 0.0000 0.0000 31.450 14.470 1.212           31.660 31.230 16.500 12.440 46.083 6.668 39.415 421 696.6
DSCMET_421 2018-09-28 15:25:00 6091 184.800 5.0000 0.0000 0.0000 259.100 5.0000 0.0000 0.0000 257.200 5.0000 0.0000 0.0000 31.660 14.290 1.204           31.820 31.460 17.190 13.450 46.635 6.664 39.971 421 696.6
DSCMET_421 2018-09-28 15:20:00 6090 184.900 5.0000 0.0000 0.0000 259.100 5.0000 0.0000 0.0000 257.400 5.0000 0.0000 0.0000 31.630 13.800 0.697           31.870 31.320 15.020 12.260 46.556 6.425 40.131 421 696.6
DSCMET_421 2018-09-28 15:15:00 6089 184.900 5.0000 0.0000 0.0000 259.100 5.0000 0.0000 0.0000 257.300 5.0000 0.0000 0.0000 31.600 13.760 0.633           31.950 31.230 15.470 12.940 46.477 6.395 40.081 421 696.6
DSCMET_421 2018-09-28 15:10:00 6088 184.900 5.0000 0.0000 0.0000 259.100 5.0000 0.0000 0.0000 257.400 5.0000 0.0000 0.0000 31.700 13.800 0.752           31.920 31.420 15.620 12.290 46.741 6.450 40.290 421 696.6
DSCMET_421 2018-09-28 15:05:00 6087 185.000 5.0000 0.0000 0.0000 259.200 5.0000 0.0000 0.0000 257.400 5.0000 0.0000 0.0000 31.690 14.420 1.353           31.850 31.470 15.420 13.670 46.714 6.736 39.978 421 696.6
DSCMET_421 2018-09-28 15:00:00 6086 185.200 5.0000 0.0000 0.0000 259.300 5.0000 0.0000 0.0000 257.400 5.0000 0.0000 0.0000 31.560 14.280 1.116           31.690 31.440 15.340 13.420 46.371 6.622 39.749 421 696.6
DSCMET_421 2018-09-28 14:55:00 6085 184.600 5.0000 0.0000 0.0000 259.200 5.0000 0.0000 0.0000 257.400 5.0000 0.0000 0.0000 31.620 14.740 1.604           31.770 31.470 17.960 13.350 46.529 6.858 39.671 421 696.6
DSCMET_421 2018-09-28 14:50:00 6084 184.400 5.0000 0.0000 0.0000 259.300 5.0000 0.0000 0.0000 257.400 5.0000 0.0000 0.0000 31.860 15.080 2.111           32.200 31.610 15.840 13.860 47.166 7.113 40.053 421 696.6
DSCMET_421 2018-09-28 14:45:00 6083 185.100 5.0000 0.0000 0.0000 259.400 5.0000 0.0000 0.0000 257.400 5.0000 0.0000 0.0000 31.820 15.500 2.465           32.250 31.570 15.870 15.170 47.059 7.294 39.765 421 696.6
DSCMET_421 2018-09-28 14:40:00 6082 184.800 5.0000 0.0000 0.0000 259.300 5.0000 0.0000 0.0000 257.400 5.0000 0.0000 0.0000 31.850 14.930 1.964           32.050 31.660 15.590 14.130 47.139 7.038 40.101 421 696.6
DSCMET_421 2018-09-28 14:35:00 6081 185.300 5.0000 0.0000 0.0000 259.400 5.0000 0.0000 0.0000 257.400 5.0000 0.0000 0.0000 31.850 14.710 1.757           31.960 31.720 16.420 13.930 47.139 6.934 40.205 421 696.6
DSCMET_421 2018-09-28 14:30:00 6080 185.200 5.0000 0.0000 0.0000 259.200 5.0000 0.0000 0.0000 257.400 5.0000 0.0000 0.0000 31.940 15.640 2.686           32.060 31.820 16.710 14.860 47.380 7.410 39.969 421 696.6
DSCMET_421 2018-09-28 14:25:00 6079 185.200 5.0000 0.0000 0.0000 259.400 5.0000 0.0000 0.0000 257.500 5.0000 0.0000 0.0000 31.810 15.290 2.265           32.010 31.530 16.080 14.660 47.033 7.191 39.841 421 696.6
DSCMET_421 2018-09-28 14:20:00 6078 185.300 5.0000 0.0000 0.0000 259.400 5.0000 0.0000 0.0000 257.600 5.0000 0.0000 0.0000 31.910 15.360 2.409           32.140 31.710 15.740 14.530 47.299 7.265 40.034 421 696.6
DSCMET_421 2018-09-28 14:15:00 6077 185.200 5.0000 0.0000 0.0000 259.200 5.0000 0.0000 0.0000 257.600 5.0000 0.0000 0.0000 31.730 15.310 2.220           31.930 31.590 17.080 14.460 46.820 7.168 39.652 421 696.6
DSCMET_421 2018-09-28 14:10:00 6076 185.300 5.0000 0.0000 0.0000 259.100 5.0000 0.0000 0.0000 257.700 5.0000 0.0000 0.0000 31.810 14.820 1.829           32.040 31.590 15.390 14.230 47.033 6.970 40.062 421 696.6
DSCMET_421 2018-09-28 14:05:00 6075 185.500 5.0000 0.0000 0.0000 259.000 5.0000 0.0000 0.0000 257.500 5.0000 0.0000 0.0000 31.630 15.140 1.985           31.880 31.360 16.470 13.820 46.556 7.049 39.507 421 696.6
DSCMET_421 2018-09-28 14:00:00 6074 185.600 5.0000 0.0000 0.0000 258.800 5.0000 0.0000 0.0000 257.400 5.0000 0.0000 0.0000 31.780 14.860 1.843           32.190 31.380 15.950 14.350 46.953 6.977 39.976 421 696.6
DSCMET_421 2018-09-28 13:55:00 6073 185.800 5.0000 0.0000 0.0000 258.800 5.0000 0.0000 0.0000 257.500 5.0000 0.0000 0.0000 31.930 13.890 1.022           32.080 31.810 14.880 13.190 47.353 6.577 40.776 421 696.6
DSCMET_421 2018-09-28 13:50:00 6072 185.900 5.0000 0.0000 0.0000 258.700 5.0000 0.0000 0.0000 257.500 5.0000 0.0000 0.0000 31.840 14.310 1.365           32.320 31.580 14.860 13.530 47.112 6.742 40.371 421 696.6
DSCMET_421 2018-09-28 13:45:00 6071 186.100 5.0000 0.0000 0.0000 258.600 5.0000 0.0000 0.0000 257.700 5.0000 0.0000 0.0000 31.900 14.830 1.909           32.310 31.480 16.070 13.600 47.273 7.011 40.262 421 696.6
DSCMET_421 2018-09-28 13:40:00 6070 185.000 5.0000 0.0000 0.0000 258.900 5.0000 0.0000 0.0000 257.700 5.0000 0.0000 0.0000 31.610 15.290 2.107           31.930 31.350 15.720 14.880 46.503 7.110 39.393 421 696.6
DSCMET_421 2018-09-28 13:35:00 6069 184.000 5.0000 0.0000 0.0000 259.400 5.0000 0.0000 0.0000 257.800 5.0000 0.0000 0.0000 31.680 15.490 2.344           31.960 31.520 15.790 15.240 46.688 7.232 39.456 421 696.6
DSCMET_421 2018-09-28 13:30:00 6068 183.100 5.0000 0.0000 0.0000 259.700 5.0000 0.0000 0.0000 257.800 5.0000 0.0000 0.0000 31.820 15.390 2.365           32.010 31.650 16.780 14.780 47.059 7.242 39.817 421 696.6
DSCMET_421 2018-09-28 13:25:00 6067 185.900 5.0000 0.0000 0.0000 259.600 5.0000 0.0000 0.0000 257.800 5.0000 0.0000 0.0000 31.730 15.430 2.330           32.080 31.430 15.940 14.860 46.820 7.224 39.596 421 696.6
DSCMET_421 2018-09-28 13:20:00 6066 186.000 5.0000 0.0000 0.0000 259.600 5.0000 0.0000 0.0000 257.800 5.0000 0.0000 0.0000 31.710 15.460 2.341           31.960 31.420 15.840 15.010 46.767 7.230 39.537 421 696.6
DSCMET_421 2018-09-28 13:15:00 6065 185.900 5.0000 0.0000 0.0000 259.800 5.0000 0.0000 0.0000 257.800 5.0000 0.0000 0.0000 31.490 15.600 2.293           31.700 31.320 16.550 15.220 46.188 7.205 38.982 421 696.6
DSCMET_421 2018-09-28 13:10:00 6064 185.800 5.0000 0.0000 0.0000 259.500 5.0000 0.0000 0.0000 257.800 5.0000 0.0000 0.0000 31.340 15.690 2.254           31.630 31.050 16.530 15.090 45.796 7.185 38.611 421 696.6
DSCMET_421 2018-09-28 13:05:00 6063 185.600 5.0000 0.0000 0.0000 259.400 5.0000 0.0000 0.0000 257.800 5.0000 0.0000 0.0000 31.370 15.740 2.322           31.730 31.000 16.370 14.930 45.874 7.221 38.654 421 696.6
DSCMET_421 2018-09-28 13:00:00 6062 185.900 5.0000 0.0000 0.0000 259.800 5.0000 0.0000 0.0000 257.800 5.0000 0.0000 0.0000 31.020 15.900 2.185           31.170 30.840 16.720 15.130 44.970 7.150 37.820 421 696.6
DSCMET_421 2018-09-28 12:55:00 6061 185.200 5.0000 0.0000 0.0000 259.900 5.0000 0.0000 0.0000 257.800 5.0000 0.0000 0.0000 31.010 15.680 1.983           31.320 30.560 16.450 14.860 44.945 7.047 37.897 421 696.6
DSCMET_421 2018-09-28 12:50:00 6060 185.800 5.0000 0.0000 0.0000 260.000 5.0000 0.0000 0.0000 257.800 5.0000 0.0000 0.0000 30.930 15.430 1.695           31.150 30.770 16.020 14.460 44.741 6.903 37.837 421 696.6
DSCMET_421 2018-09-28 12:45:00 6059 186.000 5.0000 0.0000 0.0000 259.800 5.0000 0.0000 0.0000 257.900 5.0000 0.0000 0.0000 31.130 16.170 2.509           31.440 30.860 17.790 14.500 45.253 7.317 37.935 421 696.6
DSCMET_421 2018-09-28 12:40:00 6058 186.600 5.0000 0.0000 0.0000 260.100 5.0000 0.0000 0.0000 258.100 5.0000 0.0000 0.0000 31.160 17.090 3.312           31.570 30.820 19.750 15.590 45.330 7.747 37.583 421 696.6
DSCMET_421 2018-09-28 12:35:00 6057 186.800 5.0000 0.0000 0.0000 260.100 5.0000 0.0000 0.0000 258.100 5.0000 0.0000 0.0000 30.760 18.980 4.478           30.960 30.560 21.160 16.250 44.309 8.410 35.899 421 696.6
DSCMET_421 2018-09-28 12:30:00 6056 186.400 5.0000 0.0000 0.0000 260.400 5.0000 0.0000 0.0000 258.200 5.0000 0.0000 0.0000 30.620 20.530 5.488           31.010 30.230 22.130 18.020 43.957 9.024 34.932 421 696.6
DSCMET_421 2018-09-28 12:25:00 6055 186.400 5.0000 0.0000 0.0000 260.300 5.0000 0.0000 0.0000 258.100 5.0000 0.0000 0.0000 30.130 21.000 5.411           30.390 29.860 23.740 18.970 42.742 8.976 33.766 421 696.6
DSCMET_421 2018-09-28 12:20:00 6054 186.300 5.0000 0.0000 0.0000 260.700 5.0000 0.0000 0.0000 258.100 5.0000 0.0000 0.0000 30.010 21.640 5.744           30.150 29.870 22.470 21.090 42.449 9.186 33.263 421 696.6
DSCMET_421 2018-09-28 12:15:00 6053 186.200 5.0000 0.0000 0.0000 260.800 5.0000 0.0000 0.0000 258.300 5.0000 0.0000 0.0000 30.160 22.810 6.630           30.450 29.900 25.550 20.660 42.815 9.766 33.049 421 696.6
DSCMET_421 2018-09-28 12:10:00 6052 185.600 5.0000 0.0000 0.0000 260.800 5.0000 0.0000 0.0000 258.800 5.0000 0.0000 0.0000 30.190 22.860 6.687           30.510 29.850 25.220 20.960 42.889 9.804 33.085 421 696.6
DSCMET_421 2018-09-28 12:05:00 6051 185.800 5.0000 0.0000 0.0000 260.900 5.0000 0.0000 0.0000 259.000 5.0000 0.0000 0.0000 29.750 22.530 6.110           30.150 29.260 24.790 20.450 41.820 9.422 32.398 421 696.6
DSCMET_421 2018-09-28 12:00:00 6050 185.600 5.0000 0.0000 0.0000 260.800 5.0000 0.0000 0.0000 258.800 5.0000 0.0000 0.0000 29.220 23.010 5.974           29.340 29.040 23.890 22.090 40.563 9.334 31.230 421 696.6
DSCMET_421 2018-09-28 11:55:00 6049 185.600 5.0000 0.0000 0.0000 260.800 5.0000 0.0000 0.0000 258.400 5.0000 0.0000 0.0000 28.950 24.200 6.478           29.180 28.700 26.780 22.780 39.936 9.664 30.271 421 696.6
DSCMET_421 2018-09-28 11:50:00 6048 185.500 5.0000 0.0000 0.0000 261.100 5.0000 0.0000 0.0000 258.400 5.0000 0.0000 0.0000 29.060 24.270 6.612           29.310 28.750 26.540 22.620 40.190 9.754 30.436 421 696.6
DSCMET_421 2018-09-28 11:45:00 6047 185.000 5.0000 0.0000 0.0000 261.100 5.0000 0.0000 0.0000 258.400 5.0000 0.0000 0.0000 28.720 24.830 6.658           28.950 28.370 26.810 23.400 39.408 9.785 29.623 421 696.6
DSCMET_421 2018-09-28 11:40:00 6046 186.200 5.0000 0.0000 0.0000 261.100 5.0000 0.0000 0.0000 258.200 5.0000 0.0000 0.0000 28.090 24.860 6.145           28.580 27.770 26.500 23.180 37.993 9.445 28.548 421 696.6
DSCMET_421 2018-09-28 11:35:00 6045 185.400 5.0000 0.0000 0.0000 261.100 5.0000 0.0000 0.0000 258.100 5.0000 0.0000 0.0000 27.880 24.930 6.009           28.290 27.580 25.900 24.190 37.531 9.356 28.174 421 696.6
DSCMET_421 2018-09-28 11:30:00 6044 185.300 5.0000 0.0000 0.0000 260.800 5.0000 0.0000 0.0000 258.100 5.0000 0.0000 0.0000 27.540 25.310 5.941           27.910 27.080 27.410 23.710 36.794 9.312 27.481 421 696.6
DSCMET_421 2018-09-28 11:25:00 6043 185.400 5.0000 0.0000 0.0000 260.800 5.0000 0.0000 0.0000 258.200 5.0000 0.0000 0.0000 27.350 24.890 5.540           27.610 27.180 26.470 23.080 36.387 9.057 27.330 421 696.6
DSCMET_421 2018-09-28 11:20:00 6042 185.300 5.0000 0.0000 0.0000 260.800 5.0000 0.0000 0.0000 258.200 5.0000 0.0000 0.0000 27.110 25.290 5.567           27.300 26.840 27.430 24.150 35.879 9.074 26.805 421 696.6
DSCMET_421 2018-09-28 11:15:00 6041 185.000 5.0000 0.0000 0.0000 260.900 5.0000 0.0000 0.0000 258.400 5.0000 0.0000 0.0000 27.140 24.850 5.340           27.370 26.900 26.530 22.920 35.942 8.932 27.011 421 696.6
DSCMET_421 2018-09-28 11:10:00 6040 184.900 5.0000 0.0000 0.0000 261.200 5.0000 0.0000 0.0000 258.600 5.0000 0.0000 0.0000 27.180 27.330 6.748           27.450 26.960 29.220 25.030 36.027 9.846 26.181 421 696.6
DSCMET_421 2018-09-28 11:05:00 6039 184.800 5.0000 0.0000 0.0000 261.000 5.0000 0.0000 0.0000 258.800 5.0000 0.0000 0.0000 26.960 27.540 6.672           27.310 26.580 29.530 24.940 35.565 9.795 25.770 421 696.6
DSCMET_421 2018-09-28 11:00:00 6038 184.600 5.0000 0.0000 0.0000 261.400 5.0000 0.0000 0.0000 258.800 5.0000 0.0000 0.0000 26.720 28.320 6.873           27.140 26.350 29.970 25.720 35.067 9.931 25.136 421 696.6
DSCMET_421 2018-09-28 10:55:00 6037 184.500 5.0000 0.0000 0.0000 261.600 5.0000 0.0000 0.0000 258.600 5.0000 0.0000 0.0000 26.250 29.450 7.040           26.530 25.790 30.280 28.790 34.110 10.045 24.065 421 696.6
DSCMET_421 2018-09-28 10:50:00 6036 184.500 5.0000 0.0000 0.0000 261.600 5.0000 0.0000 0.0000 258.700 5.0000 0.0000 0.0000 25.820 31.070 7.450           26.040 25.620 32.260 29.190 33.254 10.332 22.922 421 696.6
DSCMET_421 2018-09-28 10:45:00 6035 184.600 5.0000 0.0000 0.0000 261.900 5.0000 0.0000 0.0000 258.600 5.0000 0.0000 0.0000 25.550 30.430 6.913           25.820 25.190 31.200 29.570 32.726 9.959 22.768 421 696.6
DSCMET_421 2018-09-28 10:40:00 6034 184.600 5.0000 0.0000 0.0000 261.900 5.0000 0.0000 0.0000 258.900 5.0000 0.0000 0.0000 25.280 31.720 7.285           25.790 24.830 33.000 30.120 32.206 10.216 21.990 421 696.6
DSCMET_421 2018-09-28 10:35:00 6033 184.600 5.0000 0.0000 0.0000 261.900 5.0000 0.0000 0.0000 259.200 5.0000 0.0000 0.0000 24.430 35.320 8.117           25.110 23.690 37.500 33.200 30.614 10.813 19.801 421 696.6
DSCMET_421 2018-09-28 10:30:00 6032 184.700 5.0000 0.0000 0.0000 262.200 5.0000 0.0000 0.0000 259.200 5.0000 0.0000 0.0000 24.660 35.900 8.559           25.020 24.150 37.270 34.940 31.038 11.143 19.895 421 696.6
DSCMET_421 2018-09-28 10:25:00 6031 184.700 5.0000 0.0000 0.0000 262.300 5.0000 0.0000 0.0000 259.200 5.0000 0.0000 0.0000 23.970 34.510 7.373           24.490 23.610 35.060 33.980 29.782 10.278 19.504 421 696.6
DSCMET_421 2018-09-28 10:20:00 6030 184.700 5.0000 0.0000 0.0000 262.300 5.0000 0.0000 0.0000 259.300 5.0000 0.0000 0.0000 23.590 36.390 7.815           23.760 23.450 38.430 34.850 29.109 10.593 18.516 421 696.6
DSCMET_421 2018-09-28 10:15:00 6029 184.400 5.0000 0.0000 0.0000 262.600 5.0000 0.0000 0.0000 259.300 5.0000 0.0000 0.0000 23.060 39.770 8.652           23.500 22.690 41.530 38.370 28.193 11.212 16.981 421 696.6
DSCMET_421 2018-09-28 10:10:00 6028 184.200 5.0000 0.0000 0.0000 262.600 5.0000 0.0000 0.0000 259.400 5.0000 0.0000 0.0000 23.240 38.620 8.379           23.470 22.930 39.610 37.870 28.501 11.007 17.494 421 696.6
DSCMET_421 2018-09-28 10:05:00 6027 184.100 5.0000 0.0000 0.0000 262.700 5.0000 0.0000 0.0000 259.300 5.0000 0.0000 0.0000 23.160 37.460 7.860           23.390 22.830 38.600 36.120 28.364 10.625 17.739 421 696.6
DSCMET_421 2018-09-28 10:00:00 6026 184.100 5.0000 0.0000 0.0000 262.700 5.0000 0.0000 0.0000 259.400 5.0000 0.0000 0.0000 22.900 37.410 7.610           23.360 22.640 38.710 36.500 27.922 10.445 17.476 421 696.6
DSCMET_421 2018-09-28 09:55:00 6025 184.100 5.0000 0.0000 0.0000 262.700 5.0000 0.0000 0.0000 259.900 5.0000 0.0000 0.0000 22.670 39.230 8.102           22.920 22.360 41.300 37.050 27.535 10.802 16.733 421 696.6
DSCMET_421 2018-09-28 09:50:00 6024 184.100 5.0000 0.0000 0.0000 262.700 5.0000 0.0000 0.0000 260.000 5.0000 0.0000 0.0000 22.230 41.110 8.398           22.590 21.770 42.440 40.420 26.809 11.021 15.788 421 696.6
DSCMET_421 2018-09-28 09:45:00 6023 183.900 5.0000 0.0000 0.0000 262.700 5.0000 0.0000 0.0000 260.100 5.0000 0.0000 0.0000 21.150 43.790 8.356           21.870 20.050 45.670 42.010 25.097 10.990 14.107 421 696.6
DSCMET_421 2018-09-28 09:40:00 6022 183.900 5.0000 0.0000 0.0000 262.900 5.0000 0.0000 0.0000 260.100 5.0000 0.0000 0.0000 20.260 45.630 8.156           20.500 20.040 46.800 43.460 23.759 10.841 12.918 421 696.6
DSCMET_421 2018-09-28 09:35:00 6021 183.900 5.0000 0.0000 0.0000 263.100 5.0000 0.0000 0.0000 260.300 5.0000 0.0000 0.0000 19.870 47.310 8.333           20.190 19.610 48.330 46.220 23.193 10.972 12.220 421 696.6
DSCMET_421 2018-09-28 09:30:00 6020 184.100 5.0000 0.0000 0.0000 263.200 5.0000 0.0000 0.0000 260.300 5.0000 0.0000 0.0000 19.800 46.540 8.028           19.950 19.420 48.720 44.780 23.092 10.747 12.345 421 696.6
DSCMET_421 2018-09-28 09:25:00 6019 184.000 5.0000 0.0000 0.0000 263.200 5.0000 0.0000 0.0000 260.800 5.0000 0.0000 0.0000 19.250 49.420 8.408           19.520 18.910 50.530 48.240 22.317 11.029 11.288 421 696.6
DSCMET_421 2018-09-28 09:20:00 6018 183.600 5.0000 0.0000 0.0000 263.200 5.0000 0.0000 0.0000 261.600 5.0000 0.0000 0.0000 18.920 51.350 8.670           19.170 18.700 52.460 50.150 21.862 11.226 10.636 421 696.6
DSCMET_421 2018-09-28 09:15:00 6017 183.400 5.0000 0.0000 0.0000 263.400 5.0000 0.0000 0.0000 262.200 5.0000 0.0000 0.0000 18.460 53.940 8.972           19.080 17.840 55.980 51.250 21.242 11.458 9.784 421 696.6
DSCMET_421 2018-09-28 09:10:00 6016 183.500 5.0000 0.0000 0.0000 263.600 5.0000 0.0000 0.0000 262.800 5.0000 0.0000 0.0000 18.020 55.530 8.993           18.460 17.370 58.380 53.480 20.664 11.475 9.189 421 696.6
DSCMET_421 2018-09-28 09:05:00 6015 183.700 5.0000 0.0000 0.0000 263.600 5.0000 0.0000 0.0000 262.700 5.0000 0.0000 0.0000 17.260 57.540 8.810           17.470 17.100 58.260 55.410 19.697 11.334 8.363 421 696.6
DSCMET_421 2018-09-28 09:00:00 6014 183.200 5.0000 0.0000 0.0000 263.600 5.0000 0.0000 0.0000 263.100 5.0000 0.0000 0.0000 16.720 58.470 8.542           17.050 16.390 61.550 56.170 19.034 11.129 7.905 421 696.6
DSCMET_421 2018-09-28 08:55:00 6013 182.700 5.0000 0.0000 0.0000 263.900 5.0000 0.0000 0.0000 263.200 5.0000 0.0000 0.0000 15.810 63.630 8.934           16.310 15.400 65.900 60.510 17.962 11.429 6.533 421 696.6
DSCMET_421 2018-09-28 08:50:00 6012 183.700 5.0000 0.0000 0.0000 263.900 5.0000 0.0000 0.0000 263.300 5.0000 0.0000 0.0000 15.290 65.160 8.793           15.580 15.050 67.480 62.650 17.373 11.320 6.053 421 696.6
DSCMET_421 2018-09-28 08:45:00 6011 183.400 5.0000 0.0000 0.0000 264.000 5.0000 0.0000 0.0000 263.300 5.0000 0.0000 0.0000 14.860 68.000 9.015           15.080 14.390 69.410 66.940 16.899 11.491 5.408 421 696.6
DSCMET_421 2018-09-28 08:40:00 6010 183.500 5.0000 0.0000 0.0000 264.000 5.0000 0.0000 0.0000 263.300 5.0000 0.0000 0.0000 14.200 71.210 9.066           14.600 13.940 73.450 68.930 16.193 11.531 4.662 421 696.6
DSCMET_421 2018-09-28 08:35:00 6009 183.500 5.0000 0.0000 0.0000 264.000 5.0000 0.0000 0.0000 263.500 5.0000 0.0000 0.0000 13.850 73.470 9.193           13.990 13.590 74.440 72.930 15.830 11.630 4.200 421 696.6
DSCMET_421 2018-09-28 08:30:00 6008 183.400 5.0000 0.0000 0.0000 264.000 5.0000 0.0000 0.0000 263.600 5.0000 0.0000 0.0000 13.500 75.960 9.349           13.810 13.110 76.670 74.640 15.473 11.754 3.720 421 696.6
DSCMET_421 2018-09-28 08:25:00 6007 183.800 5.0000 0.0000 0.0000 264.000 5.0000 0.0000 0.0000 263.700 5.0000 0.0000 0.0000 13.090 76.860 9.127           13.280 12.830 77.900 76.140 15.065 11.579 3.486 421 696.6
DSCMET_421 2018-09-28 08:20:00 6006 183.400 5.0000 0.0000 0.0000 264.000 5.0000 0.0000 0.0000 263.700 5.0000 0.0000 0.0000 12.680 78.590 9.059           12.830 12.530 79.150 78.300 14.666 11.526 3.140 421 696.6
DSCMET_421 2018-09-28 08:15:00 6005 183.400 5.0000 0.0000 0.0000 264.000 5.0000 0.0000 0.0000 263.500 5.0000 0.0000 0.0000 12.210 80.400 8.939           12.630 11.870 81.700 79.250 14.220 11.433 2.787 421 696.6
DSCMET_421 2018-09-28 08:10:00 6004 183.100 5.0000 0.0000 0.0000 264.000 5.0000 0.0000 0.0000 263.300 5.0000 0.0000 0.0000 12.020 80.400 8.754           12.370 11.740 81.800 79.070 14.043 11.291 2.752 421 696.6
DSCMET_421 2018-09-28 08:05:00 6003 183.100 5.0000 0.0000 0.0000 264.300 5.0000 0.0000 0.0000 263.300 5.0000 0.0000 0.0000 12.120 78.510 8.500           12.450 11.820 79.950 76.890 14.136 11.098 3.038 421 696.6
DSCMET_421 2018-09-28 08:00:00 6002 182.700 5.0000 0.0000 0.0000 264.300 5.0000 0.0000 0.0000 263.200 5.0000 0.0000 0.0000 11.730 79.990 8.396           11.940 11.490 81.600 79.020 13.777 11.020 2.757 421 696.6
DSCMET_421 2018-09-28 07:55:00 6001 182.900 5.0000 0.0000 0.0000 264.300 5.0000 0.0000 0.0000 263.200 5.0000 0.0000 0.0000 11.200 83.000 8.424           11.470 11.060 83.500 82.400 13.302 11.040 2.261 421 696.6
DSCMET_421 2018-09-28 07:50:00 6000 182.600 5.0000 0.0000 0.0000 264.300 5.0000 0.0000 0.0000 263.800 5.0000 0.0000 0.0000 11.130 82.300 8.230           11.310 10.890 83.100 81.800 13.240 10.897 2.343 421 696.6
DSCMET_421 2018-09-28 07:45:00 5999 182.500 5.0000 0.0000 0.0000 264.300 5.0000 0.0000 0.0000 264.000 5.0000 0.0000 0.0000 10.680 84.200 8.126           10.880 10.410 84.600 83.400 12.850 10.819 2.030 421 696.6
DSCMET_421 2018-09-28 07:40:00 5998 182.800 5.0000 0.0000 0.0000 264.300 5.0000 0.0000 0.0000 264.000 5.0000 0.0000 0.0000 10.140 87.200 8.110           10.580 9.700 88.700 84.800 12.394 10.808 1.586 421 696.6
DSCMET_421 2018-09-28 07:35:00 5997 182.900 5.0000 0.0000 0.0000 264.300 5.0000 0.0000 0.0000 264.000 5.0000 0.0000 0.0000 9.970 87.600 8.010           10.180 9.790 88.500 86.600 12.254 10.735 1.520 421 696.6
DSCMET_421 2018-09-28 07:30:00 5996 182.900 5.0000 0.0000 0.0000 264.300 5.0000 0.0000 0.0000 264.000 5.0000 0.0000 0.0000 10.110 86.700 7.996           10.230 9.910 87.500 86.400 12.370 10.724 1.645 421 696.6
DSCMET_421 2018-09-28 07:25:00 5995 183.000 5.0000 0.0000 0.0000 264.300 5.0000 0.0000 0.0000 264.000 5.0000 0.0000 0.0000 9.810 88.700 8.036           9.990 9.650 89.600 87.800 12.123 10.753 1.370 421 696.6
DSCMET_421 2018-09-28 07:20:00 5994 183.000 5.0000 0.0000 0.0000 264.300 5.0000 0.0000 0.0000 264.000 5.0000 0.0000 0.0000 9.610 89.300 7.938           9.760 9.510 90.000 88.500 11.962 10.682 1.280 421 696.6
DSCMET_421 2018-09-28 07:15:00 5993 182.900 5.0000 0.0000 0.0000 264.300 5.0000 0.0000 0.0000 263.800 5.0000 0.0000 0.0000 9.830 87.800 7.906           10.080 9.550 88.600 86.500 12.140 10.659 1.481 421 696.6
DSCMET_421 2018-09-28 07:10:00 5992 183.600 5.0000 0.0000 0.0000 264.300 5.0000 0.0000 0.0000 263.900 5.0000 0.0000 0.0000 10.100 86.700 7.987           10.240 9.880 87.600 86.200 12.361 10.717 1.644 421 696.6
DSCMET_421 2018-09-28 07:05:00 5991 183.600 5.0000 0.0000 0.0000 264.300 5.0000 0.0000 0.0000 264.000 5.0000 0.0000 0.0000 10.070 86.700 7.957           10.290 9.950 87.400 85.800 12.336 10.696 1.641 421 696.6
DSCMET_421 2018-09-28 07:00:00 5990 182.900 5.0000 0.0000 0.0000 264.300 5.0000 0.0000 0.0000 264.000 5.0000 0.0000 0.0000 10.120 86.600 7.989           10.230 9.910 87.400 86.300 12.378 10.719 1.659 421 696.6
DSCMET_421 2018-09-28 06:55:00 5989 182.600 5.0000 0.0000 0.0000 264.300 5.0000 0.0000 0.0000 264.000 5.0000 0.0000 0.0000 10.040 87.300 8.029           10.140 9.810 87.600 86.900 12.312 10.748 1.564 421 696.6
DSCMET_421 2018-09-28 06:50:00 5988 183.700 5.0000 0.0000 0.0000 264.300 5.0000 0.0000 0.0000 264.000 5.0000 0.0000 0.0000 10.050 87.100 8.005           10.140 9.880 87.500 86.600 12.320 10.731 1.589 421 696.6
DSCMET_421 2018-09-28 06:45:00 5987 183.900 5.0000 0.0000 0.0000 264.300 5.0000 0.0000 0.0000 264.000 5.0000 0.0000 0.0000 9.710 89.300 8.036           10.030 9.410 90.500 87.600 12.042 10.754 1.289 421 696.6
DSCMET_421 2018-09-28 06:40:00 5986 184.000 5.0000 0.0000 0.0000 264.300 5.0000 0.0000 0.0000 264.000 5.0000 0.0000 0.0000 9.810 88.600 8.019           9.960 9.550 89.600 88.200 12.123 10.741 1.382 421 696.6
DSCMET_421 2018-09-28 06:35:00 5985 183.800 5.0000 0.0000 0.0000 264.300 5.0000 0.0000 0.0000 264.000 5.0000 0.0000 0.0000 9.940 87.800 8.014           10.110 9.600 88.400 87.400 12.229 10.737 1.492 421 696.6
DSCMET_421 2018-09-28 06:30:00 5984 183.000 5.0000 0.0000 0.0000 264.300 5.0000 0.0000 0.0000 264.000 5.0000 0.0000 0.0000 10.060 87.600 8.099           10.180 9.980 87.800 87.100 12.328 10.799 1.529 421 696.6
DSCMET_421 2018-09-28 06:25:00 5983 183.800 5.0000 0.0000 0.0000 264.300 5.0000 0.0000 0.0000 264.000 5.0000 0.0000 0.0000 10.000 88.000 8.107           10.130 9.860 88.300 87.600 12.279 10.805 1.473 421 696.6
DSCMET_421 2018-09-28 06:20:00 5982 184.200 5.0000 0.0000 0.0000 264.300 5.0000 0.0000 0.0000 264.000 5.0000 0.0000 0.0000 10.040 87.800 8.113           10.130 9.960 88.200 87.600 12.312 10.810 1.502 421 696.6
DSCMET_421 2018-09-28 06:15:00 5981 184.400 5.0000 0.0000 0.0000 264.300 5.0000 0.0000 0.0000 264.000 5.0000 0.0000 0.0000 9.940 88.400 8.114           10.180 9.660 89.100 87.300 12.229 10.811 1.419 421 696.6
DSCMET_421 2018-09-28 06:10:00 5980 184.400 5.0000 0.0000 0.0000 264.300 5.0000 0.0000 0.0000 264.000 5.0000 0.0000 0.0000 9.850 89.100 8.142           9.980 9.710 89.600 88.800 12.156 10.831 1.325 421 696.6
DSCMET_421 2018-09-28 06:05:00 5979 184.400 5.0000 0.0000 0.0000 264.300 5.0000 0.0000 0.0000 264.000 5.0000 0.0000 0.0000 9.720 89.800 8.128           9.880 9.530 90.100 89.100 12.050 10.821 1.229 421 696.6
DSCMET_421 2018-09-28 06:00:00 5978 184.500 5.0000 0.0000 0.0000 264.300 5.0000 0.0000 0.0000 264.000 5.0000 0.0000 0.0000 9.880 89.100 8.171           10.030 9.590 89.600 88.500 12.180 10.853 1.328 421 696.6
DSCMET_421 2018-09-28 05:55:00 5977 184.600 5.0000 0.0000 0.0000 264.300 5.0000 0.0000 0.0000 264.000 5.0000 0.0000 0.0000 9.830 89.800 8.237           9.940 9.740 90.000 89.400 12.140 10.901 1.238 421 696.6
DSCMET_421 2018-09-28 05:50:00 5976 184.300 5.0000 0.0000 0.0000 264.300 5.0000 0.0000 0.0000 264.000 5.0000 0.0000 0.0000 9.790 90.100 8.247           9.890 9.680 90.500 89.800 12.107 10.908 1.199 421 696.6
DSCMET_421 2018-09-28 05:45:00 5975 184.500 5.0000 0.0000 0.0000 264.300 5.0000 0.0000 0.0000 263.900 5.0000 0.0000 0.0000 9.630 90.700 8.186           9.740 9.380 91.100 90.200 11.978 10.864 1.114 421 696.6
DSCMET_421 2018-09-28 05:40:00 5974 184.700 5.0000 0.0000 0.0000 264.300 5.0000 0.0000 0.0000 263.800 5.0000 0.0000 0.0000 9.950 88.900 8.207           10.290 9.560 90.300 87.400 12.238 10.879 1.358 421 696.6
DSCMET_421 2018-09-28 05:35:00 5973 184.800 5.0000 0.0000 0.0000 264.300 5.0000 0.0000 0.0000 263.900 5.0000 0.0000 0.0000 10.230 88.100 8.350           10.420 10.060 88.800 87.300 12.469 10.985 1.484 421 696.6
DSCMET_421 2018-09-28 05:30:00 5972 184.900 5.0000 0.0000 0.0000 264.300 5.0000 0.0000 0.0000 263.700 5.0000 0.0000 0.0000 10.300 87.700 8.352           10.460 10.120 88.200 87.100 12.528 10.987 1.541 421 696.6
DSCMET_421 2018-09-28 05:25:00 5971 184.900 5.0000 0.0000 0.0000 264.000 5.0000 0.0000 0.0000 263.700 5.0000 0.0000 0.0000 10.250 88.000 8.353           10.390 10.140 88.500 87.500 12.486 10.988 1.498 421 696.6
DSCMET_421 2018-09-28 05:20:00 5970 184.900 5.0000 0.0000 0.0000 264.000 5.0000 0.0000 0.0000 263.700 5.0000 0.0000 0.0000 10.350 87.800 8.418           10.410 10.260 88.000 87.600 12.570 11.036 1.534 421 696.6
DSCMET_421 2018-09-28 05:15:00 5969 185.100 5.0000 0.0000 0.0000 264.000 5.0000 0.0000 0.0000 263.700 5.0000 0.0000 0.0000 10.350 87.600 8.384           10.490 10.110 87.900 87.300 12.570 11.011 1.559 421 696.6
DSCMET_421 2018-09-28 05:10:00 5968 185.000 5.0000 0.0000 0.0000 264.000 5.0000 0.0000 0.0000 263.800 5.0000 0.0000 0.0000 10.170 88.800 8.407           10.370 9.990 89.300 88.000 12.419 11.028 1.391 421 696.6
DSCMET_421 2018-09-28 05:05:00 5967 184.800 5.0000 0.0000 0.0000 264.000 5.0000 0.0000 0.0000 263.600 5.0000 0.0000 0.0000 10.240 88.100 8.360           10.640 9.840 89.100 86.800 12.478 10.993 1.485 421 696.6
DSCMET_421 2018-09-28 05:00:00 5966 184.700 5.0000 0.0000 0.0000 264.000 5.0000 0.0000 0.0000 263.600 5.0000 0.0000 0.0000 10.510 87.200 8.474           10.690 10.190 87.600 86.200 12.705 11.078 1.626 421 696.6
DSCMET_421 2018-09-28 04:55:00 5965 184.800 5.0000 0.0000 0.0000 264.000 5.0000 0.0000 0.0000 263.600 5.0000 0.0000 0.0000 10.520 87.000 8.450           10.720 10.250 87.600 86.400 12.713 11.060 1.653 421 696.6
DSCMET_421 2018-09-28 04:50:00 5964 184.900 5.0000 0.0000 0.0000 264.000 5.0000 0.0000 0.0000 263.600 5.0000 0.0000 0.0000 10.560 86.900 8.473           10.720 10.400 87.600 86.300 12.747 11.077 1.670 421 696.6
DSCMET_421 2018-09-28 04:45:00 5963 184.900 5.0000 0.0000 0.0000 264.000 5.0000 0.0000 0.0000 263.600 5.0000 0.0000 0.0000 10.680 86.400 8.506           10.830 10.390 86.800 85.900 12.850 11.102 1.748 421 696.6
DSCMET_421 2018-09-28 04:40:00 5962 184.900 5.0000 0.0000 0.0000 264.000 5.0000 0.0000 0.0000 263.600 5.0000 0.0000 0.0000 10.780 86.200 8.570           10.900 10.600 86.600 85.800 12.935 11.150 1.785 421 696.6
DSCMET_421 2018-09-28 04:35:00 5961 184.900 5.0000 0.0000 0.0000 264.000 5.0000 0.0000 0.0000 263.600 5.0000 0.0000 0.0000 10.790 86.300 8.597           10.950 10.600 86.800 85.800 12.944 11.171 1.773 421 696.6
DSCMET_421 2018-09-28 04:30:00 5960 184.800 5.0000 0.0000 0.0000 264.000 5.0000 0.0000 0.0000 263.600 5.0000 0.0000 0.0000 10.480 88.100 8.596           10.770 10.140 89.200 86.800 12.679 11.170 1.509 421 696.6
DSCMET_421 2018-09-28 04:25:00 5959 184.800 5.0000 0.0000 0.0000 264.000 5.0000 0.0000 0.0000 263.600 5.0000 0.0000 0.0000 10.330 88.500 8.515           10.480 10.070 89.000 87.700 12.553 11.109 1.444 421 696.6
DSCMET_421 2018-09-28 04:20:00 5958 184.800 5.0000 0.0000 0.0000 264.000 5.0000 0.0000 0.0000 263.500 5.0000 0.0000 0.0000 10.600 87.500 8.614           10.720 10.470 87.700 87.100 12.781 11.184 1.598 421 696.6
DSCMET_421 2018-09-28 04:15:00 5957 184.800 5.0000 0.0000 0.0000 264.000 5.0000 0.0000 0.0000 263.300 5.0000 0.0000 0.0000 10.650 87.000 8.578           10.770 10.500 87.400 86.700 12.824 11.157 1.667 421 696.6
DSCMET_421 2018-09-28 04:10:00 5956 184.800 5.0000 0.0000 0.0000 263.900 5.0000 0.0000 0.0000 263.300 5.0000 0.0000 0.0000 10.760 86.500 8.601           10.880 10.550 87.000 86.200 12.918 11.174 1.744 421 696.6
DSCMET_421 2018-09-28 04:05:00 5955 184.800 5.0000 0.0000 0.0000 263.900 5.0000 0.0000 0.0000 263.300 5.0000 0.0000 0.0000 10.850 86.200 8.638           10.980 10.600 86.600 85.800 12.996 11.202 1.793 421 696.6
DSCMET_421 2018-09-28 04:00:00 5954 184.800 5.0000 0.0000 0.0000 263.900 5.0000 0.0000 0.0000 263.300 5.0000 0.0000 0.0000 10.910 85.900 8.646           11.030 10.700 86.200 85.500 13.048 11.208 1.840 421 696.6
DSCMET_421 2018-09-28 03:55:00 5953 184.600 5.0000 0.0000 0.0000 263.700 5.0000 0.0000 0.0000 263.300 5.0000 0.0000 0.0000 10.940 86.000 8.693           11.060 10.670 86.500 85.700 13.074 11.244 1.830 421 696.6
DSCMET_421 2018-09-28 03:50:00 5952 184.700 5.0000 0.0000 0.0000 263.600 5.0000 0.0000 0.0000 263.200 5.0000 0.0000 0.0000 10.800 86.400 8.624           10.910 10.520 86.800 85.500 12.953 11.191 1.762 421 696.6
DSCMET_421 2018-09-28 03:45:00 5951 184.600 5.0000 0.0000 0.0000 263.600 5.0000 0.0000 0.0000 263.200 5.0000 0.0000 0.0000 11.190 84.600 8.695           11.390 10.860 85.400 83.900 13.293 11.246 2.047 421 696.6
DSCMET_421 2018-09-28 03:40:00 5950 184.500 5.0000 0.0000 0.0000 263.800 5.0000 0.0000 0.0000 263.200 5.0000 0.0000 0.0000 11.340 84.100 8.755           11.440 11.130 84.200 83.900 13.426 11.291 2.135 421 696.6
DSCMET_421 2018-09-28 03:35:00 5949 184.700 5.0000 0.0000 0.0000 263.700 5.0000 0.0000 0.0000 263.100 5.0000 0.0000 0.0000 11.400 84.100 8.814           11.510 11.210 84.700 83.700 13.479 11.336 2.143 421 696.6
DSCMET_421 2018-09-28 03:30:00 5948 184.900 5.0000 0.0000 0.0000 263.600 5.0000 0.0000 0.0000 263.100 5.0000 0.0000 0.0000 11.370 84.300 8.819           11.590 11.110 85.200 83.100 13.452 11.340 2.112 421 696.6
DSCMET_421 2018-09-28 03:25:00 5947 184.800 5.0000 0.0000 0.0000 263.600 5.0000 0.0000 0.0000 262.900 5.0000 0.0000 0.0000 11.250 84.700 8.772           11.480 11.000 85.200 84.100 13.346 11.304 2.042 421 696.6
DSCMET_421 2018-09-28 03:20:00 5946 185.100 5.0000 0.0000 0.0000 263.600 5.0000 0.0000 0.0000 262.900 5.0000 0.0000 0.0000 11.320 84.400 8.788           11.410 11.000 85.000 84.000 13.408 11.316 2.092 421 696.6
DSCMET_421 2018-09-28 03:15:00 5945 185.300 5.0000 0.0000 0.0000 263.600 5.0000 0.0000 0.0000 262.900 5.0000 0.0000 0.0000 11.420 84.200 8.851           11.590 11.260 84.800 83.500 13.497 11.365 2.133 421 696.6
DSCMET_421 2018-09-28 03:10:00 5944 185.300 5.0000 0.0000 0.0000 263.600 5.0000 0.0000 0.0000 262.900 5.0000 0.0000 0.0000 11.420 84.100 8.833           11.580 11.150 84.400 83.500 13.497 11.351 2.146 421 696.6
DSCMET_421 2018-09-28 03:05:00 5943 185.200 5.0000 0.0000 0.0000 263.600 5.0000 0.0000 0.0000 262.900 5.0000 0.0000 0.0000 11.600 83.500 8.903           11.740 11.490 84.000 83.100 13.659 11.405 2.254 421 696.6
DSCMET_421 2018-09-28 03:00:00 5942 185.400 5.0000 0.0000 0.0000 263.600 5.0000 0.0000 0.0000 262.900 5.0000 0.0000 0.0000 11.510 84.000 8.904           11.640 11.280 84.300 83.700 13.578 11.405 2.172 421 696.6
DSCMET_421 2018-09-28 02:55:00 5941 185.200 5.0000 0.0000 0.0000 263.600 5.0000 0.0000 0.0000 262.900 5.0000 0.0000 0.0000 11.550 84.000 8.943           11.710 11.280 84.400 83.600 13.614 11.436 2.178 421 696.6
DSCMET_421 2018-09-28 02:50:00 5940 185.200 5.0000 0.0000 0.0000 263.600 5.0000 0.0000 0.0000 262.900 5.0000 0.0000 0.0000 11.740 83.100 8.969           11.990 11.490 84.300 82.100 13.786 11.456 2.330 421 696.6
DSCMET_421 2018-09-28 02:45:00 5939 185.100 5.0000 0.0000 0.0000 263.600 5.0000 0.0000 0.0000 262.900 5.0000 0.0000 0.0000 11.710 83.000 8.922           11.870 11.440 83.600 82.600 13.759 11.420 2.339 421 696.6
DSCMET_421 2018-09-28 02:40:00 5938 185.200 5.0000 0.0000 0.0000 263.600 5.0000 0.0000 0.0000 262.900 5.0000 0.0000 0.0000 11.750 82.900 8.943           11.870 11.570 83.300 82.600 13.795 11.436 2.359 421 696.6
DSCMET_421 2018-09-28 02:35:00 5937 185.100 5.0000 0.0000 0.0000 263.600 5.0000 0.0000 0.0000 262.900 5.0000 0.0000 0.0000 11.810 82.700 8.966           11.940 11.620 82.900 82.400 13.850 11.454 2.396 421 696.6
DSCMET_421 2018-09-28 02:30:00 5936 185.000 5.0000 0.0000 0.0000 263.600 5.0000 0.0000 0.0000 262.900 5.0000 0.0000 0.0000 11.850 82.900 9.041           11.970 11.510 83.500 82.300 13.886 11.512 2.375 421 696.6
DSCMET_421 2018-09-28 02:25:00 5935 184.900 5.0000 0.0000 0.0000 263.600 5.0000 0.0000 0.0000 262.900 5.0000 0.0000 0.0000 11.760 83.300 9.025           11.910 11.590 83.600 83.000 13.804 11.499 2.305 421 696.6
DSCMET_421 2018-09-28 02:20:00 5934 184.700 5.0000 0.0000 0.0000 263.500 5.0000 0.0000 0.0000 262.700 5.0000 0.0000 0.0000 11.700 83.700 9.037           11.940 11.510 84.500 82.800 13.749 11.508 2.241 421 696.6
DSCMET_421 2018-09-28 02:15:00 5933 185.000 5.0000 0.0000 0.0000 263.500 5.0000 0.0000 0.0000 262.800 5.0000 0.0000 0.0000 12.050 82.000 9.075           12.240 11.790 82.800 81.400 14.071 11.538 2.533 421 696.6
DSCMET_421 2018-09-28 02:10:00 5932 185.000 5.0000 0.0000 0.0000 263.300 5.0000 0.0000 0.0000 262.600 5.0000 0.0000 0.0000 12.290 80.900 9.109           12.450 12.140 81.300 80.200 14.295 11.565 2.730 421 696.6
DSCMET_421 2018-09-28 02:05:00 5931 184.800 5.0000 0.0000 0.0000 263.300 5.0000 0.0000 0.0000 262.700 5.0000 0.0000 0.0000 12.360 80.600 9.122           12.470 12.220 81.400 80.100 14.361 11.575 2.786 421 696.6
DSCMET_421 2018-09-28 02:00:00 5930 184.500 5.0000 0.0000 0.0000 263.300 5.0000 0.0000 0.0000 262.800 5.0000 0.0000 0.0000 12.080 82.200 9.140           12.300 11.870 83.000 81.300 14.099 11.589 2.510 421 696.6
DSCMET_421 2018-09-28 01:55:00 5929 184.600 5.0000 0.0000 0.0000 263.300 5.0000 0.0000 0.0000 262.700 5.0000 0.0000 0.0000 12.080 82.300 9.158           12.200 11.970 82.700 82.000 14.099 11.603 2.495 421 696.6
DSCMET_421 2018-09-28 01:50:00 5928 184.400 5.0000 0.0000 0.0000 263.200 5.0000 0.0000 0.0000 262.600 5.0000 0.0000 0.0000 12.000 82.600 9.134           12.170 11.770 82.900 82.400 14.025 11.584 2.440 421 696.6
DSCMET_421 2018-09-28 01:45:00 5927 184.400 5.0000 0.0000 0.0000 263.200 5.0000 0.0000 0.0000 262.600 5.0000 0.0000 0.0000 12.010 83.100 9.233           12.150 11.880 83.400 82.600 14.034 11.662 2.372 421 696.6
DSCMET_421 2018-09-28 01:40:00 5926 184.000 5.0000 0.0000 0.0000 263.200 5.0000 0.0000 0.0000 262.600 5.0000 0.0000 0.0000 12.140 82.200 9.199           12.300 11.950 83.100 81.400 14.154 11.635 2.519 421 696.6
DSCMET_421 2018-09-28 01:35:00 5925 183.800 5.0000 0.0000 0.0000 263.200 5.0000 0.0000 0.0000 262.600 5.0000 0.0000 0.0000 12.460 80.900 9.275           12.650 12.320 81.500 80.000 14.456 11.695 2.761 421 696.6
DSCMET_421 2018-09-28 01:30:00 5924 183.300 5.0000 0.0000 0.0000 263.200 5.0000 0.0000 0.0000 262.600 5.0000 0.0000 0.0000 12.680 79.910 9.306           12.760 12.530 80.200 79.600 14.666 11.719 2.946 421 696.6
DSCMET_421 2018-09-28 01:25:00 5923 183.700 5.0000 0.0000 0.0000 263.200 5.0000 0.0000 0.0000 262.600 5.0000 0.0000 0.0000 12.640 80.200 9.321           12.780 12.430 80.800 79.590 14.627 11.731 2.896 421 696.6
DSCMET_421 2018-09-28 01:20:00 5922 184.200 5.0000 0.0000 0.0000 263.200 5.0000 0.0000 0.0000 262.600 5.0000 0.0000 0.0000 12.750 79.610 9.319           12.880 12.600 80.200 79.190 14.733 11.729 3.004 421 696.6
DSCMET_421 2018-09-28 01:15:00 5921 184.100 5.0000 0.0000 0.0000 263.200 5.0000 0.0000 0.0000 262.500 5.0000 0.0000 0.0000 12.640 80.400 9.358           12.780 12.450 81.000 80.000 14.627 11.760 2.867 421 696.6
DSCMET_421 2018-09-28 01:10:00 5920 184.100 5.0000 0.0000 0.0000 263.200 5.0000 0.0000 0.0000 262.200 5.0000 0.0000 0.0000 12.590 80.500 9.328           12.700 12.430 80.800 80.100 14.579 11.736 2.843 421 696.6
DSCMET_421 2018-09-28 01:05:00 5919 184.200 5.0000 0.0000 0.0000 263.200 5.0000 0.0000 0.0000 262.300 5.0000 0.0000 0.0000 12.800 79.560 9.358           12.990 12.560 80.400 78.650 14.782 11.760 3.021 421 696.6
DSCMET_421 2018-09-28 01:00:00 5918 184.800 5.0000 0.0000 0.0000 263.000 5.0000 0.0000 0.0000 262.200 5.0000 0.0000 0.0000 12.870 79.580 9.430           13.060 12.730 79.990 79.080 14.850 11.817 3.032 421 696.6
DSCMET_421 2018-09-28 00:55:00 5917 184.700 5.0000 0.0000 0.0000 263.000 5.0000 0.0000 0.0000 262.200 5.0000 0.0000 0.0000 13.050 78.640 9.428           13.160 12.810 79.130 78.370 15.025 11.816 3.209 421 696.6
DSCMET_421 2018-09-28 00:50:00 5916 184.800 5.0000 0.0000 0.0000 263.000 5.0000 0.0000 0.0000 262.200 5.0000 0.0000 0.0000 12.940 79.480 9.479           13.170 12.610 80.100 78.820 14.918 11.857 3.061 421 696.6
DSCMET_421 2018-09-28 00:45:00 5915 184.700 5.0000 0.0000 0.0000 262.900 5.0000 0.0000 0.0000 262.200 5.0000 0.0000 0.0000 13.000 79.170 9.479           13.270 12.740 79.840 78.420 14.976 11.857 3.120 421 696.6
DSCMET_421 2018-09-28 00:40:00 5914 184.600 5.0000 0.0000 0.0000 262.900 5.0000 0.0000 0.0000 262.200 5.0000 0.0000 0.0000 13.190 78.510 9.539           13.310 12.940 79.030 77.940 15.164 11.905 3.259 421 696.6
DSCMET_421 2018-09-28 00:35:00 5913 184.700 5.0000 0.0000 0.0000 262.900 5.0000 0.0000 0.0000 262.200 5.0000 0.0000 0.0000 13.400 77.510 9.553           13.540 13.260 77.970 77.010 15.373 11.915 3.457 421 696.6
DSCMET_421 2018-09-28 00:30:00 5912 184.700 5.0000 0.0000 0.0000 262.900 5.0000 0.0000 0.0000 262.200 5.0000 0.0000 0.0000 13.460 77.190 9.549           13.620 13.240 77.850 76.740 15.433 11.913 3.520 421 696.6
DSCMET_421 2018-09-28 00:25:00 5911 184.500 5.0000 0.0000 0.0000 262.900 5.0000 0.0000 0.0000 262.200 5.0000 0.0000 0.0000 13.440 77.480 9.586           13.540 13.190 77.780 77.120 15.413 11.942 3.471 421 696.6
DSCMET_421 2018-09-28 00:20:00 5910 184.700 5.0000 0.0000 0.0000 262.900 5.0000 0.0000 0.0000 262.200 5.0000 0.0000 0.0000 13.530 77.260 9.631           13.720 13.370 77.900 76.770 15.504 11.978 3.526 421 696.6
DSCMET_421 2018-09-28 00:15:00 5909 184.600 5.0000 0.0000 0.0000 262.900 5.0000 0.0000 0.0000 262.100 5.0000 0.0000 0.0000 13.480 77.560 9.640           13.700 13.370 78.380 76.750 15.453 11.985 3.468 421 696.6
DSCMET_421 2018-09-28 00:10:00 5908 184.600 5.0000 0.0000 0.0000 262.900 5.0000 0.0000 0.0000 262.200 5.0000 0.0000 0.0000 13.820 76.000 9.667           13.970 13.590 76.740 75.510 15.799 12.007 3.792 421 696.6
DSCMET_421 2018-09-28 00:05:00 5907 184.700 5.0000 0.0000 0.0000 262.900 5.0000 0.0000 0.0000 262.000 5.0000 0.0000 0.0000 13.900 75.790 9.703           14.020 13.780 76.150 75.560 15.881 12.036 3.845 421 696.6
DSCMET_421 2018-09-28 00:00:00 5906 184.600 5.0000 0.0000 0.0000 262.900 5.0000 0.0000 0.0000 262.100 5.0000 0.0000 0.0000 14.000 75.030 9.649           14.220 13.640 76.150 74.380 15.985 11.993 3.991 421 696.6
DSCMET_421 2018-09-27 23:55:00 5905 184.800 5.0000 0.0000 0.0000 262.900 5.0000 0.0000 0.0000 262.000 5.0000 0.0000 0.0000 13.850 76.160 9.727           14.050 13.650 77.380 75.220 15.830 12.056 3.774 421 696.6
DSCMET_421 2018-09-27 23:50:00 5904 184.400 5.0000 0.0000 0.0000 262.900 5.0000 0.0000 0.0000 261.900 5.0000 0.0000 0.0000 13.720 77.270 9.817           13.830 13.580 77.880 76.780 15.697 12.129 3.568 421 696.6
DSCMET_421 2018-09-27 23:45:00 5903 184.400 5.0000 0.0000 0.0000 262.900 5.0000 0.0000 0.0000 261.900 5.0000 0.0000 0.0000 14.030 75.770 9.825           14.400 13.650 77.250 74.310 16.016 12.135 3.881 421 696.6
DSCMET_421 2018-09-27 23:40:00 5902 184.300 5.0000 0.0000 0.0000 262.800 5.0000 0.0000 0.0000 261.900 5.0000 0.0000 0.0000 14.290 74.500 9.824           14.430 14.100 74.950 73.960 16.288 12.135 4.153 421 696.6
DSCMET_421 2018-09-27 23:35:00 5901 184.500 5.0000 0.0000 0.0000 262.800 5.0000 0.0000 0.0000 261.900 5.0000 0.0000 0.0000 14.460 73.690 9.825           14.590 14.210 74.080 73.210 16.468 12.135 4.333 421 696.6
DSCMET_421 2018-09-27 23:30:00 5900 184.500 5.0000 0.0000 0.0000 262.800 5.0000 0.0000 0.0000 261.800 5.0000 0.0000 0.0000 14.380 74.330 9.877           14.490 13.980 74.950 73.840 16.383 12.178 4.206 421 696.6
DSCMET_421 2018-09-27 23:25:00 5899 184.500 5.0000 0.0000 0.0000 262.800 5.0000 0.0000 0.0000 261.800 5.0000 0.0000 0.0000 14.150 75.640 9.915           14.280 13.880 76.100 75.000 16.141 12.209 3.932 421 696.6
DSCMET_421 2018-09-27 23:20:00 5898 184.500 5.0000 0.0000 0.0000 262.800 5.0000 0.0000 0.0000 261.800 5.0000 0.0000 0.0000 14.130 76.370 10.039           14.280 13.960 77.130 75.500 16.120 12.311 3.809 421 696.6
DSCMET_421 2018-09-27 23:15:00 5897 184.700 5.0000 0.0000 0.0000 262.500 5.0000 0.0000 0.0000 261.800 5.0000 0.0000 0.0000 14.210 76.030 10.050           14.410 13.960 77.070 75.170 16.204 12.320 3.884 421 696.6
DSCMET_421 2018-09-27 23:10:00 5896 184.600 5.0000 0.0000 0.0000 262.500 5.0000 0.0000 0.0000 261.700 5.0000 0.0000 0.0000 14.360 75.700 10.130           14.420 14.270 76.030 75.360 16.362 12.386 3.976 421 696.6
DSCMET_421 2018-09-27 23:05:00 5895 184.600 5.0000 0.0000 0.0000 262.500 5.0000 0.0000 0.0000 261.500 5.0000 0.0000 0.0000 14.520 75.050 10.156           14.770 14.040 76.240 74.250 16.532 12.407 4.125 421 696.6
DSCMET_421 2018-09-27 23:00:00 5894 184.600 5.0000 0.0000 0.0000 262.500 5.0000 0.0000 0.0000 261.500 5.0000 0.0000 0.0000 14.760 74.190 10.215           14.870 14.640 74.450 73.920 16.790 12.457 4.334 421 696.6
DSCMET_421 2018-09-27 22:55:00 5893 184.600 5.0000 0.0000 0.0000 262.500 5.0000 0.0000 0.0000 261.500 5.0000 0.0000 0.0000 14.970 73.080 10.192           15.240 14.570 73.950 72.190 17.019 12.437 4.582 421 696.6
DSCMET_421 2018-09-27 22:50:00 5892 184.600 5.0000 0.0000 0.0000 262.500 5.0000 0.0000 0.0000 261.500 5.0000 0.0000 0.0000 15.150 72.560 10.258           15.450 14.750 73.260 71.050 17.217 12.493 4.724 421 696.6
DSCMET_421 2018-09-27 22:45:00 5891 184.600 5.0000 0.0000 0.0000 262.500 5.0000 0.0000 0.0000 261.500 5.0000 0.0000 0.0000 15.700 69.460 10.133           15.850 15.400 70.530 68.990 17.836 12.389 5.447 421 696.6
DSCMET_421 2018-09-27 22:40:00 5890 184.700 5.0000 0.0000 0.0000 262.500 5.0000 0.0000 0.0000 261.500 5.0000 0.0000 0.0000 15.470 70.780 10.194           15.680 15.130 71.340 69.600 17.575 12.439 5.135 421 696.6
DSCMET_421 2018-09-27 22:35:00 5889 184.500 5.0000 0.0000 0.0000 262.500 5.0000 0.0000 0.0000 261.500 5.0000 0.0000 0.0000 15.600 70.700 10.302           15.760 15.430 71.260 70.030 17.722 12.529 5.192 421 696.6
DSCMET_421 2018-09-27 22:30:00 5888 184.500 5.0000 0.0000 0.0000 262.500 5.0000 0.0000 0.0000 261.500 5.0000 0.0000 0.0000 15.480 71.160 10.284           15.700 15.170 71.440 70.560 17.586 12.514 5.072 421 696.6
DSCMET_421 2018-09-27 22:25:00 5887 184.400 5.0000 0.0000 0.0000 262.500 5.0000 0.0000 0.0000 261.500 5.0000 0.0000 0.0000 15.790 70.080 10.352           15.980 15.500 70.460 69.680 17.939 12.571 5.367 421 696.6
DSCMET_421 2018-09-27 22:20:00 5886 184.400 5.0000 0.0000 0.0000 262.500 5.0000 0.0000 0.0000 261.500 5.0000 0.0000 0.0000 15.830 70.190 10.414           16.040 15.600 70.860 69.700 17.985 12.623 5.361 421 696.6
DSCMET_421 2018-09-27 22:15:00 5885 184.400 5.0000 0.0000 0.0000 262.500 5.0000 0.0000 0.0000 261.400 5.0000 0.0000 0.0000 16.040 69.130 10.387           16.310 15.710 70.480 67.960 18.228 12.601 5.627 421 696.6
DSCMET_421 2018-09-27 22:10:00 5884 184.400 5.0000 0.0000 0.0000 262.400 5.0000 0.0000 0.0000 261.500 5.0000 0.0000 0.0000 16.130 68.790 10.399           16.310 15.910 69.600 68.350 18.333 12.611 5.722 421 696.6
DSCMET_421 2018-09-27 22:05:00 5883 184.300 5.0000 0.0000 0.0000 262.200 5.0000 0.0000 0.0000 261.400 5.0000 0.0000 0.0000 15.940 70.170 10.515           16.170 15.760 70.870 69.120 18.112 12.709 5.403 421 696.6
DSCMET_421 2018-09-27 22:00:00 5882 184.000 5.0000 0.0000 0.0000 262.100 5.0000 0.0000 0.0000 261.200 5.0000 0.0000 0.0000 15.810 71.250 10.619           16.020 15.680 71.730 70.760 17.962 12.798 5.164 421 696.6
DSCMET_421 2018-09-27 21:55:00 5881 183.900 5.0000 0.0000 0.0000 262.200 5.0000 0.0000 0.0000 261.300 5.0000 0.0000 0.0000 16.100 70.280 10.692           16.310 15.810 70.970 69.630 18.298 12.860 5.438 421 696.6
DSCMET_421 2018-09-27 21:50:00 5880 183.700 5.0000 0.0000 0.0000 262.100 5.0000 0.0000 0.0000 261.100 5.0000 0.0000 0.0000 16.040 70.430 10.666           16.170 15.790 70.950 69.870 18.228 12.838 5.390 421 696.6
DSCMET_421 2018-09-27 21:45:00 5879 183.900 5.0000 0.0000 0.0000 262.100 5.0000 0.0000 0.0000 261.100 5.0000 0.0000 0.0000 16.270 69.420 10.670           16.420 16.110 70.140 68.760 18.497 12.841 5.656 421 696.6
DSCMET_421 2018-09-27 21:40:00 5878 184.100 5.0000 0.0000 0.0000 262.100 5.0000 0.0000 0.0000 261.100 5.0000 0.0000 0.0000 16.510 68.630 10.727           16.650 16.190 68.890 68.360 18.782 12.890 5.892 421 696.6
DSCMET_421 2018-09-27 21:35:00 5877 184.100 5.0000 0.0000 0.0000 262.100 5.0000 0.0000 0.0000 261.100 5.0000 0.0000 0.0000 16.560 68.660 10.781           16.730 16.320 69.160 67.410 18.842 12.937 5.905 421 696.6
DSCMET_421 2018-09-27 21:30:00 5876 183.800 5.0000 0.0000 0.0000 262.100 5.0000 0.0000 0.0000 261.100 5.0000 0.0000 0.0000 16.770 67.370 10.697           16.910 16.470 67.630 67.170 19.095 12.864 6.231 421 696.6
DSCMET_421 2018-09-27 21:25:00 5875 184.100 5.0000 0.0000 0.0000 262.100 5.0000 0.0000 0.0000 261.100 5.0000 0.0000 0.0000 16.920 67.030 10.764           17.100 16.760 67.400 66.650 19.277 12.922 6.356 421 696.6
DSCMET_421 2018-09-27 21:20:00 5874 184.100 5.0000 0.0000 0.0000 262.100 5.0000 0.0000 0.0000 261.100 5.0000 0.0000 0.0000 17.140 66.750 10.910           17.290 16.960 67.000 66.420 19.548 13.048 6.500 421 696.6
DSCMET_421 2018-09-27 21:15:00 5873 184.300 5.0000 0.0000 0.0000 261.800 5.0000 0.0000 0.0000 261.000 5.0000 0.0000 0.0000 17.010 67.680 10.995           17.310 16.610 69.020 66.380 19.388 13.122 6.266 421 696.6
DSCMET_421 2018-09-27 21:10:00 5872 184.200 5.0000 0.0000 0.0000 261.700 5.0000 0.0000 0.0000 261.100 5.0000 0.0000 0.0000 17.240 66.740 11.003           17.520 16.930 67.710 65.070 19.672 13.129 6.543 421 696.6
DSCMET_421 2018-09-27 21:05:00 5871 183.900 5.0000 0.0000 0.0000 261.700 5.0000 0.0000 0.0000 261.000 5.0000 0.0000 0.0000 17.400 66.360 11.070           17.520 17.160 66.600 65.830 19.872 13.187 6.685 421 696.6
DSCMET_421 2018-09-27 21:00:00 5870 184.400 5.0000 0.0000 0.0000 261.700 5.0000 0.0000 0.0000 260.800 5.0000 0.0000 0.0000 17.470 66.260 11.114           17.690 17.140 66.600 65.830 19.960 13.225 6.735 421 696.6
DSCMET_421 2018-09-27 20:55:00 5869 184.100 5.0000 0.0000 0.0000 261.700 5.0000 0.0000 0.0000 260.700 5.0000 0.0000 0.0000 17.710 65.440 11.154           17.900 17.370 65.730 65.050 20.264 13.261 7.003 421 696.6
DSCMET_421 2018-09-27 20:50:00 5868 184.100 5.0000 0.0000 0.0000 261.900 5.0000 0.0000 0.0000 260.700 5.0000 0.0000 0.0000 17.980 64.520 11.197           18.170 17.750 65.330 64.090 20.612 13.299 7.313 421 696.6
DSCMET_421 2018-09-27 20:45:00 5867 184.100 5.0000 0.0000 0.0000 261.700 5.0000 0.0000 0.0000 260.700 5.0000 0.0000 0.0000 18.040 64.340 11.211           18.170 17.900 64.630 64.090 20.690 13.312 7.378 421 696.6
DSCMET_421 2018-09-27 20:40:00 5866 184.400 5.0000 0.0000 0.0000 261.700 5.0000 0.0000 0.0000 260.700 5.0000 0.0000 0.0000 18.140 64.260 11.287           18.300 17.870 64.680 64.070 20.820 13.379 7.441 421 696.6
DSCMET_421 2018-09-27 20:35:00 5865 184.400 5.0000 0.0000 0.0000 261.700 5.0000 0.0000 0.0000 260.700 5.0000 0.0000 0.0000 18.210 63.990 11.290           18.360 17.910 64.420 63.520 20.912 13.381 7.530 421 696.6
DSCMET_421 2018-09-27 20:30:00 5864 184.000 5.0000 0.0000 0.0000 261.700 5.0000 0.0000 0.0000 260.700 5.0000 0.0000 0.0000 18.210 64.260 11.354           18.410 17.860 65.140 63.780 20.912 13.438 7.474 421 696.6
DSCMET_421 2018-09-27 20:25:00 5863 183.900 5.0000 0.0000 0.0000 261.700 5.0000 0.0000 0.0000 260.600 5.0000 0.0000 0.0000 18.390 63.500 11.345           18.510 18.240 63.820 63.100 21.149 13.430 7.719 421 696.6
DSCMET_421 2018-09-27 20:20:00 5862 184.300 5.0000 0.0000 0.0000 261.700 5.0000 0.0000 0.0000 260.500 5.0000 0.0000 0.0000 18.620 62.640 11.356           18.790 18.410 63.300 62.070 21.456 13.440 8.016 421 696.6
DSCMET_421 2018-09-27 20:15:00 5861 184.300 5.0000 0.0000 0.0000 261.700 5.0000 0.0000 0.0000 260.500 5.0000 0.0000 0.0000 18.800 61.910 11.349           18.970 18.590 62.140 61.690 21.699 13.434 8.265 421 696.6
DSCMET_421 2018-09-27 20:10:00 5860 183.700 5.0000 0.0000 0.0000 261.700 5.0000 0.0000 0.0000 260.400 5.0000 0.0000 0.0000 18.970 61.580 11.429           19.140 18.710 62.120 61.230 21.930 13.505 8.426 421 696.6
DSCMET_421 2018-09-27 20:05:00 5859 184.400 5.0000 0.0000 0.0000 261.700 5.0000 0.0000 0.0000 260.400 5.0000 0.0000 0.0000 18.980 61.780 11.487           19.120 18.890 61.990 61.420 21.944 13.557 8.387 421 696.6
DSCMET_421 2018-09-27 20:00:00 5858 184.400 5.0000 0.0000 0.0000 261.600 5.0000 0.0000 0.0000 260.300 5.0000 0.0000 0.0000 19.140 61.170 11.488           19.300 18.750 61.690 60.840 22.164 13.558 8.606 421 696.6
DSCMET_421 2018-09-27 19:55:00 5857 184.400 5.0000 0.0000 0.0000 261.400 5.0000 0.0000 0.0000 260.300 5.0000 0.0000 0.0000 19.250 60.930 11.532           19.480 18.830 61.340 60.240 22.317 13.598 8.719 421 696.6
DSCMET_421 2018-09-27 19:50:00 5856 184.400 5.0000 0.0000 0.0000 261.300 5.0000 0.0000 0.0000 260.300 5.0000 0.0000 0.0000 19.630 59.580 11.550           20.010 19.330 60.610 58.330 22.850 13.614 9.236 421 696.6
DSCMET_421 2018-09-27 19:45:00 5855 184.300 5.0000 0.0000 0.0000 261.300 5.0000 0.0000 0.0000 260.300 5.0000 0.0000 0.0000 19.970 58.250 11.528           20.140 19.690 58.500 57.940 23.337 13.594 9.743 421 696.6
DSCMET_421 2018-09-27 19:40:00 5854 184.600 5.0000 0.0000 0.0000 261.300 5.0000 0.0000 0.0000 260.200 5.0000 0.0000 0.0000 19.950 58.470 11.566           20.140 19.710 59.590 57.890 23.308 13.628 9.680 421 696.6
DSCMET_421 2018-09-27 19:35:00 5853 184.500 5.0000 0.0000 0.0000 261.300 5.0000 0.0000 0.0000 260.000 5.0000 0.0000 0.0000 20.110 58.310 11.674           20.440 19.620 59.380 57.550 23.540 13.726 9.814 421 696.6
DSCMET_421 2018-09-27 19:30:00 5852 184.800 5.0000 0.0000 0.0000 261.300 5.0000 0.0000 0.0000 260.000 5.0000 0.0000 0.0000 20.220 57.560 11.581           20.370 19.950 58.030 57.040 23.701 13.642 10.058 421 696.6
DSCMET_421 2018-09-27 19:25:00 5851 184.100 5.0000 0.0000 0.0000 261.200 5.0000 0.0000 0.0000 260.000 5.0000 0.0000 0.0000 20.370 57.300 11.653           20.650 20.200 57.670 56.620 23.921 13.707 10.214 421 696.6
DSCMET_421 2018-09-27 19:20:00 5850 183.900 5.0000 0.0000 0.0000 261.000 5.0000 0.0000 0.0000 260.000 5.0000 0.0000 0.0000 20.680 56.450 11.716           20.880 20.550 57.080 55.640 24.383 13.764 10.619 421 696.6
DSCMET_421 2018-09-27 19:15:00 5849 184.700 5.0000 0.0000 0.0000 261.000 5.0000 0.0000 0.0000 260.000 5.0000 0.0000 0.0000 20.970 55.140 11.631           21.310 20.660 56.070 54.450 24.821 13.687 11.135 421 696.6
DSCMET_421 2018-09-27 19:10:00 5848 184.800 5.0000 0.0000 0.0000 260.900 5.0000 0.0000 0.0000 260.000 5.0000 0.0000 0.0000 21.190 54.440 11.642           21.320 20.880 54.890 54.150 25.159 13.697 11.462 421 696.6
DSCMET_421 2018-09-27 19:05:00 5847 184.500 5.0000 0.0000 0.0000 260.900 5.0000 0.0000 0.0000 259.900 5.0000 0.0000 0.0000 21.140 54.880 11.717           21.310 20.960 55.900 53.960 25.082 13.765 11.317 421 696.6
DSCMET_421 2018-09-27 19:00:00 5846 184.200 5.0000 0.0000 0.0000 260.900 5.0000 0.0000 0.0000 259.900 5.0000 0.0000 0.0000 21.690 52.890 11.668           22.050 21.270 54.060 51.970 25.941 13.720 12.221 421 696.6
DSCMET_421 2018-09-27 18:55:00 5845 184.000 5.0000 0.0000 0.0000 260.900 5.0000 0.0000 0.0000 259.800 5.0000 0.0000 0.0000 21.530 53.940 11.817           21.870 21.140 55.600 52.680 25.688 13.856 11.832 421 696.6
DSCMET_421 2018-09-27 18:50:00 5844 183.800 5.0000 0.0000 0.0000 260.900 5.0000 0.0000 0.0000 259.600 5.0000 0.0000 0.0000 21.440 54.000 11.751           21.750 21.020 55.480 52.510 25.547 13.796 11.752 421 696.6
DSCMET_421 2018-09-27 18:45:00 5843 184.400 5.0000 0.0000 0.0000 260.600 5.0000 0.0000 0.0000 259.600 5.0000 0.0000 0.0000 21.920 51.810 11.568           22.180 21.660 52.650 51.200 26.308 13.630 12.678 421 696.6
DSCMET_421 2018-09-27 18:40:00 5842 184.200 5.0000 0.0000 0.0000 260.600 5.0000 0.0000 0.0000 259.500 5.0000 0.0000 0.0000 22.280 51.160 11.709           22.460 22.040 51.630 50.800 26.891 13.757 13.133 421 696.6
DSCMET_421 2018-09-27 18:35:00 5841 184.400 5.0000 0.0000 0.0000 260.600 5.0000 0.0000 0.0000 259.500 5.0000 0.0000 0.0000 22.650 50.110 11.735           22.890 22.370 51.140 49.260 27.502 13.781 13.721 421 696.6
DSCMET_421 2018-09-27 18:30:00 5840 184.600 5.0000 0.0000 0.0000 260.500 5.0000 0.0000 0.0000 259.300 5.0000 0.0000 0.0000 22.790 49.350 11.632           22.950 22.670 49.670 49.060 27.736 13.688 14.048 421 696.6
DSCMET_421 2018-09-27 18:25:00 5839 184.100 5.0000 0.0000 0.0000 260.500 5.0000 0.0000 0.0000 259.200 5.0000 0.0000 0.0000 22.940 48.800 11.600           23.350 22.550 50.070 48.050 27.989 13.659 14.330 421 696.6
DSCMET_421 2018-09-27 18:20:00 5838 184.300 5.0000 0.0000 0.0000 260.500 5.0000 0.0000 0.0000 259.200 5.0000 0.0000 0.0000 23.480 47.430 11.662           23.660 23.340 47.780 46.950 28.917 13.715 15.202 421 696.6
DSCMET_421 2018-09-27 18:15:00 5837 184.200 5.0000 0.0000 0.0000 260.500 5.0000 0.0000 0.0000 259.200 5.0000 0.0000 0.0000 23.550 47.230 11.662           23.710 23.390 47.860 46.650 29.039 13.715 15.324 421 696.6
DSCMET_421 2018-09-27 18:10:00 5836 184.300 5.0000 0.0000 0.0000 260.400 5.0000 0.0000 0.0000 259.200 5.0000 0.0000 0.0000 23.670 47.200 11.762           23.790 23.350 47.710 46.770 29.250 13.806 15.444 421 696.6
DSCMET_421 2018-09-27 18:05:00 5835 184.700 5.0000 0.0000 0.0000 260.200 5.0000 0.0000 0.0000 259.200 5.0000 0.0000 0.0000 23.910 46.470 11.744           24.080 23.650 47.460 46.040 29.675 13.790 15.885 421 696.6
DSCMET_421 2018-09-27 18:00:00 5834 184.300 5.0000 0.0000 0.0000 260.200 5.0000 0.0000 0.0000 258.800 5.0000 0.0000 0.0000 24.120 45.970 11.771           24.510 23.850 46.520 44.890 30.051 13.814 16.237 421 696.6
DSCMET_421 2018-09-27 17:55:00 5833 184.100 5.0000 0.0000 0.0000 260.200 5.0000 0.0000 0.0000 258.800 5.0000 0.0000 0.0000 24.570 44.580 11.714           24.760 24.360 44.940 43.860 30.872 13.763 17.109 421 696.6
DSCMET_421 2018-09-27 17:50:00 5832 183.900 5.0000 0.0000 0.0000 260.000 5.0000 0.0000 0.0000 258.800 5.0000 0.0000 0.0000 24.980 42.930 11.514           25.220 24.670 43.940 42.240 31.636 13.581 18.055 421 696.6
DSCMET_421 2018-09-27 17:45:00 5831 184.000 5.0000 0.0000 0.0000 259.800 5.0000 0.0000 0.0000 258.600 5.0000 0.0000 0.0000 25.140 42.450 11.488           25.560 24.800 43.050 41.170 31.939 13.558 18.381 421 696.6
DSCMET_421 2018-09-27 17:40:00 5830 182.900 5.0000 0.0000 0.0000 259.800 5.0000 0.0000 0.0000 258.500 5.0000 0.0000 0.0000 25.530 40.670 11.191           25.780 25.300 41.240 40.000 32.687 13.294 19.393 421 696.6
DSCMET_421 2018-09-27 17:35:00 5829 184.000 5.0000 0.0000 0.0000 259.800 5.0000 0.0000 0.0000 258.500 5.0000 0.0000 0.0000 25.840 39.640 11.082           26.020 25.640 40.430 39.080 33.293 13.198 20.096 421 696.6
DSCMET_421 2018-09-27 17:30:00 5828 184.200 5.0000 0.0000 0.0000 259.900 5.0000 0.0000 0.0000 258.500 5.0000 0.0000 0.0000 26.070 38.800 10.964           26.190 25.740 39.200 38.390 33.749 13.095 20.655 421 696.6
DSCMET_421 2018-09-27 17:25:00 5827 184.500 5.0000 0.0000 0.0000 260.100 5.0000 0.0000 0.0000 258.400 5.0000 0.0000 0.0000 26.740 37.010 10.847           26.960 26.370 38.300 36.460 35.108 12.994 22.115 421 696.6
DSCMET_421 2018-09-27 17:20:00 5826 184.900 5.0000 0.0000 0.0000 260.100 5.0000 0.0000 0.0000 258.400 5.0000 0.0000 0.0000 27.180 35.870 10.765           27.610 26.780 36.680 35.150 36.027 12.923 23.104 421 696.6
DSCMET_421 2018-09-27 17:15:00 5825 185.000 5.0000 0.0000 0.0000 260.100 5.0000 0.0000 0.0000 258.400 5.0000 0.0000 0.0000 27.960 33.600 10.468           28.350 27.330 34.740 32.450 37.706 12.669 25.037 421 696.6
DSCMET_421 2018-09-27 17:10:00 5824 185.200 5.0000 0.0000 0.0000 260.100 5.0000 0.0000 0.0000 258.400 5.0000 0.0000 0.0000 28.540 32.310 10.387           28.850 28.170 33.330 31.460 38.999 12.600 26.398 421 696.6
DSCMET_421 2018-09-27 17:05:00 5823 184.900 5.0000 0.0000 0.0000 259.800 5.0000 0.0000 0.0000 258.300 5.0000 0.0000 0.0000 29.090 30.900 10.195           29.570 28.660 31.570 29.770 40.260 12.440 27.820 421 696.6
DSCMET_421 2018-09-27 17:00:00 5822 184.500 5.0000 0.0000 0.0000 259.700 5.0000 0.0000 0.0000 258.400 5.0000 0.0000 0.0000 29.500 29.620 9.917           29.850 29.170 30.360 28.890 41.223 12.210 29.013 421 696.6
DSCMET_421 2018-09-27 16:55:00 5821 184.500 5.0000 0.0000 0.0000 259.900 5.0000 0.0000 0.0000 258.300 5.0000 0.0000 0.0000 29.790 29.240 9.973           30.050 29.360 30.780 28.190 41.916 12.256 29.660 421 696.6
DSCMET_421 2018-09-27 16:50:00 5820 182.800 5.0000 0.0000 0.0000 259.900 5.0000 0.0000 0.0000 258.400 5.0000 0.0000 0.0000 29.960 28.870 9.928           30.150 29.720 29.350 28.420 42.327 12.220 30.107 421 696.6
DSCMET_421 2018-09-27 16:45:00 5819 184.100 5.0000 0.0000 0.0000 259.800 5.0000 0.0000 0.0000 258.400 5.0000 0.0000 0.0000 30.330 28.060 9.820           30.560 30.030 28.370 27.730 43.234 12.131 31.103 421 696.6
DSCMET_421 2018-09-27 16:40:00 5818 184.500 5.0000 0.0000 0.0000 260.000 5.0000 0.0000 0.0000 258.400 5.0000 0.0000 0.0000 30.650 27.620 9.857           30.910 30.460 27.990 27.230 44.032 12.162 31.870 421 696.6
DSCMET_421 2018-09-27 16:35:00 5817 184.700 5.0000 0.0000 0.0000 259.800 5.0000 0.0000 0.0000 258.400 5.0000 0.0000 0.0000 31.060 26.800 9.756           31.240 30.870 27.230 26.480 45.073 12.080 32.993 421 696.6
DSCMET_421 2018-09-27 16:30:00 5816 184.600 5.0000 0.0000 0.0000 259.800 5.0000 0.0000 0.0000 258.400 5.0000 0.0000 0.0000 31.150 26.710 9.782           31.450 30.770 27.110 26.370 45.304 12.101 33.203 421 696.6
DSCMET_421 2018-09-27 16:25:00 5815 184.700 5.0000 0.0000 0.0000 259.700 5.0000 0.0000 0.0000 258.300 5.0000 0.0000 0.0000 31.470 26.450 9.907           31.730 31.100 27.300 25.740 46.135 12.203 33.932 421 696.6
DSCMET_421 2018-09-27 16:20:00 5814 183.900 5.0000 0.0000 0.0000 259.700 5.0000 0.0000 0.0000 258.400 5.0000 0.0000 0.0000 31.900 25.290 9.602           32.210 31.580 26.320 24.260 47.273 11.955 35.317 421 696.6
DSCMET_421 2018-09-27 16:15:00 5813 184.700 5.0000 0.0000 0.0000 259.700 5.0000 0.0000 0.0000 258.300 5.0000 0.0000 0.0000 32.090 24.570 9.333           32.350 31.870 25.610 23.850 47.783 11.740 36.043 421 696.6
DSCMET_421 2018-09-27 16:10:00 5812 185.200 5.0000 0.0000 0.0000 259.600 5.0000 0.0000 0.0000 258.200 5.0000 0.0000 0.0000 31.940 25.600 9.817           32.560 31.400 27.100 24.200 47.380 12.129 35.250 421 696.6
DSCMET_421 2018-09-27 16:05:00 5811 184.500 5.0000 0.0000 0.0000 259.700 5.0000 0.0000 0.0000 258.400 5.0000 0.0000 0.0000 32.450 24.570 9.634           32.730 32.150 24.960 23.930 48.763 11.981 36.782 421 696.6